[[{"header":{"parameterUnit":"m.s-1","parameterCategory":1,"la1":30.6,"la2":29.2853,"lo1":-89.7004,"lo2":-87.6739,"dy":0.0162,"dx":0.0183,"nx":112,"ny":82,"refTime":"2026-04-27T12:00:00:Z","depth":0,"parameterNumber":2,"parameterNumberName":"U-component_of_WINDS"},"data":[0.0,0.0,0.0,0.0,0.0,0.0,0.0,0.0,0.0,0.0,0.0,0.0,0.0,0.0,0.0,0.0,0.0,0.0,0.0,0.0,0.0,0.0,0.0,0.0,0.0,0.0,0.0,0.0,0.0,0.0,0.0,0.0,0.0,0.0,0.0,0.0,0.0,0.0,0.0,0.0,0.0,0.0,0.0,0.0,0.0,0.0,0.0,0.0,0.0,0.0,0.0,0.0,0.0,0.0,0.0,0.0,0.0,0.0,0.0,0.0,0.0,0.0,0.0,0.0,0.0,0.0,0.0,0.0,0.0,0.0,0.0,0.0,0.0,0.0,0.0,0.0,0.0,0.0,0.0,0.0,0.0,0.0,0.0,0.0,0.0,0.0,0.0,0.0,0.0,0.0,0.0,-3.0601,-3.381,-3.5506,-3.4965,-3.4233,-3.2256,-2.8592,0.0,0.0,0.0,0.0,0.0,0.0,0.0,0.0,0.0,0.0,0.0,0.0,0.0,0.0,0.0,0.0,0.0,0.0,0.0,0.0,0.0,0.0,0.0,0.0,0.0,0.0,0.0,0.0,0.0,0.0,0.0,0.0,0.0,0.0,0.0,0.0,0.0,0.0,0.0,0.0,0.0,0.0,0.0,0.0,0.0,0.0,0.0,0.0,0.0,0.0,0.0,0.0,0.0,0.0,0.0,0.0,0.0,0.0,0.0,0.0,0.0,0.0,0.0,0.0,0.0,0.0,0.0,0.0,0.0,0.0,0.0,0.0,0.0,0.0,0.0,0.0,0.0,0.0,0.0,0.0,0.0,0.0,0.0,0.0,0.0,0.0,0.0,0.0,0.0,0.0,0.0,0.0,0.0,0.0,0.0,0.0,0.0,0.0,0.0,0.0,0.0,0.0,0.0,0.0,-2.7042,-3.2759,-3.4761,-3.5683,-3.5588,-3.4534,-3.2755,-3.0193,0.0,0.0,0.0,0.0,0.0,0.0,0.0,0.0,0.0,0.0,0.0,0.0,0.0,0.0,0.0,0.0,0.0,0.0,0.0,0.0,0.0,0.0,0.0,0.0,0.0,0.0,0.0,0.0,0.0,0.0,0.0,0.0,0.0,0.0,0.0,0.0,0.0,0.0,0.0,0.0,0.0,0.0,0.0,0.0,0.0,0.0,0.0,0.0,0.0,0.0,0.0,0.0,0.0,0.0,0.0,0.0,0.0,0.0,0.0,0.0,0.0,0.0,0.0,0.0,0.0,0.0,0.0,0.0,0.0,0.0,0.0,0.0,0.0,0.0,0.0,0.0,0.0,0.0,0.0,0.0,0.0,0.0,0.0,0.0,0.0,0.0,0.0,0.0,0.0,0.0,0.0,0.0,0.0,0.0,0.0,0.0,0.0,0.0,0.0,0.0,0.0,0.0,0.0,-2.7255,-2.9302,-3.3474,-3.4965,-3.5588,-3.5222,-3.4149,-3.2453,-3.0052,-2.6342,0.0,0.0,0.0,0.0,0.0,0.0,0.0,0.0,0.0,0.0,0.0,0.0,0.0,0.0,0.0,0.0,0.0,0.0,0.0,0.0,0.0,0.0,0.0,0.0,0.0,0.0,0.0,0.0,0.0,0.0,0.0,0.0,0.0,0.0,0.0,0.0,0.0,0.0,0.0,0.0,0.0,0.0,0.0,0.0,0.0,0.0,0.0,0.0,0.0,0.0,0.0,0.0,0.0,0.0,0.0,0.0,0.0,0.0,0.0,0.0,0.0,0.0,0.0,0.0,0.0,0.0,0.0,0.0,0.0,0.0,0.0,0.0,0.0,0.0,0.0,0.0,0.0,0.0,0.0,0.0,0.0,0.0,0.0,0.0,0.0,0.0,0.0,0.0,0.0,0.0,0.0,0.0,0.0,0.0,0.0,0.0,0.0,0.0,0.0,0.0,0.0,0.0,-3.0038,-3.1789,-3.3718,-3.4978,-3.5439,-3.4843,-3.3485,-3.1716,-2.9448,-2.5765,0.0,0.0,0.0,0.0,0.0,0.0,0.0,0.0,0.0,0.0,0.0,0.0,0.0,0.0,0.0,0.0,0.0,0.0,0.0,0.0,0.0,0.0,0.0,0.0,0.0,0.0,0.0,0.0,0.0,0.0,0.0,0.0,0.0,0.0,0.0,0.0,0.0,0.0,0.0,0.0,0.0,0.0,0.0,0.0,0.0,0.0,0.0,0.0,0.0,0.0,0.0,0.0,0.0,0.0,0.0,0.0,0.0,0.0,0.0,0.0,0.0,0.0,0.0,0.0,0.0,0.0,0.0,0.0,0.0,0.0,0.0,0.0,0.0,0.0,0.0,0.0,0.0,0.0,0.0,0.0,0.0,0.0,0.0,0.0,0.0,0.0,0.0,0.0,0.0,0.0,0.0,0.0,0.0,0.0,0.0,0.0,0.0,0.0,0.0,0.0,0.0,0.0,-3.0113,-3.3196,-3.3919,-3.5031,-3.5439,-3.4843,-3.2738,-3.0635,-2.8763,-2.4747,0.0,0.0,0.0,0.0,0.0,0.0,0.0,0.0,0.0,0.0,0.0,0.0,0.0,0.0,0.0,0.0,0.0,0.0,0.0,0.0,0.0,0.0,0.0,0.0,0.0,0.0,0.0,0.0,0.0,0.0,0.0,0.0,0.0,0.0,0.0,0.0,0.0,0.0,0.0,0.0,0.0,0.0,0.0,0.0,0.0,0.0,0.0,0.0,0.0,0.0,0.0,0.0,0.0,0.0,0.0,0.0,0.0,0.0,0.0,0.0,0.0,0.0,0.0,0.0,0.0,0.0,0.0,0.0,0.0,0.0,0.0,0.0,0.0,0.0,0.0,0.0,0.0,0.0,0.0,0.0,0.0,0.0,0.0,0.0,0.0,0.0,0.0,0.0,0.0,0.0,0.0,0.0,0.0,0.0,0.0,0.0,0.0,0.0,0.0,0.0,0.0,0.0,-2.936,-3.206,0.0,-3.4639,-3.4883,-3.4287,-3.2779,-3.0758,-2.8193,0.0,0.0,0.0,0.0,0.0,0.0,0.0,0.0,0.0,0.0,0.0,0.0,0.0,0.0,0.0,0.0,0.0,0.0,0.0,0.0,0.0,0.0,0.0,0.0,0.0,0.0,0.0,0.0,0.0,0.0,0.0,0.0,0.0,0.0,0.0,0.0,0.0,0.0,0.0,0.0,0.0,0.0,0.0,0.0,0.0,0.0,0.0,0.0,0.0,0.0,0.0,0.0,0.0,0.0,0.0,0.0,0.0,0.0,0.0,0.0,0.0,0.0,0.0,0.0,0.0,0.0,0.0,0.0,0.0,0.0,0.0,0.0,0.0,0.0,0.0,0.0,0.0,0.0,0.0,0.0,0.0,0.0,0.0,0.0,0.0,0.0,0.0,0.0,0.0,0.0,0.0,0.0,0.0,0.0,0.0,0.0,0.0,0.0,0.0,0.0,0.0,0.0,-2.6373,-2.9252,-3.1734,0.0,-3.4436,-3.4558,-3.3962,-3.2331,-3.012,-2.7311,0.0,0.0,0.0,0.0,0.0,0.0,0.0,0.0,0.0,0.0,0.0,0.0,0.0,0.0,0.0,0.0,0.0,0.0,0.0,0.0,0.0,0.0,0.0,0.0,0.0,0.0,0.0,0.0,0.0,0.0,0.0,0.0,0.0,0.0,0.0,0.0,0.0,0.0,0.0,0.0,0.0,0.0,0.0,0.0,0.0,0.0,0.0,0.0,0.0,0.0,0.0,0.0,0.0,0.0,0.0,0.0,0.0,0.0,0.0,0.0,0.0,0.0,0.0,0.0,0.0,0.0,0.0,0.0,0.0,0.0,0.0,0.0,0.0,0.0,0.0,0.0,0.0,0.0,0.0,0.0,0.0,0.0,0.0,0.0,0.0,0.0,0.0,0.0,0.0,0.0,0.0,0.0,0.0,0.0,0.0,0.0,0.0,0.0,0.0,0.0,0.0,0.0,-2.6481,-2.9971,-3.2643,-3.3786,-3.4423,-3.4545,-3.3962,-3.1205,-2.8497,0.0,0.0,0.0,0.0,0.0,0.0,0.0,0.0,0.0,0.0,0.0,0.0,0.0,0.0,0.0,0.0,0.0,0.0,0.0,0.0,0.0,0.0,0.0,0.0,0.0,0.0,0.0,0.0,0.0,0.0,0.0,0.0,0.0,0.0,0.0,0.0,0.0,0.0,0.0,0.0,0.0,0.0,0.0,0.0,0.0,0.0,0.0,0.0,0.0,0.0,0.0,0.0,0.0,0.0,0.0,0.0,0.0,0.0,0.0,0.0,0.0,0.0,0.0,0.0,0.0,0.0,0.0,0.0,0.0,0.0,0.0,0.0,0.0,0.0,0.0,0.0,0.0,0.0,0.0,0.0,0.0,0.0,0.0,0.0,0.0,0.0,0.0,0.0,0.0,0.0,0.0,0.0,0.0,0.0,0.0,0.0,0.0,0.0,0.0,0.0,0.0,0.0,0.0,-2.6535,-3.0323,-3.3091,-3.3826,-3.407,-3.4097,-3.3935,-3.1992,-2.955,-2.6698,0.0,0.0,0.0,0.0,0.0,0.0,0.0,0.0,0.0,0.0,0.0,0.0,0.0,0.0,0.0,0.0,0.0,0.0,0.0,0.0,0.0,0.0,0.0,0.0,0.0,0.0,0.0,0.0,0.0,0.0,0.0,0.0,0.0,0.0,0.0,0.0,0.0,0.0,0.0,0.0,0.0,0.0,0.0,0.0,0.0,0.0,0.0,0.0,0.0,0.0,0.0,0.0,0.0,0.0,0.0,0.0,0.0,0.0,0.0,0.0,0.0,0.0,0.0,0.0,0.0,0.0,0.0,0.0,0.0,0.0,0.0,0.0,0.0,0.0,0.0,0.0,0.0,0.0,0.0,0.0,0.0,0.0,0.0,0.0,0.0,0.0,0.0,0.0,0.0,0.0,0.0,0.0,0.0,0.0,0.0,0.0,0.0,0.0,0.0,0.0,0.0,0.0,-2.6535,-3.0066,-3.2671,-3.3498,-3.3593,-3.3593,-3.3593,-3.1965,-2.9767,-2.6969,0.0,0.0,0.0,0.0,0.0,0.0,0.0,0.0,0.0,0.0,0.0,0.0,0.0,0.0,0.0,0.0,0.0,0.0,0.0,0.0,0.0,0.0,0.0,0.0,0.0,0.0,0.0,0.0,0.0,0.0,0.0,0.0,0.0,0.0,0.0,0.0,0.0,0.0,0.0,0.0,0.0,0.0,0.0,0.0,0.0,0.0,0.0,0.0,0.0,0.0,0.0,0.0,0.0,0.0,0.0,0.0,0.0,0.0,0.0,0.0,0.0,0.0,0.0,0.0,0.0,0.0,0.0,0.0,0.0,0.0,0.0,0.0,0.0,0.0,0.0,0.0,0.0,0.0,0.0,0.0,0.0,0.0,0.0,0.0,0.0,0.0,0.0,0.0,0.0,0.0,0.0,0.0,0.0,0.0,0.0,0.0,0.0,0.0,0.0,0.0,0.0,0.0,-2.6495,-2.9482,-3.1802,-3.2979,-3.3101,-3.3101,-3.3101,-3.1436,-2.9428,-2.7104,0.0,0.0,0.0,0.0,0.0,0.0,0.0,0.0,0.0,0.0,0.0,0.0,0.0,0.0,0.0,0.0,0.0,0.0,0.0,0.0,0.0,0.0,0.0,0.0,0.0,0.0,0.0,0.0,0.0,0.0,0.0,0.0,0.0,0.0,0.0,0.0,0.0,0.0,0.0,0.0,0.0,0.0,0.0,0.0,0.0,0.0,0.0,0.0,0.0,0.0,0.0,0.0,0.0,0.0,0.0,0.0,0.0,0.0,0.0,0.0,-2.9616,0.0,0.0,0.0,0.0,0.0,0.0,0.0,0.0,0.0,0.0,0.0,0.0,0.0,0.0,0.0,0.0,0.0,0.0,0.0,0.0,0.0,0.0,0.0,0.0,0.0,0.0,0.0,0.0,0.0,0.0,0.0,0.0,0.0,0.0,0.0,0.0,0.0,0.0,0.0,0.0,0.0,-2.6549,-2.9849,-3.23,-3.302,-3.3101,-3.3101,-3.3101,-3.1436,-2.9781,-2.8302,-2.4922,0.0,0.0,0.0,0.0,0.0,0.0,0.0,0.0,0.0,0.0,0.0,0.0,0.0,0.0,0.0,0.0,0.0,0.0,0.0,0.0,0.0,0.0,0.0,0.0,0.0,0.0,0.0,0.0,0.0,0.0,0.0,0.0,0.0,0.0,0.0,0.0,0.0,0.0,0.0,0.0,0.0,0.0,0.0,0.0,0.0,0.0,0.0,0.0,0.0,0.0,0.0,0.0,0.0,0.0,0.0,0.0,0.0,0.0,0.0,0.0,-3.1127,0.0,0.0,0.0,0.0,0.0,0.0,0.0,0.0,0.0,0.0,0.0,0.0,0.0,0.0,0.0,0.0,0.0,0.0,0.0,0.0,0.0,0.0,0.0,0.0,0.0,0.0,0.0,0.0,0.0,0.0,0.0,0.0,0.0,0.0,0.0,0.0,0.0,0.0,0.0,0.0,-2.6915,-2.9631,-3.1667,-3.2572,-3.268,-3.268,-3.268,-3.126,-3.0011,-2.9108,-2.5914,0.0,0.0,0.0,0.0,0.0,0.0,0.0,0.0,0.0,0.0,0.0,0.0,0.0,0.0,0.0,0.0,0.0,0.0,0.0,0.0,0.0,0.0,0.0,0.0,0.0,0.0,0.0,0.0,0.0,0.0,0.0,0.0,0.0,0.0,0.0,0.0,0.0,0.0,0.0,0.0,0.0,0.0,0.0,0.0,0.0,0.0,0.0,0.0,0.0,0.0,0.0,0.0,0.0,-3.7733,-3.8471,-3.8413,-3.9063,-3.9226,-3.8884,-3.6307,-3.5378,-3.5537,-3.2879,0.0,0.0,0.0,0.0,0.0,0.0,0.0,0.0,0.0,0.0,0.0,0.0,0.0,0.0,0.0,0.0,0.0,0.0,0.0,0.0,0.0,0.0,0.0,0.0,-3.0798,-3.0228,-2.5736,0.0,0.0,0.0,0.0,0.0,0.0,0.0,0.0,0.0,0.0,0.0,-2.7488,-2.9442,-3.0975,-3.2096,-3.2218,-3.2218,-3.2218,-3.1192,-3.0296,-2.9719,-2.7026,-2.4937,0.0,0.0,0.0,0.0,0.0,0.0,0.0,0.0,0.0,0.0,0.0,0.0,0.0,0.0,0.0,0.0,0.0,0.0,0.0,0.0,0.0,0.0,0.0,0.0,0.0,0.0,0.0,0.0,0.0,0.0,0.0,0.0,-2.5233,-2.6001,0.0,0.0,0.0,0.0,0.0,0.0,0.0,0.0,0.0,0.0,0.0,0.0,0.0,-3.6402,-3.7599,-4.0119,-4.107,-4.0584,-4.2852,-4.3275,-4.2029,-4.2462,-4.2548,-4.2339,-4.1918,0.0,-3.7012,-3.6591,0.0,0.0,0.0,0.0,0.0,0.0,0.0,0.0,0.0,0.0,0.0,0.0,0.0,0.0,0.0,0.0,0.0,0.0,0.0,0.0,0.0,0.0,-3.1797,-3.2463,-3.2354,-3.1906,0.0,-2.8193,-2.5276,-2.3987,-2.247,0.0,0.0,0.0,0.0,0.0,0.0,0.0,-2.8153,-3.0052,-3.1436,-3.2151,-3.2218,-3.2218,-3.2218,-3.1558,-3.092,-3.0323,-2.8438,-2.6809,-2.5588,-2.3309,0.0,0.0,0.0,0.0,0.0,0.0,0.0,0.0,0.0,0.0,0.0,0.0,0.0,0.0,0.0,0.0,0.0,0.0,0.0,0.0,0.0,0.0,0.0,0.0,0.0,0.0,0.0,0.0,0.0,-2.4872,-2.6965,-2.7639,-2.8353,-2.8128,0.0,0.0,0.0,0.0,0.0,0.0,0.0,0.0,0.0,-3.7734,-3.8736,-4.0038,-4.1698,-4.3096,-4.386,-4.4005,-4.5926,-4.6522,-4.5858,-4.667,-4.7012,-4.691,-4.6505,-4.4945,-4.25,-3.9585,-3.7317,-3.5517,0.0,0.0,0.0,0.0,-3.334,-3.3547,-3.5241,-3.5415,-3.4733,-3.3935,0.0,0.0,0.0,0.0,0.0,0.0,0.0,0.0,0.0,0.0,-3.2938,-3.3837,-3.4109,-3.4068,-3.3742,-3.1951,-2.9767,0.0,-2.5955,-2.4231,-2.2049,0.0,0.0,0.0,0.0,-2.6769,-2.8831,-3.0378,-3.1517,-3.2151,-3.2218,-3.2218,-3.2218,-3.1327,-3.069,-3.0432,-2.8709,-2.7461,-2.6932,-2.4924,-2.3242,0.0,0.0,0.0,0.0,0.0,0.0,0.0,0.0,0.0,0.0,0.0,0.0,0.0,0.0,0.0,0.0,0.0,0.0,0.0,0.0,0.0,0.0,0.0,0.0,0.0,0.0,0.0,0.0,-2.7076,-2.9052,-2.9535,-3.1046,-3.112,0.0,0.0,0.0,0.0,0.0,0.0,-3.6417,-3.7449,-3.911,-4.1579,-4.2297,-4.3509,-4.5319,-4.5893,-4.6476,-4.7055,-4.8246,-4.8829,-4.8844,-4.9636,-4.9995,-4.9951,-4.9434,-4.8641,-4.7385,-4.262,-4.0075,-3.8986,-3.6925,-3.6025,-3.5981,-3.6925,-3.7085,-3.7136,-3.903,-3.9247,-3.8507,-3.747,-3.649,-3.5124,-3.1964,0.0,0.0,0.0,0.0,-3.1816,-3.2996,-3.3672,-3.4231,-3.5236,-3.5696,-3.5818,-3.5344,-3.4666,-3.3379,0.0,-2.9319,-2.7637,-2.5221,0.0,0.0,0.0,0.0,-2.8098,-2.976,-3.0866,-3.168,-3.2164,-3.2218,-3.2218,-3.2218,-3.1232,-3.0568,-3.0418,-2.8994,-2.8017,-2.7718,-2.6267,-2.4882,-2.3689,0.0,0.0,0.0,0.0,0.0,0.0,0.0,0.0,0.0,0.0,0.0,0.0,0.0,0.0,0.0,0.0,0.0,0.0,0.0,0.0,0.0,0.0,0.0,0.0,0.0,0.0,0.0,0.0,0.0,-3.2317,-3.4607,0.0,0.0,0.0,0.0,-3.335,-3.6267,-3.8422,-3.9149,-4.104,-4.3024,-4.499,-4.5723,-4.6726,-4.8072,-4.9202,-4.9771,-4.9801,-5.0051,-5.0197,-5.0197,-5.0068,-4.9995,-4.9995,-4.9951,-4.9921,-4.959,-4.6035,-4.3529,-4.1831,-4.1062,-4.0365,-3.9813,-3.9886,-4.0292,-4.0829,-4.096,-4.0568,-4.0191,-4.1381,-3.9783,-3.713,-3.5811,-3.4418,0.0,0.0,-3.4238,-3.4843,-3.6076,-3.6402,-3.6592,-3.7201,-3.6971,-3.6551,-3.6524,-3.5601,-3.4407,0.0,-3.1477,-3.0038,-2.9325,0.0,-2.7678,-2.8234,-2.8912,-2.9828,-3.1042,-3.1748,-3.2191,-3.2218,-3.2218,-3.2218,-3.2218,-3.1612,-3.1015,-3.0446,-2.9767,-2.8885,-2.7759,-2.705,-2.6129,-2.4937,-2.2486,0.0,0.0,0.0,0.0,0.0,0.0,0.0,0.0,0.0,0.0,0.0,0.0,0.0,0.0,0.0,0.0,0.0,0.0,0.0,0.0,0.0,0.0,0.0,0.0,0.0,0.0,0.0,0.0,-3.5504,-3.7644,0.0,-3.5549,-3.7509,-3.8467,-3.7389,-3.9948,-4.2043,-4.3135,-4.4287,-4.5618,-4.7174,-4.7702,-4.8641,-5.0019,-5.011,-5.0653,-5.1722,-5.1929,-5.2149,-5.2324,-5.2542,-5.2629,-5.2585,-5.2149,-5.1667,-5.1146,-4.9446,-4.7608,-4.5825,-4.5177,-4.4503,-4.3853,-4.3408,-4.3694,-4.4146,-4.3284,-4.3067,-4.3119,-4.2165,-4.0262,-3.8284,-3.7579,-3.6808,-3.6136,-3.6174,-3.6347,-3.6632,-3.7052,-3.7202,-3.7214,-3.7431,-3.7053,-3.6605,-3.6605,-3.5967,-3.5276,-3.4855,-3.3335,-3.1716,-3.031,-3.0038,-2.9686,-2.8736,-2.9767,-3.0798,-3.1232,-3.1816,-3.2218,-3.2218,-3.2218,-3.2055,-3.1639,-3.107,-3.0296,-2.9306,-2.8682,-2.7976,-2.7131,-2.6552,-2.6022,-2.5588,-2.3554,-2.1477,0.0,0.0,0.0,0.0,0.0,0.0,0.0,0.0,0.0,0.0,0.0,0.0,0.0,0.0,0.0,0.0,0.0,0.0,0.0,0.0,0.0,0.0,0.0,0.0,0.0,0.0,-3.6626,-3.7928,-4.0232,-4.0935,-3.8945,-4.095,-4.2013,-4.1145,-4.3275,-4.505,-4.5933,-4.683,-4.7774,-4.8835,-4.9117,-4.9867,-5.1198,-5.1,-5.1577,-5.2935,-5.3246,-5.3465,-5.3655,-5.3958,-5.4103,-5.4044,-5.3596,-5.3112,-5.266,-5.218,-5.1079,-4.9585,-4.8187,-4.741,-4.6917,-4.6217,-4.61,-4.6154,-4.5032,-4.4773,-4.4665,-4.2886,-4.121,-3.9836,-3.9205,-3.867,-3.8284,-3.8144,-3.8095,-3.8095,-3.8095,-3.8095,-3.8095,-3.8095,-3.7514,-3.6917,-3.6917,-3.628,-3.571,-3.571,-3.4597,-3.3281,-3.2101,-3.206,-3.1721,-3.0344,-3.1159,-3.1816,-3.1612,-3.1938,-3.2218,-3.2218,-3.2218,-3.1938,-3.1341,-3.0554,-2.9754,-2.894,-2.7963,-2.7325,-2.7104,-2.6131,-2.5602,-2.5602,-2.3554,-2.1728,-2.0193,0.0,0.0,0.0,0.0,0.0,0.0,0.0,0.0,0.0,0.0,0.0,0.0,0.0,0.0,0.0,0.0,0.0,0.0,0.0,0.0,0.0,0.0,0.0,-3.4401,-3.7385,-3.9463,-3.9574,-4.2417,-4.3629,-4.1728,-4.3299,-4.4436,-4.4407,-4.6247,-4.7369,-4.7399,-4.864,-4.9553,-4.9948,-4.9963,-5.0554,-5.1695,-5.2155,-5.2743,-5.3484,-5.3919,-5.4119,-5.4119,-5.4103,-5.4103,-5.4103,-5.4103,-5.4103,-5.4103,-5.4103,-5.3724,-5.2871,-5.0162,-4.9068,-4.8961,-4.8204,-4.7493,-4.6827,-4.6202,-4.5534,-4.4807,-4.3809,-4.288,-4.1908,-4.0811,-4.0138,-3.9774,-3.9744,-3.954,-3.9349,-3.9336,-3.9349,-3.9305,-3.9305,-3.8396,-3.7485,-3.7485,-3.6537,-3.571,-3.571,-3.5209,-3.4816,-3.4788,-3.4328,-3.3731,-3.3183,-3.3101,0.0,-3.2286,-3.2218,-3.2218,-3.2218,-3.2218,-3.1938,-3.1341,-3.0188,-2.9515,-2.9461,-2.7786,-2.7037,-2.7623,-2.5955,-2.5005,-2.4977,-2.2453,-2.0782,-2.0043,0.0,0.0,0.0,0.0,0.0,0.0,0.0,0.0,0.0,0.0,0.0,0.0,0.0,0.0,0.0,0.0,0.0,0.0,0.0,0.0,0.0,0.0,-3.5288,-3.623,-3.8974,-4.1369,-4.2806,-4.4631,-4.5559,-4.502,-4.6322,-4.6995,-4.6516,-4.7878,-4.8895,-4.9146,-5.005,-5.0729,-5.1116,-5.1439,-5.2261,-5.3617,-5.3557,-5.4165,-5.5427,-5.4995,-5.4846,-5.4786,-5.4324,-5.4103,-5.4103,-5.4103,-5.4103,-5.4103,-5.4103,-5.3992,-5.3634,-5.1895,-5.0866,-5.0293,-4.9068,-4.8198,-4.7676,-4.7969,-4.7338,-4.6398,-4.6105,-4.5065,-4.3793,-4.2844,-4.2201,-4.1659,-4.1029,-4.0688,-4.0488,-4.0273,-3.9938,-3.9554,-3.9349,-3.8396,-3.7485,-3.7485,-3.6537,-3.571,-3.571,-3.5588,-3.529,-3.487,-3.4653,-3.4206,-3.3251,-3.3101,0.0,-3.2286,-3.2218,-3.2218,-3.2218,-3.2218,-3.1938,-3.1341,-3.0595,-2.9591,-2.8275,-2.7339,-2.6671,-2.6402,-2.5507,-2.4948,-2.4863,-2.3205,-2.1967,0.0,0.0,0.0,0.0,0.0,0.0,0.0,0.0,0.0,0.0,0.0,0.0,0.0,0.0,0.0,0.0,0.0,0.0,0.0,0.0,0.0,0.0,-3.6122,-3.7947,-3.9169,-4.1097,-4.3016,-4.4795,-4.5913,-4.6615,-4.6811,-4.7598,-4.8045,-4.7807,-4.9075,-4.9929,-5.0181,-5.1167,-5.1895,-5.2321,-5.2566,-5.3345,-5.4693,-5.4541,-5.506,-5.6173,-5.5462,-5.5086,-5.507,-5.4419,-5.4103,-5.4103,-5.4103,-5.4103,-5.4103,-5.4103,-5.4103,0.0,0.0,0.0,0.0,0.0,-4.8641,-4.835,-4.8764,-4.8229,-4.7365,-4.7282,-4.627,-4.4875,-4.3938,-4.3145,-4.2493,-4.1879,-4.1561,-4.1366,-4.1212,-4.0944,-4.0631,-4.0488,-3.9297,-3.8173,-3.8075,-3.6893,-3.5844,-3.571,-3.571,0.0,-3.5222,-3.5168,-3.4801,-3.3607,-3.343,-3.3132,-3.2327,-3.2218,-3.2218,-3.2218,-3.2218,-3.1938,-3.1341,-3.0513,0.0,0.0,0.0,-2.64,-2.5561,-2.4951,0.0,0.0,0.0,0.0,0.0,0.0,0.0,0.0,-2.1171,-2.1224,0.0,0.0,0.0,0.0,0.0,0.0,0.0,0.0,0.0,0.0,0.0,0.0,0.0,0.0,0.0,0.0,-3.8282,-4.0582,-4.2374,-4.3333,-4.4354,-4.5776,-4.6561,-4.7096,-4.7448,-4.7851,-4.8222,-4.8584,-4.9927,-5.0698,-5.0652,0.0,0.0,0.0,0.0,-5.4098,-5.5301,-5.5316,-5.5698,-5.6283,-5.5588,-5.5165,-5.507,-5.4419,-5.4103,-5.4103,-5.4103,-5.4103,-5.4103,-5.4103,-5.4008,-5.3739,-5.2491,-5.1907,-5.154,-4.9681,-4.901,-4.901,-4.901,0.0,0.0,-4.7916,-4.6971,-4.5748,-4.4597,-4.3681,-4.289,-4.2548,-4.2304,-4.2196,-4.2155,-4.2114,-4.2032,-4.199,-4.0613,-3.9211,-3.8966,-3.7555,-3.6244,-3.6017,-3.5977,-3.5977,-3.5977,-3.5831,-3.5276,-3.4084,-3.3908,-3.3487,-3.2368,-3.2218,-3.2218,-3.2218,0.0,0.0,-3.1436,-3.0371,-2.9651,-2.9515,-2.7881,-2.6373,-2.5263,-2.4746,-2.4663,-2.5008,-2.482,-2.518,-2.6091,-2.5905,-2.562,-2.5136,-2.2988,-2.2765,0.0,0.0,0.0,0.0,0.0,0.0,0.0,0.0,0.0,0.0,0.0,0.0,0.0,0.0,0.0,-3.7528,-3.96,-4.1558,-4.3665,-4.4355,-4.4938,-4.5607,-4.6712,-4.7405,-4.7493,-4.8542,-4.9206,-4.9292,-5.0599,-5.1284,-5.1083,-5.2485,-5.3452,-5.3864,-5.442,-5.5404,-5.6768,-5.6784,-5.6874,-5.701,0.0,0.0,-5.507,-5.4419,-5.4103,-5.4103,-5.4103,-5.4103,-5.4103,-5.4103,-5.3423,-5.2381,-5.2112,-5.1322,-5.0255,-4.9851,-4.9701,-4.9701,-4.9701,-4.9622,-4.9526,-4.9464,-4.8788,-4.7744,-4.6278,-4.5565,0.0,-4.3726,-4.3299,-4.326,-4.3086,-4.267,-4.2208,-4.2032,-4.0882,-3.9809,-3.9769,-3.8683,-3.7701,-3.7648,-3.7648,-3.7648,-3.7648,-3.657,-3.5276,-3.4084,-3.3908,-3.3487,-3.2368,-3.2218,-3.2218,-3.2218,-3.2218,-3.2164,-3.2055,-3.1355,-3.0561,-2.957,-2.8261,-2.7186,-2.6467,-2.6823,-2.6789,-2.6274,-2.62,-2.6155,-2.6091,-2.606,-2.6151,-2.6353,-2.5419,-2.4922,0.0,0.0,0.0,0.0,0.0,0.0,0.0,0.0,0.0,0.0,0.0,-3.2651,-3.4632,0.0,-3.7405,-3.9959,-4.108,-4.2293,-4.4326,-4.4778,-4.5142,-4.5845,-4.674,-4.7549,-4.8131,-4.9217,-5.0115,-5.0661,-5.1683,-5.2246,-5.2094,-5.3468,-5.4514,-5.51,-5.5805,-5.6678,-5.7737,-5.739,-5.7216,-5.7216,-5.6157,-5.5478,-5.507,-5.4419,-5.4103,-5.4103,-5.4103,-5.4103,-5.4071,-5.3739,-5.2981,-5.197,-5.1622,-5.0848,-4.9876,-4.9876,-4.9876,-4.9876,-4.9876,-4.9876,-4.9876,-4.9757,-4.9221,-4.8334,-4.7026,-4.6268,-4.5627,-4.445,-4.4097,-4.4058,-4.3966,-4.3717,-4.3427,-4.3324,-4.2049,-4.0814,-4.0722,-3.9425,-3.8279,-3.8138,-3.8101,-3.8101,-3.8101,-3.7177,-3.6097,-3.5185,-3.4534,-3.391,-3.3228,-3.2645,-3.2518,-3.3082,-3.2645,-3.2395,-3.2668,-3.1826,-3.0907,-2.9998,-2.9089,-2.8465,-2.8166,-2.7868,-2.7809,-2.8057,-2.7665,-2.7608,-2.7967,-2.7868,-2.7894,-2.8001,-2.768,-2.7236,0.0,0.0,0.0,0.0,0.0,0.0,0.0,0.0,-3.1323,-3.3115,-3.4375,-3.5658,-3.7216,-3.8311,-3.9717,-4.193,-4.2391,-4.3063,-4.4865,-4.5215,-4.5625,-4.6447,-4.702,-4.7803,-4.8984,-4.9853,-5.0773,-5.1835,-5.2592,-5.3009,-5.3009,-5.4342,-5.5462,-5.6173,-5.6852,-5.75,-5.8069,-5.75,-5.7073,-5.6805,-5.5623,-5.5023,-5.4865,-5.4356,-5.4024,-5.3913,-5.3913,-5.3976,-5.404,-5.3376,-5.2681,-5.1938,-5.1243,-5.0548,-4.9876,-4.9876,-4.9876,-4.9876,-4.9876,-4.9876,-4.9876,-4.9717,-4.9276,-4.8577,-4.734,-4.6571,-4.5889,-4.4879,-4.461,-4.461,-4.461,-4.461,-4.461,-4.461,-4.3205,-4.182,-4.1693,-4.0181,-3.8826,-3.8598,-3.8546,-3.8546,-3.8546,-3.7915,-3.7162,-3.6482,-3.5461,-3.4704,-3.4561,-3.3539,-3.3143,-3.4084,-3.3143,-3.2618,-3.3052,-3.2116,-3.1245,-3.0677,-3.0032,-2.9692,-2.9692,-2.8736,-2.8682,-2.9678,-2.9038,-2.91,-2.9859,-2.9719,-2.9557,-2.9358,-2.9428,-2.9131,-2.7408,-2.7503,-2.8373,-2.9639,-3.0494,-3.1974,0.0,0.0,-3.6581,-3.7815,-3.8906,-3.9744,-3.9964,-4.0436,-4.1102,-4.1988,-4.3036,-4.4253,-4.5574,-4.6296,-4.6958,-4.7649,-4.7715,-4.8283,-4.9655,-5.0395,-5.1107,-5.1835,-5.2592,-5.3009,-5.3009,-5.4342,-5.5462,-5.6173,-5.6852,-5.7263,-5.7342,-5.7263,-5.6555,-5.5323,-5.5165,-5.4814,-5.4213,-5.4134,-5.3771,-5.3218,-5.3218,-5.355,-5.404,-5.3376,-5.2681,-5.1938,-5.1243,-5.0548,-4.9876,-4.9876,-4.9876,-4.9876,-4.9876,-4.9876,-4.9876,-4.9876,-4.971,-4.9212,-4.7692,-4.7045,-4.6493,-4.5018,-4.461,-4.461,-4.461,-4.461,-4.461,-4.461,-4.3519,-4.2493,-4.2493,-4.1316,-4.0266,-4.0231,-4.0231,-4.0231,-4.0231,-3.9176,-3.8069,-3.7222,-3.6468,-3.6041,-3.6141,-3.5046,-3.432,-3.4448,-3.3358,-3.2704,-3.2761,-3.2403,-3.1958,-3.1507,-3.0739,-3.031,-3.031,-3.0174,-3.0174,-3.031,-3.0208,-3.0119,-3.0054,-2.9859,-2.9684,-2.9557,-2.9869,-2.9732,-3.1551,-3.164,-3.2091,0.0,-3.4392,-3.5841,-3.7827,-3.8383,-3.8745,-3.9566,-4.0334,-4.0804,-4.0804,-4.1552,-4.2426,0.0,-4.4264,-4.5415,-4.6353,-4.6741,-4.7132,-4.784,-4.7878,-4.8568,-5.0396,-5.1149,-5.2017,-5.308,-5.3465,-5.3812,-5.422,-5.5175,-5.5873,-5.6173,-5.6852,-5.7026,-5.6615,-5.6204,-5.567,-5.5086,-5.4719,-5.4372,-5.4103,-5.4103,-5.3724,-5.3092,-5.2665,-5.287,-5.3439,-5.2317,-5.1922,-5.1907,-5.08,-5.0184,-4.9876,-4.9876,-4.9876,-4.9876,-4.9876,-4.9876,-4.9876,-4.9757,-4.941,-4.8765,-4.7465,-4.6718,-4.6075,-4.4925,-4.461,-4.461,-4.461,-4.461,-4.461,-4.461,-4.3571,-4.2602,-4.2602,-4.1474,-4.0489,-4.0489,-4.0489,-4.0489,-4.0489,-3.9367,-3.8524,-3.8536,-3.7381,-3.6753,-3.7419,-3.6476,-3.543,-3.4754,-3.443,-3.4022,-3.3381,-3.3127,-3.3055,-3.3172,-3.2257,-3.1818,-3.2014,-3.1432,-3.1223,-3.1436,-3.1097,-3.0978,-3.1137,-3.0935,-3.0741,-3.0596,-3.0627,-3.0503,-3.4083,0.0,0.0,-3.6039,-3.7436,-3.8765,-3.9343,-3.9759,-4.013,-4.049,-4.0837,-4.1229,-4.1565,-4.2249,-4.3123,-4.4345,-4.53,-4.6262,-4.7287,-4.73,-4.741,-4.8086,-4.801,-4.8633,-5.0528,-5.151,-5.2492,-5.3728,-5.3992,-5.4308,-5.4814,-5.5509,-5.5904,-5.5904,-5.6568,-5.6599,-5.5904,-5.5383,-5.4991,-5.4846,-5.434,-5.4103,-5.4087,-5.3913,-5.3566,-5.3076,-5.2333,-5.2317,-5.2712,-5.148,-5.1274,-5.1606,-5.039,-4.9876,-4.9876,-4.9876,-4.9876,-4.9876,-4.9876,-4.9876,-4.9876,-4.9717,-4.9158,-4.8326,-4.7333,-4.6439,-4.5642,-4.4848,-4.461,-4.461,-4.461,-4.461,-4.461,-4.461,-4.3571,-4.2602,-4.2602,-4.1474,-4.0489,-4.0489,-4.0489,-4.0489,-4.0489,-3.9367,-3.8739,-3.9382,-3.8025,-3.7316,-3.8495,-3.7625,-3.6437,-3.5239,-3.5326,-3.5106,-3.4192,-3.3919,-3.3905,-3.4143,-3.3241,-3.2797,-3.2981,-3.2219,-3.1949,-3.2205,-3.1762,-3.1676,-3.1963,-3.172,-3.1522,-3.1397,-3.1136,-3.1065,0.0,0.0,-3.7265,-3.7878,-3.9023,-4.012,-4.0305,-4.0846,-4.1303,-4.1102,-4.1076,-4.1481,-4.2727,-4.2436,-4.2857,-4.5435,-4.5849,-4.6605,-4.8579,-4.8289,-4.8126,-4.8811,-4.8281,-4.8439,0.0,-5.1186,-5.2292,-5.3076,-5.3724,-5.4103,-5.4119,-5.4782,-5.5118,-5.5118,-5.5857,-5.5873,-5.5134,-5.5102,-5.4755,-5.4119,-5.4103,-5.4103,-5.4071,-5.3439,-5.3123,-5.3076,-5.2333,-5.2017,-5.1986,-5.1274,-5.103,-5.0983,-5.0216,-4.9876,-4.9876,-4.9876,-4.9876,-4.9876,-4.9876,-4.9876,-4.9876,-4.9876,-4.9158,-4.8168,-4.7481,-4.6493,-4.5488,-4.481,-4.461,-4.461,-4.461,-4.461,-4.461,-4.461,-4.3571,-4.2602,-4.2602,-4.1474,-4.0489,-4.0489,-4.0489,-4.0489,-4.0489,-3.9367,-3.8739,-3.9382,-3.8337,-3.7952,-3.9305,-3.839,-3.7188,-3.599,-3.5771,-3.5479,-3.4909,-3.4662,-3.4361,-3.3865,-3.3101,-3.2632,-3.2417,-3.239,-3.2309,-3.2218,-3.2191,-3.2191,-3.2182,-3.178,-3.1609,-3.1559,-3.1174,-3.1287,-3.7144,0.0,-3.9827,-4.0506,-4.145,-4.2357,-4.2824,-4.3001,-4.289,-4.2417,-4.1891,-4.1556,-4.152,-4.2092,-4.2982,-4.428,-4.6039,-4.7639,-4.8722,-4.8707,-4.8482,-4.825,-4.8415,0.0,0.0,0.0,0.0,-5.2981,-5.3313,-5.3834,-5.4735,-5.496,-5.5086,-5.5086,-5.5367,-5.5146,-5.4451,-5.4451,-5.4324,-5.4103,-5.4103,-5.4103,-5.4071,-5.3408,-5.2839,-5.2333,-5.1638,-5.1322,-5.1274,-5.0563,-5.0548,-5.0951,-5.02,-4.9876,-4.9876,-4.9876,-4.9876,-4.9876,-4.9876,-4.9876,-4.9876,-4.9876,-4.904,-4.7925,-4.7473,-4.6391,-4.5237,-4.4725,-4.461,-4.461,-4.461,-4.461,-4.461,-4.461,-4.3571,-4.2602,-4.2602,-4.1474,-4.0489,-4.0489,-4.0489,-4.0489,-4.0489,-3.9367,-3.8431,-3.8215,-3.8554,-3.9,-3.9428,-3.914,-3.8424,-3.7222,-3.6973,-3.6508,-3.5524,-3.5382,-3.5237,-3.5073,-3.4495,-3.4056,-3.3885,-3.3506,-3.3171,-3.2868,-3.2525,-3.23,-3.2218,-3.178,-3.1795,-3.2117,-3.1701,-3.1862,-4.004,-4.0978,-4.1666,-4.2591,-4.3213,-4.3678,-4.4014,-4.3822,-4.3418,-4.2978,-4.1743,-4.0804,-4.1086,-4.1025,-4.1759,-4.4127,-4.5795,-4.7341,-4.8994,-4.9064,-4.8731,-4.8304,-4.8636,-4.881,0.0,0.0,0.0,-5.257,-5.3186,-5.3834,-5.4719,-5.4751,-5.4751,-5.4751,-5.4751,-5.4545,-5.4103,-5.4103,-5.4103,-5.4103,-5.4103,-5.4103,-5.4087,-5.366,-5.2934,-5.1986,-5.1543,-5.1053,-5.0563,-5.0105,-5.0184,-5.0548,-5.0105,-4.9876,-4.9876,-4.9876,-4.9876,-4.9876,-4.9876,-4.9876,-4.9844,-4.9631,-4.8771,-4.7694,-4.7082,-4.6071,-4.5002,-4.4701,-4.461,-4.461,-4.461,-4.461,-4.461,-4.461,-4.3571,-4.2602,-4.2602,-4.1474,-4.0489,-4.0489,-4.0489,-4.0489,-4.0489,-3.9367,-3.8277,-3.76,-3.8246,-3.897,-3.9428,-3.9308,-3.8944,-3.8394,-3.7835,-3.7195,-3.6417,-3.5952,-3.5688,-3.5688,-3.5187,-3.481,-3.4595,-3.4259,-3.3851,-3.3332,-3.2889,-3.2657,-3.2591,-3.2112,-3.2182,-3.2703,-3.2331,-3.2346,-4.2232,-4.2724,-4.2899,-4.4019,-4.4289,-4.422,-4.3997,-4.3457,-4.2955,-4.2834,-4.0679,-3.936,0.0,0.0,-3.9492,-4.4756,-4.5159,-4.6029,-4.9489,-4.941,-4.8999,0.0,0.0,0.0,0.0,0.0,0.0,-5.197,0.0,-5.4024,-5.4103,-5.4103,-5.4103,-5.4103,-5.4103,-5.4103,-5.4103,-5.4103,-5.4103,-5.4103,-5.4103,-5.4103,-5.4103,-5.4103,-5.3329,-5.2017,-5.2017,-5.1211,-4.9876,-4.9876,-4.9876,-4.9876,-4.9876,-4.9876,-4.9876,-4.9876,-4.9876,-4.9876,-4.9876,-4.9876,-4.9821,-4.9157,-4.8362,-4.7462,-4.6528,-4.5637,-4.4874,-4.4648,-4.461,-4.461,-4.461,-4.461,-4.461,-4.461,-4.3571,-4.2602,-4.2602,-4.1474,-4.0489,-4.0489,-4.0489,-4.0489,-4.0443,-3.9385,-3.8277,-3.76,-3.7477,-3.7938,-3.9293,-3.8939,-3.88,-3.9413,-3.8338,-3.7538,-3.7507,-3.6402,-3.572,-3.5688,-3.5252,-3.4876,-3.4662,-3.4662,-3.4341,-3.3652,-3.3409,-3.3294,-3.3385,-3.2764,-3.2768,-3.3341,-3.2935,-3.2738,-4.369,-4.4311,-4.4716,-4.5506,-4.5547,-4.5232,-4.4611,-4.4346,-4.3658,-4.1625,-4.0202,-3.8858,0.0,0.0,0.0,-4.2299,-4.4685,0.0,-5.0295,-5.0548,0.0,-5.0437,0.0,-5.1085,-5.0737,-5.167,0.0,0.0,-5.2649,-5.2997,-5.404,-5.4103,-5.4103,-5.4103,-5.4103,-5.4103,-5.4103,-5.4103,-5.4103,-5.4103,-5.4103,-5.4103,-5.4103,-5.4103,-5.3329,-5.2017,-5.2017,-5.1211,-4.9876,-4.9876,-4.9876,-4.9876,-4.9876,-4.9876,-4.9876,-4.9876,-4.9876,-4.9876,-4.9876,-4.9876,-4.986,-4.971,-4.8818,-4.7709,-4.7176,-4.6117,-4.5055,-4.4701,-4.461,-4.461,-4.461,-4.461,-4.461,-4.461,-4.3571,-4.2602,-4.2602,-4.1474,-4.0489,-4.0489,-4.0489,-4.0336,-3.9828,-3.9077,-3.8277,-3.76,-3.7076,-3.723,-3.86,-3.9046,-3.929,-3.9474,-3.8769,-3.8046,-3.7538,-3.675,-3.6116,-3.572,-3.5958,-3.5879,-3.5447,-3.5415,-3.5508,-3.567,-3.4782,-3.4426,-3.4645,-3.3954,-3.3783,-3.4151,-3.3317,-3.3159,-4.531,-4.6029,-4.641,-4.6435,-4.637,-4.5823,-4.4196,-4.3579,-4.2552,-3.9803,-3.816,0.0,0.0,0.0,0.0,0.0,0.0,0.0,-4.9615,-5.0619,-5.1015,0.0,-5.1875,0.0,-5.1954,-5.2649,-5.3234,0.0,-5.3171,-5.3265,-5.4055,-5.4103,-5.4103,-5.4103,-5.4103,-5.4103,-5.4103,-5.4103,-5.4103,-5.4103,-5.4103,-5.4103,-5.4103,-5.4103,-5.3329,-5.2017,0.0,-5.1211,-4.9876,-4.9876,-4.9876,-4.9876,-4.9876,-4.9876,-4.9876,-4.9876,-4.9876,-4.9876,-4.9876,-4.9876,-4.9829,-4.9568,-4.8952,-4.8133,-4.7136,-4.6265,-4.5503,-4.4778,-4.461,-4.461,-4.461,-4.461,-4.461,-4.461,-4.3787,-4.2956,-4.2663,-4.1755,-4.0909,-4.0551,-4.0489,-4.0366,-3.9982,-3.9367,-3.8723,-3.8046,-3.7369,-3.7215,-3.7969,-3.8662,-3.9152,-3.9493,-3.9136,-3.88,-3.8415,-3.7492,-3.6796,-3.6527,-3.6489,-3.6367,-3.6053,-3.6327,-3.6501,-3.652,-3.6114,-3.583,-3.5697,-3.5105,-3.4853,-3.4934,-3.3925,-3.3483,-4.6855,-4.7569,-4.7751,-4.7103,-4.6803,-4.595,-4.3169,-4.1904,-4.0498,-3.7668,0.0,-3.4099,-3.3909,-3.4178,-3.5758,-3.9803,0.0,-4.497,-4.8525,-5.0153,-5.1078,-5.1243,-5.2428,-5.3234,-5.3234,-5.3234,-5.3471,-5.4055,-5.4103,-5.4103,-5.4103,-5.4103,-5.4103,-5.4103,-5.4103,-5.4103,-5.4103,-5.4103,-5.4103,-5.4103,-5.4103,-5.4103,-5.4103,-5.4008,-5.325,-5.2017,-5.1907,0.0,-4.9876,-4.9876,-4.9876,-4.9876,-4.9876,-4.9876,-4.9876,-4.9876,-4.9876,-4.9876,-4.9876,-4.9876,-4.9821,-4.922,-4.8968,-4.8574,-4.6886,-4.628,-4.597,-4.4924,-4.461,-4.461,-4.461,-4.461,-4.461,-4.461,-4.4101,-4.3424,-4.274,-4.2001,-4.1278,-4.0612,-4.0489,-4.0489,-4.0489,-3.9936,-3.929,-3.8739,-3.8,-3.7507,-3.7507,-3.8015,-3.8631,-3.929,-3.9308,-3.9259,-3.9351,-3.8231,-3.7538,-3.7631,-3.6999,-3.6661,-3.6753,-3.7153,-3.7238,-3.6935,-3.7169,-3.7064,-3.6617,-3.6164,-3.5842,-3.5581,-3.4636,-3.3772,-4.752,-4.7836,-4.7877,-4.7735,-4.6834,-4.5238,-4.2426,-4.0783,0.0,0.0,-3.4115,-3.3119,-3.1966,-3.364,0.0,-3.9202,0.0,0.0,0.0,0.0,-5.1417,0.0,0.0,0.0,0.0,0.0,0.0,0.0,0.0,-5.4103,-5.4103,-5.4103,-5.4103,-5.4103,-5.4103,-5.4103,-5.4103,-5.4103,-5.4103,-5.4103,-5.4103,-5.4103,-5.4087,-5.3534,-5.2823,-5.1986,-5.1401,0.0,-4.9876,-4.9876,-4.9876,-4.9876,-4.9876,-4.9876,-4.9876,-4.9876,-4.9876,-4.9876,-4.9876,-4.9876,-4.99,-4.9773,-4.9347,-4.8669,-4.748,-4.667,-4.597,-4.4924,-4.461,-4.461,-4.461,-4.461,-4.461,-4.461,-4.4101,-4.3424,-4.274,-4.1601,-4.0643,-4.052,-4.0489,-4.0489,-4.0489,-3.9936,-3.9444,-3.9321,-3.8292,-3.7507,-3.7507,-3.76,-3.7938,-3.8616,-3.8185,-3.8077,-3.8646,-3.7954,-3.7738,-3.8292,-3.7707,-3.7584,-3.8138,-3.72,-3.7152,-3.8177,-3.7225,-3.6888,-3.7173,-3.6602,-3.6214,-3.5978,-3.5039,-3.4167,-4.7798,-4.8146,-4.8335,-4.7988,-4.685,-4.478,-4.0877,0.0,0.0,0.0,-3.1324,-3.0788,-2.9785,0.0,0.0,0.0,0.0,0.0,0.0,0.0,0.0,0.0,0.0,0.0,0.0,0.0,0.0,0.0,0.0,-5.4103,-5.4103,-5.4103,-5.4103,-5.4103,-5.4103,-5.4103,-5.4103,-5.4103,-5.4103,-5.4103,-5.3755,-5.3581,-5.3566,-5.2855,-5.2144,-5.1448,-5.1157,0.0,-4.9876,-4.9876,-4.9876,-4.9876,-4.9876,-4.9876,-4.9876,-4.9876,-4.9876,-4.9876,-4.9876,-4.9876,-4.9876,-4.9876,-4.9694,-4.9158,-4.7746,-4.7029,-4.6469,-4.5017,-4.461,-4.461,-4.461,-4.461,-4.461,-4.461,-4.4101,-4.3424,-4.274,-4.1817,-4.097,-4.0566,-4.0489,-4.0489,-4.0489,-4.0228,-3.989,-3.9536,-3.8662,-3.7892,-3.7538,-3.72,-3.723,-3.7923,-3.8,-3.8154,-3.8477,-3.7892,-3.7646,-3.7969,-3.7353,-3.7123,-3.7446,-3.7169,-3.7323,-3.7969,-3.7724,-3.7512,-3.7415,-3.7101,-3.6653,-3.6022,-3.5176,-3.4502,-4.7814,-4.8272,-4.8557,-4.8019,-4.6613,-4.4164,-3.9566,-3.7056,0.0,0.0,-2.8877,-2.8593,-2.8363,0.0,0.0,0.0,0.0,0.0,0.0,0.0,0.0,0.0,0.0,0.0,0.0,0.0,0.0,0.0,0.0,0.0,-5.4103,-5.4103,-5.4024,-5.3882,-5.4024,-5.4024,-5.3882,-5.4024,-5.4024,-5.3882,-5.336,-5.3028,-5.2855,-5.2128,-5.1496,-5.0999,-5.0816,0.0,0.0,-4.9876,-4.9876,-4.9876,-4.9876,-4.9876,-4.9876,-4.9876,-4.9876,-4.9876,-4.9876,-4.9876,-4.9876,-4.9876,-4.9821,-4.9395,-4.7793,-4.7169,-4.6702,-4.5078,-4.461,-4.461,-4.461,-4.461,-4.461,-4.461,-4.4101,-4.3424,-4.274,-4.2078,-4.1386,-4.0628,-4.0489,-4.0489,-4.0489,-4.0489,-4.032,-3.9782,-3.9154,-3.8477,-3.78,-3.7123,-3.6861,-3.7246,-3.7769,-3.8138,-3.8277,-3.78,-3.7569,-3.7707,-3.7092,-3.6769,-3.6923,-3.7153,-3.7353,-3.7507,-3.7877,-3.7815,-3.7292,-3.7245,-3.6809,-3.6037,-3.5382,-3.481,-4.7545,-4.794,-4.7972,-4.7925,-4.5886,-4.2945,-3.9329,0.0,0.0,-2.9714,-2.8119,-2.7652,-2.8798,-2.9817,0.0,0.0,0.0,0.0,0.0,0.0,0.0,0.0,0.0,0.0,0.0,0.0,0.0,0.0,0.0,0.0,-5.4103,-5.4103,-5.3818,-5.3218,-5.3787,-5.3818,-5.3202,-5.3803,-5.3787,-5.3202,-5.3139,-5.276,-5.2096,-5.1385,-5.1078,-5.0983,-5.0295,0.0,0.0,-4.9876,-4.9876,-4.9876,-4.9876,-4.9876,-4.9876,-4.9876,-4.9876,-4.9876,-4.9876,-4.9876,-4.9876,-4.9876,-4.9489,-4.8764,-4.7653,-4.6811,-4.6064,-4.4939,-4.461,-4.461,-4.461,-4.461,-4.461,-4.461,-4.4101,-4.3424,-4.274,-4.2078,-4.1386,-4.0628,-4.0489,-4.0489,-4.0489,-4.0489,-4.0474,-4.0413,-3.9828,-3.9185,-3.8508,-3.7831,-3.72,-3.6645,-3.6645,-3.6923,-3.7538,-3.7538,-3.7769,-3.8385,-3.7784,-3.7677,-3.8292,-3.72,-3.6876,-3.7492,-3.6953,-3.6645,-3.6584,-3.6412,-3.6272,-3.6179,-3.5816,-3.5237,-4.674,-4.7245,-4.7135,-4.674,-4.4859,-4.2078,-3.8114,0.0,-3.1776,-2.8568,-2.713,-2.6751,-2.7731,-2.8805,-3.0038,0.0,-3.256,-3.4446,0.0,0.0,0.0,0.0,0.0,0.0,0.0,0.0,0.0,0.0,0.0,0.0,-5.4071,-5.3724,-5.3376,-5.3123,-5.2934,-5.2712,-5.2444,-5.2712,-5.2712,-5.2444,-5.2017,-5.167,-5.1353,-5.0658,-5.0342,-5.0326,-5.0042,0.0,0.0,-4.9876,-4.9876,-4.9876,-4.9876,-4.9876,-4.9876,-4.9876,-4.9876,-4.9876,-4.9876,-4.9876,-4.9813,-4.9426,-4.8841,-4.8164,-4.7512,-4.6764,-4.597,-4.4924,-4.461,-4.461,-4.461,-4.461,-4.461,-4.461,-4.4409,-4.3932,-4.2833,-4.2402,-4.1878,-4.0705,-4.0489,-4.0489,-4.0489,-4.0489,-4.0489,-4.0489,-3.992,-3.9244,-3.86,-3.7923,-3.723,-3.6569,-3.6492,-3.6599,-3.6876,-3.6892,-3.7015,-3.7277,-3.7046,-3.7015,-3.7292,-3.6784,-3.6615,-3.6892,-3.663,-3.6492,-3.6492,-3.6414,-3.6289,-3.6085,-3.5926,-3.5606,-4.5618,-4.6187,-4.6123,-4.5871,-4.3769,-4.0862,0.0,-3.4257,-3.1081,-2.8031,-2.683,-2.6546,-2.7257,-2.8173,-2.9042,-2.9753,-3.0425,-3.207,-3.5616,0.0,0.0,0.0,0.0,0.0,0.0,0.0,0.0,0.0,0.0,0.0,0.0,-5.3155,-5.2776,-5.2776,-5.2491,-5.2128,-5.1717,-5.1907,-5.1907,-5.1701,-5.1211,-5.0904,-5.0642,-5.0153,-4.9876,-4.9876,-4.9876,0.0,0.0,-4.9876,-4.9876,-4.9876,-4.9876,-4.9876,-4.9876,-4.9876,-4.9876,-4.9876,-4.9876,-4.9789,-4.9536,-4.9047,-4.8288,-4.7502,-4.7159,-4.6506,-4.5721,-4.4938,-4.4663,-4.461,-4.461,-4.461,-4.461,-4.461,-4.461,-4.4218,-4.2894,-4.2602,-4.2186,-4.0766,-4.0489,-4.0489,-4.0489,-4.0489,-4.0489,-4.0489,-4.009,-3.9536,-3.8893,-3.8385,-3.7769,-3.6892,-3.6799,-3.6707,-3.6507,-3.6492,-3.6492,-3.6492,-3.6492,-3.6492,-3.6492,-3.6492,-3.6492,-3.6492,-3.6492,-3.6492,-3.6492,-3.6445,-3.6258,-3.6005,-3.5941,-3.587,-4.4164,-4.4733,-4.4907,-4.5634,-4.2647,-3.9171,0.0,-3.4225,-3.0638,-2.8521,-2.7557,-2.7288,-2.7968,-2.8094,-2.8331,-2.9004,-3.0891,-3.3003,-3.5094,0.0,0.0,0.0,0.0,0.0,0.0,0.0,0.0,0.0,0.0,0.0,0.0,-5.2428,-5.2017,-5.2017,-5.2728,-5.2412,-5.103,-5.167,-5.167,-5.103,-5.1015,-5.0611,-4.9892,-4.9876,-4.9876,0.0,0.0,0.0,0.0,-4.9876,-4.9876,-4.9876,-4.9876,-4.9876,-4.9876,-4.9876,-4.9876,-4.9876,-4.9876,-4.9473,-4.8904,-4.8889,-4.794,-4.6766,-4.6579,-4.59,-4.5182,-4.4964,-4.4761,-4.461,-4.461,-4.461,-4.461,-4.461,-4.461,-4.4218,-4.2894,-4.2602,-4.2186,-4.0766,-4.0489,-4.0489,-4.0489,-4.0489,-4.0489,-4.0489,-4.0489,-4.0243,-3.9567,-3.9474,-3.8985,-3.7631,-3.7492,-3.7215,-3.6553,-3.6492,-3.6492,-3.6492,-3.6492,-3.6492,-3.6492,-3.6492,-3.6492,-3.6492,-3.6492,-3.6492,-3.6492,-3.6305,-3.6148,-3.6005,-3.5799,-3.5999,-4.0593,-4.1509,-4.1731,-4.1004,-3.9455,-3.7512,-3.5157,-3.2487,-3.0054,-2.8426,-2.7162,-2.672,-2.7873,-2.8094,-2.879,-3.0947,-3.1864,0.0,0.0,0.0,0.0,0.0,0.0,0.0,0.0,0.0,0.0,0.0,0.0,0.0,0.0,-5.2144,-5.1796,-5.1306,-5.1053,-5.0721,-5.0247,-5.0469,-5.0469,-5.0247,-5.0247,-5.0137,-4.9876,-4.9876,-4.9876,0.0,0.0,0.0,0.0,-4.9876,-4.9876,-4.9876,-4.9876,-4.9876,-4.9876,-4.9876,-4.9615,-4.922,-4.922,-4.8778,-4.813,-4.7624,-4.715,-4.6708,-4.6192,-4.5709,-4.5315,-4.5002,-4.4761,-4.461,-4.461,-4.461,-4.461,-4.461,-4.461,-4.4218,-4.2894,-4.2602,-4.2186,-4.0766,-4.0489,-4.0489,-4.0489,-4.0489,-4.0489,-4.0489,-4.0489,-4.0259,-3.9582,-3.949,-3.9136,-3.8292,-3.7769,-3.723,-3.6553,-3.6492,-3.6492,-3.6492,-3.6492,-3.6492,-3.6492,-3.6492,-3.6492,-3.6492,-3.6492,-3.6492,-3.6492,-3.6305,-3.6297,-3.6476,-3.6748,-3.7218,-3.7638,-3.8871,-3.9281,-3.8665,-3.7385,-3.5849,-3.4067,-3.1665,-2.9453,-2.8331,-2.7194,-2.6688,-2.7557,-2.7921,-2.8663,-3.0425,-3.1374,0.0,0.0,0.0,0.0,0.0,0.0,0.0,0.0,0.0,0.0,0.0,0.0,0.0,0.0,-5.1622,-5.129,-5.0595,-5.0405,-5.0184,-4.9876,-4.9876,-4.9876,-4.9876,-4.9876,-4.9876,-4.9876,-4.9876,-4.9876,0.0,0.0,0.0,0.0,-4.9876,-4.9876,-4.9876,-4.9876,-4.9773,-4.9536,-4.9536,-4.9094,-4.8509,-4.8509,-4.8067,-4.7403,-4.6945,-4.6629,-4.6345,-4.5934,-4.5662,-4.5442,-4.4986,-4.4799,-4.4685,-4.461,-4.461,-4.461,-4.461,-4.461,-4.4218,-4.2894,-4.2602,-4.2186,-4.0766,-4.0489,-4.0489,-4.0489,-4.0489,-4.0489,-4.0489,-4.0489,-4.0336,-3.992,-3.9859,-3.9613,-3.897,-3.8508,-3.7984,-3.7307,-3.6784,-3.6492,-3.6492,-3.6492,-3.6492,-3.6492,-3.6492,-3.6492,-3.6492,-3.666,-3.6767,-3.6767,-3.6757,-3.6864,-3.7086,-3.7548,-3.8003,0.0,-3.6453,-3.7288,-3.7844,-3.6011,-3.4036,-3.3941,-3.1397,0.0,-2.8173,-2.7494,-2.7083,-2.7225,-2.7715,-2.8173,-2.8426,-3.0133,0.0,0.0,0.0,0.0,0.0,0.0,0.0,0.0,0.0,0.0,0.0,0.0,0.0,0.0,-5.0936,-5.0595,-4.9947,-5.0548,-5.0579,-4.9931,-4.9876,-4.9876,-4.9876,-4.9876,-4.9876,-4.9876,-4.9876,-4.9876,0.0,0.0,0.0,0.0,-4.9852,-4.9821,-4.9773,-4.9773,-4.9378,-4.881,-4.881,-4.8399,-4.7814,-4.7814,-4.734,-4.6724,-4.6724,-4.6313,-4.5807,-4.5807,-4.5662,-4.5426,-4.5039,-4.4911,-4.4874,-4.4648,-4.461,-4.461,-4.461,-4.4579,-4.4156,-4.2879,-4.2571,-4.214,-4.0751,-4.0489,-4.0489,-4.0489,-4.0489,-4.0489,-4.0489,-4.0489,-4.0489,-4.0489,-4.0489,-4.0259,-3.9628,-3.9521,-3.9228,-3.8631,-3.7384,-3.663,-3.663,-3.663,-3.663,-3.663,-3.663,-3.663,-3.663,-3.7071,-3.7281,-3.7248,-3.7619,-3.7782,-3.7763,-3.8237,-3.8467,-2.9832,0.0,-3.343,-3.3024,-3.244,-3.1665,0.0,-2.9295,-2.8142,-2.7478,-2.6767,-2.6751,-2.834,-2.8347,-2.8963,-3.1634,-3.2914,0.0,0.0,0.0,0.0,0.0,0.0,0.0,0.0,0.0,0.0,0.0,0.0,0.0,0.0,-5.0168,-5.0089,-4.9931,-5.0089,-5.0089,-4.9876,-4.9876,-4.9876,-4.9876,-4.9876,-4.9876,-4.9876,-4.9876,-4.9876,0.0,0.0,0.0,-4.9141,-4.9141,-4.8825,-4.8367,-4.8367,-4.8272,-4.813,-4.813,-4.7672,-4.7056,-4.7056,-4.6613,-4.6044,-4.6044,-4.5934,-4.5807,-4.5807,-4.5662,-4.5478,-4.5389,-4.5151,-4.4874,-4.4836,-4.4739,-4.461,-4.461,-4.4225,-4.3624,-4.2786,-4.2202,-4.1571,-4.0659,-4.0489,-4.0489,-4.0489,-4.0489,-4.0489,-4.0489,-4.0489,-4.0489,-4.0489,-4.0489,-4.0428,-4.0274,-3.9797,-3.9428,-3.9293,-3.8523,-3.8031,-3.8031,-3.8031,-3.8031,-3.8031,-3.8031,-3.8031,-3.8031,-3.8152,-3.7999,-3.7567,-3.833,-3.8545,-3.8252,-3.8856,-3.917,-2.7636,-2.9461,-3.1311,-3.1223,-3.097,-3.0543,-2.9785,-2.8316,-2.7036,0.0,0.0,-2.6451,-2.7898,-2.8395,-2.9406,-3.1934,-3.313,0.0,0.0,0.0,0.0,0.0,0.0,0.0,0.0,0.0,0.0,0.0,0.0,0.0,0.0,-4.9757,-4.9797,-4.9876,-4.9797,-4.9797,-4.9876,-4.9876,-4.9876,-4.9876,-4.96,-4.9442,-4.9442,-4.9126,-4.8999,0.0,0.0,0.0,-4.843,-4.843,-4.8225,-4.7893,-4.7893,-4.7688,-4.7403,-4.7403,-4.6945,-4.6345,-4.6345,-4.6108,-4.5807,-4.5807,-4.5807,-4.5807,-4.5807,-4.5662,-4.5478,-4.5405,-4.5204,-4.5002,-4.4799,-4.4685,-4.461,-4.461,-4.4101,-4.3424,-4.274,-4.2078,-4.1386,-4.0628,-4.0489,-4.0489,-4.0489,-4.0489,-4.0489,-4.0489,-4.0489,-4.0489,-4.0489,-4.0489,-4.0489,-4.0489,-4.0166,-3.9951,-3.9951,-3.9613,-3.917,-3.8554,-3.8508,-3.8508,-3.8508,-3.8508,-3.858,-3.8821,-3.8821,-3.8739,-3.8611,-3.9093,-3.9154,-3.8871,-3.9245,-3.9388,-2.7083,-2.8616,-3.0283,-3.0638,-3.0449,-3.0141,-2.9935,0.0,0.0,0.0,0.0,0.0,0.0,-2.8577,0.0,0.0,0.0,0.0,0.0,0.0,0.0,0.0,0.0,0.0,0.0,0.0,0.0,0.0,0.0,0.0,0.0,-4.9306,-4.9339,-4.9497,-4.9339,-4.9323,-4.9497,-4.9671,-4.9773,-4.9758,-4.9062,-4.8731,-4.8715,-4.8162,-4.7893,-4.7893,0.0,0.0,-4.7735,-4.7735,-4.7672,-4.7577,-4.7577,-4.7198,-4.6645,-4.6645,-4.6297,-4.5807,-4.5807,-4.5807,-4.5807,-4.5807,-4.5807,-4.5807,-4.5807,-4.5662,-4.5515,-4.5257,-4.5182,-4.5092,-4.4739,-4.461,-4.4594,-4.4486,-4.3947,-4.3285,-4.2586,-4.1925,-4.1263,-4.0612,-4.0489,-4.0489,-4.0489,-4.0489,-4.0489,-4.0489,-4.0489,-4.0489,-4.0489,-4.0489,-4.0489,-4.0489,-4.0489,-4.0489,-4.0489,-4.0489,-4.0013,-3.8893,-3.8816,-3.8816,-3.8816,-3.8816,-3.8977,-3.936,-3.9409,-3.9493,-3.9681,-3.9732,-3.9625,-3.9388,-3.9388,-3.9388,-2.6941,-2.8616,-2.9951,-2.8837,-2.9374,-2.9903,-2.8702,-2.8079,0.0,0.0,0.0,0.0,0.0,0.0,0.0,0.0,0.0,0.0,0.0,0.0,0.0,0.0,0.0,0.0,0.0,0.0,0.0,0.0,0.0,0.0,0.0,-4.7942,-4.7669,-4.7708,-4.7669,-4.7669,-4.7708,-4.8607,-4.9047,-4.9047,-4.8367,-4.8051,-4.8051,-4.794,-4.7893,-4.7893,0.0,-4.7545,-4.6961,-4.6961,-4.6629,-4.6123,-4.6123,-4.606,-4.5965,-4.5965,-4.5902,-4.5807,-4.5807,-4.5807,-4.5807,-4.5807,-4.5807,-4.5807,-4.5807,-4.5771,-4.5662,-4.5294,-4.5092,-4.4911,-4.4874,-4.4723,-4.4471,-4.3901,-4.3233,-4.2571,-4.1909,-4.1186,-4.0628,-4.052,-4.0489,-4.0489,-4.0489,-4.0489,-4.0489,-4.0489,-4.0489,-4.0489,-4.0489,-4.0489,-4.0489,-4.0489,-4.0489,-4.0489,-4.0489,-4.0489,-4.0397,-4.0197,-4.0182,-4.0182,-4.0182,-4.0182,-4.0159,-4.0143,-4.0232,-4.0104,-3.9681,-3.9889,-3.9747,-3.9388,-3.9388,-3.9388,-2.5871,-2.7484,-2.8995,-2.8726,-2.999,-3.1058,-3.0006,-2.92,0.0,0.0,0.0,0.0,0.0,0.0,0.0,0.0,0.0,0.0,0.0,0.0,0.0,0.0,0.0,0.0,0.0,0.0,0.0,0.0,0.0,0.0,0.0,0.0,-4.7146,-4.7317,-4.7146,-4.7146,-4.7317,-4.7493,-4.7804,-4.8182,-4.7602,-4.7308,-4.7293,-4.6929,-4.6771,-4.6771,0.0,-4.6582,-4.6266,-4.6266,-4.6092,-4.5807,-4.5807,-4.5807,-4.5807,-4.5807,-4.5807,-4.5807,-4.5807,-4.5807,-4.5807,-4.5807,-4.5807,-4.5807,-4.5807,-4.5735,-4.5589,-4.5405,-4.5204,-4.5002,-4.4799,-4.4648,-4.4533,-4.4225,-4.334,-4.2525,-4.2217,-4.1294,-4.0489,-4.0489,-4.0489,-4.0489,-4.0489,-4.0489,-4.0489,-4.0489,-4.0489,-4.0489,-4.0489,-4.0489,-4.0489,-4.0489,-4.0489,-4.0489,-4.0489,-4.0489,-4.0489,-4.0489,-4.0489,-4.0489,-4.0489,-4.0489,-4.0436,-4.0312,-4.0366,-4.0156,-3.9681,-3.9803,-3.9711,-3.9388,-3.9388,-3.9388,-2.5634,-2.701,-2.8505,-2.92,0.0,-3.1833,-3.1918,-3.0835,0.0,0.0,0.0,0.0,0.0,0.0,0.0,0.0,0.0,0.0,0.0,0.0,0.0,0.0,0.0,0.0,0.0,0.0,0.0,0.0,0.0,0.0,0.0,0.0,-4.6439,-4.6664,-4.6493,-4.6439,-4.6664,-4.6309,-4.6539,-4.7321,-4.6786,-4.6566,-4.655,-4.6044,-4.5807,-4.5807,-4.5807,-4.5807,-4.5807,-4.5807,-4.5807,-4.5807,-4.5807,-4.5807,-4.5807,-4.5807,-4.5807,-4.5807,-4.5807,-4.5807,-4.5807,-4.5807,-4.5807,-4.5807,-4.5807,-4.5698,-4.5552,-4.5515,-4.5368,-4.5129,-4.4776,-4.4648,-4.4533,-4.4225,-4.334,-4.2525,-4.2186,-4.1243,-4.0489,-4.0489,-4.0489,-4.0489,-4.0489,-4.0489,-4.0489,-4.0489,-4.0489,-4.0489,-4.0489,-4.0489,-4.0489,-4.0489,-4.0489,-4.0489,-4.0489,-4.0489,-4.0489,-4.0489,-4.0489,-4.0489,-4.0489,-4.047,-4.0401,-4.0312,-4.0242,-4.0051,-3.9681,-3.9681,-3.9589,-3.9388,-3.9388,-3.9388,-2.751,-2.8442,-2.9193,-2.9927,-3.0251,-3.101,-3.3498,-3.305,0.0,-3.4541,0.0,0.0,0.0,0.0,0.0,0.0,0.0,0.0,0.0,0.0,0.0,0.0,0.0,0.0,0.0,0.0,0.0,0.0,0.0,0.0,0.0,0.0,0.0,-4.4802,-4.4764,-4.4764,-4.4802,-4.4929,-4.5556,-4.6567,-4.6092,-4.5886,-4.5886,-4.5839,-4.5807,-4.5807,-4.5807,-4.5807,-4.5807,-4.5807,-4.5807,-4.5807,-4.5807,-4.5807,-4.5807,-4.5807,-4.5807,-4.5807,-4.5807,-4.5807,-4.5807,-4.5807,-4.5807,-4.5807,-4.5807,-4.5771,-4.5735,-4.5552,-4.5368,-4.5129,-4.4911,-4.4723,-4.4302,-4.3048,-4.2679,-4.2248,-4.092,-4.0566,-4.0489,-4.0489,-4.0489,-4.0489,-4.0489,-4.0489,-4.0489,-4.0489,-4.0489,-4.0489,-4.0489,-4.0489,-4.0489,-4.0489,-4.0489,-4.0489,-4.0489,-4.0489,-4.0489,-4.0489,-4.0489,-4.0489,-4.0489,-4.0366,-4.0312,-4.0312,-4.0101,-3.9925,-3.9681,-3.9681,-3.9589,-3.9388,-3.9388,-3.9388,-2.6656,-2.7914,-2.9272,-3.003,-3.0852,0.0,0.0,-3.4589,-3.5331,-3.699,-3.7158,0.0,0.0,0.0,0.0,0.0,0.0,0.0,0.0,0.0,0.0,0.0,0.0,0.0,0.0,0.0,0.0,0.0,0.0,0.0,0.0,0.0,0.0,-4.461,-4.461,-4.461,-4.461,-4.4927,-4.5291,-4.569,-4.5641,-4.5662,-4.5807,-4.5807,-4.5807,-4.5807,-4.5807,-4.5807,-4.5807,-4.5807,-4.5807,-4.5807,-4.5807,-4.5807,-4.5807,-4.5807,-4.5807,-4.5807,-4.5807,-4.5807,-4.5807,-4.5807,-4.5807,-4.5807,-4.5807,-4.5807,-4.5771,-4.5552,-4.5368,-4.5129,-4.4964,-4.4761,-4.4486,-4.3941,-4.3217,-4.2463,-4.194,-4.1105,-4.0489,-4.0489,-4.0489,-4.0489,-4.0489,-4.0489,-4.0489,-4.0489,-4.0489,-4.0489,-4.0489,-4.0489,-4.0489,-4.0489,-4.0489,-4.0489,-4.0489,-4.0489,-4.0489,-4.0489,-4.0489,-4.0489,-4.0489,-4.0455,-4.0331,-4.0101,-4.0046,-3.9854,-3.9517,-3.9517,-3.9481,-3.9388,-3.9388,-3.9388,-2.6404,-2.7454,-2.8849,-2.9856,0.0,0.0,-3.4743,-3.5956,-3.7249,-3.9314,-3.9235,0.0,0.0,0.0,0.0,0.0,0.0,0.0,0.0,0.0,0.0,0.0,0.0,0.0,0.0,0.0,0.0,0.0,0.0,0.0,0.0,0.0,0.0,0.0,-4.461,-4.461,-4.461,-4.4635,-4.4765,-4.4839,-4.4768,-4.5112,-4.5807,-4.5807,-4.5807,-4.5807,-4.5807,-4.5807,-4.5807,-4.5807,-4.5807,-4.5807,-4.5807,-4.5807,-4.5807,-4.5807,-4.5807,-4.5807,-4.5807,-4.5807,-4.5807,-4.5807,-4.5807,-4.5807,-4.5807,-4.5771,-4.5662,-4.5552,-4.5331,-4.503,-4.4663,-4.4569,-4.4502,-4.4048,-4.3264,-4.2494,-4.2048,-4.1166,-4.0489,-4.0489,-4.0489,-4.0489,-4.0489,-4.0489,-4.0489,-4.0489,-4.0489,-4.0489,-4.0489,-4.0489,-4.0489,-4.0489,-4.0489,-4.0489,-4.0489,-4.0489,-4.0489,-4.0489,-4.0489,-4.0489,-4.0489,-4.0401,-4.0226,-3.9996,-3.9869,-3.9676,-3.9388,-3.9388,-3.9388,-3.9388,-3.9388,-3.9388,-2.7288,-2.7308,-2.7915,0.0,0.0,0.0,-3.6321,-3.7241,-3.8215,-4.1716,0.0,-3.9924,-3.9557,0.0,0.0,0.0,0.0,0.0,0.0,0.0,0.0,0.0,0.0,0.0,0.0,0.0,0.0,0.0,0.0,0.0,0.0,0.0,0.0,0.0,-4.4594,-4.4594,-4.4594,-4.3932,-4.3778,-4.4076,-4.3406,-4.4026,-4.5792,-4.5792,-4.5792,-4.5807,-4.5807,-4.5807,-4.5807,-4.5807,-4.5807,-4.5807,-4.5807,-4.5807,-4.5807,-4.5807,-4.5807,-4.5807,-4.5807,-4.5807,-4.5807,-4.5807,-4.5807,-4.5807,-4.5807,-4.5662,-4.5515,-4.5478,-4.5188,-4.4756,-4.4068,-4.4229,-4.4271,-4.2925,-4.2602,-4.2217,-4.0797,-4.0489,-4.0489,-4.0489,-4.0489,-4.0489,-4.0489,-4.0489,-4.0489,-4.0489,-4.0489,-4.0489,-4.0489,-4.0489,-4.0489,-4.0489,-4.0489,-4.0489,-4.0489,-4.0489,-4.0489,-4.0489,-4.0489,-4.0489,-4.0489,-4.0172,-4.0011,-4.0011,-3.9604,-3.9388,-3.9388,-3.9388,-3.9388,-3.9388,-3.9388,-3.9388,-2.7023,-2.8081,0.0,-3.0317,0.0,0.0,0.0,-3.8607,0.0,0.0,0.0,0.0,0.0,0.0,0.0,0.0,0.0,0.0,0.0,0.0,0.0,0.0,0.0,0.0,0.0,0.0,0.0,0.0,0.0,0.0,0.0,0.0,0.0,0.0,-4.3187,-4.3187,-4.3187,-4.3133,-4.3149,-4.3242,-4.3183,-4.3576,-4.4306,-4.4322,-4.4571,-4.5049,-4.5049,-4.5333,-4.5807,-4.5807,-4.5807,-4.5807,-4.5807,-4.5807,-4.5807,-4.5807,-4.5807,-4.5807,-4.5807,-4.5807,-4.5807,-4.5807,-4.5807,-4.5692,-4.5079,-4.5159,-4.5332,-4.4606,-4.4282,-4.4109,-4.3781,-4.3424,-4.3094,-4.2694,-4.2248,-4.1786,-4.137,-4.0858,-4.0489,-4.0489,-4.0489,-4.0489,-4.0489,-4.0489,-4.0489,-4.0489,-4.0489,-4.0489,-4.0489,-4.0489,-4.0489,-4.0489,-4.0489,-4.0489,-4.0489,-4.0489,-4.0489,-4.0489,-4.0401,-4.0366,-4.0366,-4.0261,-4.0101,-3.9803,-3.9661,-3.9553,-3.9388,-3.9388,-3.9388,-3.9388,-3.9388,-3.9388,-2.7906,-2.91,0.0,-3.2295,0.0,0.0,0.0,0.0,0.0,0.0,0.0,0.0,0.0,0.0,0.0,0.0,0.0,0.0,0.0,0.0,0.0,0.0,0.0,0.0,0.0,0.0,0.0,0.0,0.0,0.0,0.0,0.0,0.0,0.0,-4.2602,-4.2602,-4.2602,-4.2448,-4.2416,-4.2457,-4.2404,-4.2507,-4.2766,-4.3334,-4.3857,-4.4322,-4.4306,-4.4559,-4.4986,-4.4986,-4.4986,-4.5001,-4.527,-4.5207,-4.5049,-4.5602,-4.5618,-4.5412,-4.5713,-4.5618,-4.5365,-4.5365,-4.5119,-4.4732,-4.4216,-4.4246,-4.4315,-4.3692,-4.3437,-4.3287,-4.29,-4.2494,-4.2202,-4.2202,-4.1894,-4.1524,-4.1232,-4.0797,-4.0489,-4.0489,-4.0489,-4.0489,-4.0489,-4.0489,-4.0489,-4.0489,-4.0489,-4.0489,-4.0489,-4.0489,-4.0489,-4.0489,-4.0489,-4.0489,-4.0489,-4.0489,-4.0489,-4.0489,-4.0366,-4.0277,-4.0172,-4.0086,-3.9945,-3.9681,-3.961,-3.9517,-3.9388,-3.9388,-3.9388,-3.9388,-3.9388,-3.9388,-2.9195,0.0,0.0,0.0,0.0,0.0,0.0,0.0,0.0,0.0,0.0,0.0,0.0,0.0,0.0,0.0,0.0,0.0,0.0,0.0,0.0,0.0,0.0,0.0,0.0,0.0,0.0,0.0,0.0,0.0,0.0,0.0,0.0,-4.2417,-4.2417,-4.2417,-4.2417,-4.1801,-4.1549,0.0,-4.1261,-4.1153,-4.1337,-4.2626,-4.3359,-4.3592,-4.3658,-4.369,-4.3687,-4.3687,-4.3687,-4.375,-4.4385,-4.4224,-4.3845,-4.5159,-4.5191,-4.4717,-4.5396,-4.5175,-4.4622,-4.4622,-4.409,-4.3415,-4.3317,-4.3118,-4.2911,-4.2813,-4.2654,-4.2371,-4.1755,-4.1555,-4.1509,-4.1509,-4.1509,-4.1324,-4.0628,-4.0489,-4.0489,-4.0489,-4.0489,-4.0489,-4.0489,-4.0489,-4.0489,-4.0489,-4.0489,-4.0489,-4.0489,-4.0489,-4.0489,-4.0489,-4.0489,-4.0489,-4.0489,-4.0489,-4.0489,-4.0489,-4.0366,-4.0172,-4.0011,-3.9803,-3.9681,-3.9661,-3.9481,-3.9388,-3.9388,-3.9388,-3.9388,-3.9388,-3.9388,-3.9388,0.0,-2.9328,0.0,0.0,0.0,0.0,0.0,0.0,0.0,0.0,0.0,0.0,0.0,0.0,0.0,0.0,0.0,0.0,0.0,0.0,0.0,0.0,0.0,0.0,0.0,0.0,0.0,0.0,0.0,0.0,0.0,0.0,0.0,-4.0935,-4.0935,-4.0935,-4.0935,-4.0797,-4.0755,0.0,-4.0842,-4.095,-4.1169,-4.1738,-4.2329,-4.2932,-4.3453,-4.3709,-4.369,-4.3722,-4.3687,-4.3703,-4.3845,-4.3813,-4.3734,-4.4018,-4.4053,-4.3927,-4.4117,-4.4034,-4.3908,-4.3908,-4.3797,-4.3472,-4.2613,-4.2693,-4.2878,-4.2098,-4.1852,-4.1786,-4.1632,-4.1186,-4.072,-4.072,-4.072,-4.0674,-4.052,-4.0489,-4.0489,-4.0489,-4.0489,-4.0489,-4.0489,-4.0489,-4.0489,-4.0489,-4.0489,-4.0489,-4.0489,-4.0489,-4.0489,-4.0489,-4.0489,-4.0489,-4.0489,-4.0489,-4.0489,-4.0489,-4.0242,-4.0046,-4.0011,-3.9803,-3.9625,-3.9445,-3.9409,-3.9388,-3.9388,-3.9388,-3.9388,-3.9388,-3.9388,-3.9388,0.0,0.0,0.0,0.0,0.0,0.0,0.0,0.0,0.0,0.0,0.0,0.0,0.0,0.0,0.0,0.0,0.0,0.0,0.0,0.0,0.0,0.0,0.0,0.0,0.0,0.0,0.0,0.0,0.0,0.0,0.0,-4.0689,-4.0489,-4.0489,-4.0489,-4.0489,-4.0489,-4.0489,-4.0489,-4.0489,-4.0814,-4.1086,-4.1355,-4.1538,-4.1794,-4.2173,-4.2521,-4.2713,-4.2713,-4.2695,-4.2695,-4.2742,-4.309,-4.3011,-4.2789,-4.3434,-4.35,-4.3263,-4.3611,-4.35,-4.3232,-4.3232,-4.2926,-4.2428,-4.1794,-4.1797,-4.186,-4.1256,-4.1078,-4.1078,-4.1078,-4.0782,-4.0489,-4.0489,-4.0489,-4.0489,-4.0489,-4.0489,-4.0489,-4.0489,-4.0489,-4.0489,-4.0489,-4.0489,-4.0489,-4.0489,-4.0489,-4.0489,-4.0489,-4.0489,-4.0489,-4.0489,-4.0489,-4.0489,-4.0489,-4.0489,-4.0489,-4.0489,-4.0207,-4.0011,-4.0011,-3.9696,-3.9517,-3.9388,-3.9388,-3.9388,-3.9388,-3.9388,-3.9388,-3.9388,-3.9388,-3.9388,0.0,0.0,0.0,0.0,0.0,0.0,0.0,0.0,0.0,0.0,0.0,0.0,0.0,0.0,0.0,0.0,0.0,0.0,0.0,0.0,0.0,0.0,0.0,0.0,0.0,0.0,0.0,0.0,0.0,0.0,-4.0489,-4.0489,-4.0489,-4.0489,-4.0489,-4.0489,-4.0489,-4.0489,-4.0489,-4.0489,-4.0898,-4.1303,-4.1588,-4.1588,-4.1588,-4.1588,-4.1588,-4.1588,-4.1588,-4.1588,-4.1588,-4.1652,-4.2252,-4.2126,-4.1731,-4.2916,-4.2995,-4.2584,-4.3153,-4.2979,-4.2505,-4.2505,-4.1978,-4.1323,-4.1169,-4.1,-4.0799,-4.0558,-4.0489,-4.0489,-4.0489,-4.0489,-4.0489,-4.0489,-4.0489,-4.0489,-4.0489,-4.0489,-4.0489,-4.0489,-4.0489,-4.0489,-4.0489,-4.0489,-4.0489,-4.0489,-4.0489,-4.0489,-4.0489,-4.0489,-4.0489,-4.0489,-4.0489,-4.0489,-4.0489,-4.0489,-4.0489,-4.0489,-4.0207,-4.0011,-4.0011,-3.9604,-3.9388,-3.9388,-3.9388,-3.9388,-3.9388,-3.9388,-3.9388,-3.9388,-3.9388,-3.9388,0.0,0.0,0.0,0.0,0.0,0.0,0.0,0.0,0.0,0.0,0.0,0.0,0.0,0.0,0.0,0.0,0.0,0.0,0.0,0.0,0.0,0.0,0.0,0.0,0.0,0.0,0.0,0.0,0.0,0.0,-4.0489,-4.0489,-4.0489,-4.0489,-4.0489,-4.0489,-4.0489,-4.0489,-4.0489,-4.0489,-4.0898,-4.1303,-4.1588,-4.1588,-4.1588,-4.1588,-4.1588,-4.1588,-4.1588,-4.1588,-4.1588,-4.1604,-4.1699,-4.1683,-4.1604,-4.181,-4.181,-4.1746,-4.1841,-4.181,-4.1746,-4.1746,-4.1667,-4.1489,-4.1203,-4.1083,-4.0966,-4.0608,-4.0489,-4.0489,-4.0489,-4.0489,-4.0489,-4.0489,-4.0489,-4.0489,-4.0489,-4.0489,-4.0489,-4.0489,-4.0489,-4.0489,-4.0489,-4.0489,-4.0489,-4.0489,-4.0489,-4.0489,-4.0489,-4.0489,-4.0489,-4.0489,-4.0489,-4.0489,-4.0489,-4.0489,-4.0489,-4.0489,-4.0207,-4.0011,-4.0011,-3.9604,-3.9388,-3.9388,-3.9388,-3.9388,-3.9388,-3.9388,-3.9388,-3.9388,-3.9388,-3.9388,-2.587,-2.8835,0.0,0.0,0.0,0.0,0.0,0.0,0.0,0.0,0.0,0.0,0.0,0.0,0.0,0.0,0.0,0.0,0.0,0.0,0.0,0.0,0.0,0.0,0.0,0.0,0.0,0.0,0.0,-4.0489,-4.0489,-4.0489,-4.032,-3.9936,-3.992,-3.9751,-3.9367,-3.94,-3.9434,-3.9568,-3.98,-4.0047,-4.0323,-4.0387,-4.0846,-4.1588,-4.1588,-4.1588,-4.1588,-4.1588,-4.1588,-4.1588,-4.1588,-4.1588,-4.1588,-4.1588,-4.1588,-4.1588,-4.1588,-4.1588,-4.1588,-4.1588,-4.1522,-4.139,-4.1169,-4.1034,-4.0882,-4.0558,-4.0489,-4.0489,-4.0489,-4.0489,-4.0489,-4.0489,-4.0489,-4.0489,-4.0489,-4.0489,-4.0489,-4.0489,-4.0489,-4.0489,-4.0489,-4.0489,-4.0489,-4.0489,-4.0489,-4.0489,-4.0489,-4.0489,-4.0489,-4.0489,-4.0489,-4.0489,-4.0489,-4.0858,-4.1039,-4.0902,-4.0685,-4.0521,-4.0398,-3.9748,-3.9388,-3.9388,-3.9388,-3.9388,-3.9388,-3.9388,-3.9388,-3.9388,-3.9388,-3.9388,-2.579,-2.8184,-3.0269,0.0,0.0,0.0,0.0,0.0,0.0,0.0,0.0,0.0,0.0,0.0,0.0,0.0,0.0,0.0,0.0,0.0,0.0,0.0,0.0,0.0,0.0,0.0,0.0,0.0,0.0,-4.0489,-4.0489,-4.0489,-4.0259,-3.9767,-3.9736,-3.9413,-3.8769,-3.86,-3.8606,-3.8801,-3.8947,-3.9107,-3.9282,-3.944,-4.0072,-4.1067,-4.1257,-4.1336,-4.1351,-4.1525,-4.1588,-4.1588,-4.1588,-4.1588,-4.1588,-4.1588,-4.1588,-4.1588,-4.1588,-4.1588,-4.1588,-4.1555,-4.1423,-4.1256,-4.1086,-4.0916,-4.0765,-4.0558,-4.0489,-4.0489,-4.0489,-4.0489,-4.0489,-4.0489,-4.0489,-4.0489,-4.0489,-4.0489,-4.0489,-4.0489,-4.0489,-4.0489,-4.0489,-4.0489,-4.0489,-4.0489,-4.0489,-4.0489,-4.0489,-4.0659,-4.0766,-4.0766,-4.092,-4.1028,-4.1028,-4.1504,-4.1674,-4.1484,-4.1313,-4.1094,-4.0969,-4.0117,-3.9664,-3.9664,-3.9514,-3.9388,-3.9388,-3.9388,-3.9388,-3.9388,-3.9388,-3.9388,-2.2136,-2.4673,0.0,0.0,0.0,0.0,0.0,0.0,0.0,0.0,0.0,0.0,0.0,0.0,0.0,0.0,0.0,0.0,0.0,0.0,0.0,0.0,0.0,0.0,0.0,0.0,0.0,0.0,0.0,-4.0489,-4.0489,-4.0489,-4.0474,-4.0443,-4.0443,-4.012,-3.9428,-3.8831,-3.8606,-3.8801,-3.8947,-3.9107,-3.9282,-3.944,-3.9534,-3.9645,-4.0356,-4.0656,-4.0704,-4.1336,-4.1588,-4.1588,-4.1588,-4.1588,-4.1588,-4.1588,-4.1588,-4.1588,-4.1588,-4.1588,-4.1555,-4.139,-4.1323,-4.1256,-4.0901,-4.0799,-4.0765,-4.0558,-4.0489,-4.0489,-4.0489,-4.0489,-4.0489,-4.0489,-4.0489,-4.0489,-4.0489,-4.0489,-4.0489,-4.0489,-4.0489,-4.0489,-4.0489,-4.0489,-4.0489,-4.0489,-4.0489,-4.0489,-4.0489,-4.1124,-4.154,-4.154,-4.2109,-4.2494,-4.2494,-4.2364,-4.227,-4.2255,-4.1879,-4.1656,-4.1656,-4.0823,-4.0352,-4.0352,-3.9738,-3.9388,-3.9388,-3.9388,-3.9388,-3.9388,-3.9388,-3.9388,-2.0738,-2.3037,0.0,0.0,0.0,0.0,0.0,0.0,0.0,0.0,0.0,0.0,0.0,0.0,0.0,0.0,0.0,0.0,0.0,0.0,0.0,0.0,0.0,0.0,0.0,0.0,0.0,0.0,0.0,0.0,-4.0489,-4.0489,-4.029,-3.9859,-3.9844,-3.9521,-3.8877,-3.82,-3.7894,-3.7958,-3.781,-3.7748,-3.784,-3.8086,-3.8207,-3.8254,-3.895,-3.9503,-3.9945,-4.0656,-4.0956,-4.1004,-4.1415,-4.1588,-4.1588,-4.1588,-4.1588,-4.1588,-4.1456,-4.1423,-4.139,-4.1221,-4.107,-4.0969,-4.0833,-4.0696,-4.0593,-4.0524,-4.0489,-4.0489,-4.0489,-4.0489,-4.0489,-4.0489,-4.0489,-4.0489,-4.0489,-4.0489,-4.0489,-4.0489,-4.0489,-4.0489,-4.0489,-4.0489,-4.0489,-4.0489,-4.0489,-4.0489,-4.0489,-4.1155,-4.1601,-4.1601,-4.2078,-4.2404,-4.2404,-4.2602,-4.2697,-4.2493,-4.241,-4.2258,-4.2128,-4.1422,-4.0831,-4.0412,-4.0172,-3.9843,-3.9388,-3.9388,-3.9388,-3.9388,-3.9388,-3.9388,-1.9274,0.0,0.0,0.0,0.0,0.0,0.0,0.0,0.0,0.0,0.0,0.0,0.0,0.0,0.0,0.0,0.0,0.0,0.0,0.0,0.0,0.0,0.0,0.0,0.0,0.0,0.0,0.0,0.0,0.0,-3.9813,-3.9813,-3.9613,-3.92,-3.897,-3.8739,-3.8508,-3.7846,-3.7647,-3.7927,-3.7546,-3.7389,-3.7434,-3.7471,-3.751,-3.7526,-3.797,-3.8539,-3.9218,-3.9945,-4.023,-4.0293,-4.0988,-4.1257,-4.1288,-4.1509,-4.1555,-4.1489,-4.1357,-4.1256,-4.1205,-4.1052,-4.0916,-4.0799,-4.073,-4.0593,-4.0489,-4.0489,-4.0489,-4.0489,-4.0489,-4.0489,-4.0489,-4.0489,-4.0489,-4.0489,-4.0489,-4.0489,-4.0489,-4.0489,-4.0489,-4.0489,-4.0489,-4.0489,-4.0489,-4.0489,-4.0489,-4.0582,-4.0828,-4.1509,-4.2017,-4.2248,-4.2738,-4.3048,-4.3048,-4.3213,-4.3281,-4.3059,-4.2958,-4.2857,-4.2686,-4.2096,-4.1399,-4.0741,-4.0502,-4.0083,-3.9388,-3.9388,-3.9388,-3.9388,-3.9388,-3.9388,0.0,0.0,0.0,0.0,0.0,0.0,0.0,0.0,0.0,0.0,0.0,0.0,0.0,0.0,0.0,0.0,0.0,0.0,0.0,0.0,0.0,0.0,0.0,0.0,0.0,0.0,0.0,0.0,0.0,-3.8508,-3.8508,-3.8508,-3.8508,-3.8508,-3.7877,-3.7846,-3.8492,-3.7861,-3.7943,-3.8786,-3.8277,-3.8107,-3.8262,-3.7752,-3.7526,-3.751,-3.751,-3.7875,-3.857,-3.9202,-3.9471,-3.9534,-4.0277,-4.0577,-4.0688,-4.132,-4.144,-4.129,-4.129,-4.1205,-4.1068,-4.0848,-4.0799,-4.0765,-4.0558,-4.0489,-4.0489,-4.0489,-4.0489,-4.0489,-4.0489,-4.0489,-4.0489,-4.0489,-4.0489,-4.0489,-4.0489,-4.0489,-4.0489,-4.0489,-4.0489,-4.0489,-4.0489,-4.0489,-4.0489,-4.0489,-4.0489,-4.0751,-4.1478,-4.2171,-4.2833,-4.3485,-4.4194,-4.4572,-4.4541,-4.4205,-4.3988,-4.3988,-4.3542,-4.329,-4.329,-4.2731,-4.2111,-4.1384,-4.0756,-4.0098,-3.9388,-3.9388,-3.9388,-3.9388,-3.9388,-3.9388,-1.8439,0.0,0.0,0.0,0.0,0.0,0.0,0.0,0.0,0.0,0.0,0.0,0.0,0.0,0.0,0.0,0.0,0.0,0.0,0.0,0.0,0.0,0.0,0.0,0.0,0.0,0.0,0.0,-3.8231,-3.8508,-3.8508,-3.8508,-3.8508,-3.8508,-3.8323,-3.8323,-3.8508,-3.8323,-3.8356,-3.8573,-3.8664,-3.8497,-3.8091,-3.8165,-3.7954,-3.751,-3.751,-3.7875,-3.8523,-3.8713,-3.8792,-3.8855,-3.9534,-4.0135,-4.0609,-4.0653,-4.0917,-4.1256,-4.1021,-4.0901,-4.0848,-4.0662,-4.0593,-4.0558,-4.0524,-4.0489,-4.0489,-4.0489,-4.0489,-4.0489,-4.0489,-4.0489,-4.0489,-4.0489,-4.0489,-4.0489,-4.0489,-4.0489,-4.0489,-4.0489,-4.0489,-4.0489,-4.0489,-4.0489,-4.0489,-4.0489,-4.0489,-4.0566,-4.0766,-4.1878,-4.2494,-4.2186,-4.349,-4.4121,-4.3495,-4.3637,-4.3714,-4.3503,-4.3369,-4.329,-4.329,-4.3125,-4.2536,-4.1399,-4.1205,-4.0546,-3.9388,-3.9388,-3.9388,-3.9388,-3.9388,-3.9388,-1.9518,-2.0472,0.0,0.0,0.0,0.0,0.0,0.0,0.0,0.0,0.0,0.0,0.0,0.0,0.0,0.0,0.0,0.0,0.0,0.0,0.0,0.0,0.0,0.0,0.0,0.0,0.0,-3.7076,-3.7446,-3.7677,-3.7677,-3.7677,-3.7677,-3.7677,-3.7677,-3.78,-3.8077,-3.8092,-3.8263,-3.8639,-3.8603,-3.8575,-3.856,-3.8511,-3.8444,-3.8318,-3.8318,-3.8555,-3.8934,-3.8934,-3.876,-3.854,-3.9188,-3.9503,-3.9676,-4.0082,-4.0405,-4.068,-4.0758,-4.0765,-4.0662,-4.0524,-4.0489,-4.0489,-4.0489,-4.0489,-4.0489,-4.0489,-4.0489,-4.0489,-4.0489,-4.0489,-4.0489,-4.0489,-4.0489,-4.0489,-4.0489,-4.0489,-4.0489,-4.0489,-4.0489,-4.0489,-4.0489,-4.0489,-4.0489,-4.0489,-4.0489,-4.0597,-4.094,-4.1694,-4.214,-4.2032,-4.2953,-4.3341,-4.2756,-4.2887,-4.3005,-4.3043,-4.2965,-4.2925,-4.2925,-4.2925,-4.2312,-4.0995,-4.0965,-4.0457,-3.9388,-3.9388,-3.9388,-3.9388,-3.9388,-3.9388,-2.0839,-2.1126,-2.1704,0.0,0.0,0.0,-2.4866,-2.4758,0.0,0.0,0.0,0.0,0.0,0.0,0.0,0.0,0.0,0.0,0.0,0.0,0.0,0.0,0.0,0.0,0.0,-3.6261,-3.6261,-3.6261,-3.6338,-3.6415,-3.6492,-3.6492,-3.6492,-3.6492,-3.6492,-3.6784,-3.7384,-3.7461,-3.7896,-3.8677,-3.8293,-3.8498,-3.9157,-3.8762,-3.8902,-3.9392,-3.9471,-3.955,-3.9629,-3.9629,-3.9187,-3.854,-3.9015,-3.8827,-3.8434,-3.9466,-3.9786,-3.9761,-4.0408,-4.0554,-4.0397,-4.0474,-4.0489,-4.0489,-4.0489,-4.0489,-4.0489,-4.0489,-4.0489,-4.0489,-4.0489,-4.0489,-4.0489,-4.0489,-4.0489,-4.0489,-4.0489,-4.0489,-4.0489,-4.0489,-4.0489,-4.0489,-4.0489,-4.0489,-4.0489,-4.0489,-4.0489,-4.072,-4.1401,-4.1555,-4.1801,-4.2289,-4.2473,-4.2462,-4.2135,-4.2012,-4.2145,-4.2506,-4.2383,-4.2291,-4.2291,-4.2291,-4.1707,-4.0427,-4.0337,-4.0008,-3.9388,-3.9388,-3.9388,-3.9388,-3.9388,-3.9388,-2.2387,-2.2891,-2.3225,-2.1196,0.0,0.0,0.0,-2.1689,0.0,0.0,0.0,0.0,0.0,0.0,0.0,0.0,0.0,0.0,0.0,0.0,0.0,0.0,0.0,0.0,0.0,-3.489,-3.489,-3.489,-3.5398,-3.5953,-3.6461,-3.6492,-3.6492,-3.6492,-3.6492,-3.6553,-3.6692,-3.723,-3.7633,-3.7916,-3.851,-3.8685,-3.8434,-3.9014,-3.9092,-3.8744,-3.9281,-3.9835,-4.0388,-4.0388,-3.9645,-3.8523,-3.8635,-3.8511,-3.8309,-3.8388,-3.8666,-3.9063,-3.9578,-3.9708,-3.9767,-4.032,-4.0489,-4.0489,-4.0489,-4.0489,-4.0489,-4.0489,-4.0489,-4.0489,-4.0489,-4.0489,-4.0489,-4.0489,-4.0489,-4.0489,-4.0489,-4.0489,-4.0489,-4.0489,-4.0489,-4.0489,-4.0489,-4.0489,-4.0489,-4.0489,-4.0489,-4.0551,-4.0689,-4.1232,-4.1361,-4.0826,-4.1709,-4.1992,-4.11,-4.1465,-4.1731,-4.164,-4.1617,-4.1617,-4.1617,-4.1617,-4.1205,-4.0412,-3.9888,-3.9544,-3.9388,-3.9388,-3.9388,-3.9388,-3.9388,-3.9388,-2.3747,-2.3835,-2.3979,-2.2644,0.0,0.0,0.0,0.0,0.0,0.0,0.0,0.0,0.0,0.0,0.0,0.0,0.0,0.0,0.0,0.0,0.0,0.0,0.0,0.0,0.0,-3.4289,-3.4505,-3.4505,-3.4813,-3.5152,-3.546,-3.5814,-3.5984,-3.5984,-3.6322,-3.6492,-3.6492,-3.683,-3.7031,-3.7125,-3.7717,-3.8029,-3.8106,-3.8716,-3.9202,-3.9582,-3.9898,-4.0451,-4.1099,-4.0985,-4.0338,-3.9361,-3.9015,-3.8591,-3.8138,-3.7904,-3.7979,-3.8237,-3.8818,-3.9016,-3.9123,-3.9767,-3.9982,-4.0043,-4.0397,-4.0489,-4.0489,-4.0489,-4.0489,-4.0489,-4.0489,-4.0489,-4.0489,-4.0489,-4.0489,-4.0489,-4.0489,-4.0489,-4.0489,-4.0489,-4.0489,-4.0489,-4.0489,-4.0489,-4.0489,-4.0489,-4.0489,-4.0489,-4.0489,-4.0797,-4.087,-4.0342,-4.0908,-4.099,-4.0245,-4.0532,-4.0753,-4.0913,-4.0891,-4.0891,-4.0891,-4.0891,-4.0591,-3.9918,-3.9553,-3.9388,-3.9388,-3.9388,-3.9388,-3.9388,-3.9388,-3.9388,0.0,0.0,0.0,0.0,0.0,-2.3994,0.0,0.0,0.0,-2.4256,0.0,0.0,0.0,0.0,0.0,0.0,0.0,0.0,0.0,0.0,0.0,0.0,0.0,0.0,0.0,-3.3044,-3.355,-3.4058,-3.3873,-3.395,-3.4474,-3.5013,-3.5321,-3.5321,-3.5953,-3.6307,-3.6307,-3.643,-3.6523,-3.6554,-3.6847,-3.728,-3.7826,-3.8291,-3.9108,-4.0118,-4.0402,-4.0828,-4.1316,-4.1276,-4.0927,-4.038,-3.9548,-3.8717,-3.7904,-3.7607,-3.7419,-3.74,-3.8077,-3.8323,-3.8431,-3.9108,-3.929,-3.9398,-3.9936,-4.0197,-4.0305,-4.0305,-4.0397,-4.0489,-4.0489,-4.0489,-4.0489,-4.0489,-4.0489,-4.0489,-4.0489,-4.0489,-4.0489,-4.0489,-4.0489,-4.0489,-4.0489,-4.0489,-4.0489,-4.0489,-4.0489,-4.0489,-4.0489,-4.0489,-4.0436,-4.0277,-4.0242,-4.0101,-3.9696,-3.9661,-3.9815,-4.0172,-4.0217,-4.0217,-4.0217,-4.0217,-3.9963,-3.9388,-3.9388,-3.9388,-3.9388,-3.9388,-3.9388,-3.9388,-3.9388,-3.9388,0.0,0.0,0.0,0.0,-2.5179,0.0,0.0,0.0,-2.2902,-2.1951,0.0,0.0,0.0,0.0,0.0,0.0,0.0,0.0,0.0,0.0,0.0,0.0,0.0,0.0,0.0,0.0,-3.0074,-3.2444,-3.1551,-3.1936,-3.4366,-3.4582,-3.4613,-3.4613,-3.5275,-3.5629,-3.5629,-3.6184,-3.6554,-3.6693,-3.6908,-3.7046,-3.714,-3.8087,-3.8433,-3.8388,-3.9737,-4.0333,-4.031,-4.0886,-4.1104,-4.0886,-3.9559,-3.8495,-3.7669,-3.7049,-3.6724,-3.6707,-3.7384,-3.7615,-3.7723,-3.8415,-3.8616,-3.8646,-3.8708,-3.9154,-3.9598,-3.9598,-4.0028,-4.0489,-4.0489,-4.0489,-4.0489,-4.0489,-4.0489,-4.0489,-4.0489,-4.0489,-4.0489,-4.0489,-4.0489,-4.0489,-4.0489,-4.0489,-4.0489,-4.0489,-4.0489,-4.0489,-4.0489,-4.0489,-4.0366,-4.0066,-4.0031,-3.9854,-3.9445,-3.9409,-3.9454,-3.9493,-3.9493,-3.9493,-3.9493,-3.9493,-3.9499,-3.9388,-3.9388,-3.9388,-3.9388,-3.9388,-3.9388,-3.9388,-3.9388,-3.9388,0.0,0.0,0.0,0.0,0.0,0.0,-2.2675,0.0,-2.2671,0.0,0.0,0.0,0.0,0.0,0.0,0.0,0.0,0.0,0.0,0.0,0.0,0.0,0.0,0.0,0.0,0.0,0.0,0.0,0.0,-3.0089,-3.2028,-3.2844,-3.3473,-3.3844,-3.4566,-3.5121,-3.5506,-3.5799,-3.6184,-3.6693,-3.6908,-3.703,-3.7135,-3.7675,-3.8067,-3.8308,-3.8905,-3.9313,-3.9672,-4.0146,-4.036,-4.0264,-3.959,-3.8907,-3.8211,-3.7126,-3.6616,-3.6538,-3.6815,-3.6923,-3.703,-3.7707,-3.8185,-3.8508,-3.8508,-3.8985,-3.949,-3.949,-3.9967,-4.0489,-4.0489,-4.0489,-4.0489,-4.0489,-4.0489,-4.0489,-4.0489,-4.0489,-4.0489,-4.0489,-4.0489,-4.0489,-4.0489,-4.0489,-4.0489,-4.0489,-4.0489,-4.0489,-4.0489,-4.0489,-4.0366,-4.0046,-4.0011,-3.9818,-3.9424,-3.9388,-3.9388,-3.9388,-3.9388,-3.9388,-3.9388,-3.9388,-3.9388,-3.9388,-3.9388,-3.9388,-3.9388,-3.9388,-3.9388,-3.9388,-3.9388,-3.9388,-2.7327,0.0,0.0,0.0,0.0,0.0,0.0,0.0,0.0,0.0,0.0,0.0,0.0,0.0,0.0,0.0,0.0,0.0,0.0,0.0,0.0,0.0,0.0,0.0,0.0,0.0,0.0,0.0,0.0,0.0,-3.0017,-3.1228,-3.2167,-3.2829,-3.375,-3.4536,-3.5229,-3.5429,-3.5875,-3.6662,-3.6831,-3.6953,-3.7013,-3.7255,-3.7568,-3.7964,-3.809,-3.8388,-3.8841,-3.9284,-3.9555,-3.9694,-3.9342,-3.9005,-3.8549,-3.7374,-3.6739,-3.6492,-3.6492,-3.6492,-3.6569,-3.7061,-3.7554,-3.7954,-3.7954,-3.8431,-3.9,-3.9152,-3.9705,-4.0259,-4.0443,-4.0489,-4.0489,-4.0489,-4.0489,-4.0489,-4.0489,-4.0489,-4.0489,-4.0489,-4.0489,-4.0489,-4.0489,-4.0489,-4.0489,-4.0489,-4.0489,-4.0489,-4.0489,-4.0489,-4.0401,-4.0101,-4.0066,-3.9925,-3.9517,-3.9481,-3.9445,-3.9388,-3.9388,-3.9388,-3.9388,-3.9388,-3.9388,-3.9388,-3.9388,-3.9388,-3.9388,-3.9388,-3.9388,-3.9388,-3.9388,-3.9388,0.0,0.0,0.0,-2.5333,0.0,0.0,0.0,0.0,-2.4071,0.0,0.0,0.0,0.0,0.0,0.0,0.0,0.0,0.0,0.0,0.0,0.0,0.0,0.0,0.0,0.0,0.0,0.0,0.0,0.0,0.0,-2.9248,-3.0079,-3.0782,-3.1428,-3.2752,-3.3783,-3.452,-3.5183,-3.583,-3.6523,-3.6631,-3.6631,-3.6523,-3.6877,-3.6862,-3.6615,-3.7389,-3.7667,-3.7616,-3.8262,-3.8923,-3.9447,-3.88,-3.8523,-3.8431,-3.7723,-3.7046,-3.6492,-3.6492,-3.6492,-3.6492,-3.6522,-3.6538,-3.6553,-3.6553,-3.703,-3.7707,-3.8354,-3.9031,-3.9674,-4.032,-4.0489,-4.0489,-4.0489,-4.0489,-4.0489,-4.0489,-4.0489,-4.0489,-4.0489,-4.0489,-4.0489,-4.0489,-4.0489,-4.0489,-4.0489,-4.0489,-4.0489,-4.0489,-4.0489,-4.047,-4.0312,-4.0312,-4.0121,-3.9717,-3.9681,-3.9625,-3.9409,-3.9388,-3.9388,-3.9388,-3.9388,-3.9388,-3.9388,-3.9388,-3.9388,-3.9388,-3.9388,-3.9388,-3.9388,-3.9388,-3.9388,0.0,0.0,-3.0449,-2.7272,0.0,0.0,0.0,0.0,0.0,0.0,0.0,0.0,0.0,0.0,0.0,0.0,0.0,0.0,0.0,0.0,0.0,0.0,0.0,0.0,0.0,0.0,0.0,0.0,0.0,0.0,0.0,-2.8719,-2.9797,-3.1362,-3.1828,-3.2613,-3.3752,-3.3998,-3.4734,-3.5966,-3.6012,-3.632,-3.6847,-3.6938,-3.6938,-3.6831,-3.6971,-3.7002,-3.7033,-3.7586,-3.7984,-3.8246,-3.8908,-3.8908,-3.8477,-3.8262,-3.7461,-3.6492,-3.6492,-3.6492,-3.6492,-3.6492,-3.6492,-3.6492,-3.6492,-3.6969,-3.7554,-3.7769,-3.8646,-3.9536,-3.9767,-4.0151,-4.0489,-4.0489,-4.0489,-4.0489,-4.0489,-4.0489,-4.0489,-4.0489,-4.0489,-4.0489,-4.0489,-4.0489,-4.0489,-4.0489,-4.0489,-4.0489,-4.0489,-4.0489,-4.047,-4.0296,-4.0312,-4.0207,-3.9925,-3.9768,-3.961,-3.9409,-3.9388,-3.9388,-3.9388,-3.9388,-3.9388,-3.9388,-3.9388,-3.9388,-3.9388,-3.9388,-3.9388,-3.9388,-3.9388,-3.9388,-3.0214,-3.0799,0.0,-2.8566,-2.7922,0.0,-2.46,0.0,0.0,0.0,0.0,0.0,0.0,0.0,0.0,0.0,0.0,0.0,0.0,0.0,0.0,0.0,0.0,0.0,0.0,0.0,-2.284,-2.3594,0.0,0.0,0.0,0.0,-2.8858,-3.0628,-3.1136,-3.2028,-3.3398,-3.3398,-3.4041,-3.5285,-3.5503,-3.5919,-3.6459,-3.6707,-3.6816,-3.6816,-3.6677,-3.6631,-3.6662,-3.6985,-3.7277,-3.7584,-3.8462,-3.8677,-3.8539,-3.8785,-3.8169,-3.7215,-3.7215,-3.7046,-3.6846,-3.6846,-3.6692,-3.6492,-3.6492,-3.6799,-3.7184,-3.743,-3.8123,-3.8908,-3.94,-3.9813,-4.0197,-4.0428,-4.0489,-4.0489,-4.0489,-4.0489,-4.0489,-4.0489,-4.0489,-4.0489,-4.0489,-4.0489,-4.0489,-4.0489,-4.0489,-4.0489,-4.0489,-4.0489,-4.047,-4.0366,-4.0366,-4.0261,-4.0031,-3.9803,-3.961,-3.9409,-3.9388,-3.9388,-3.9388,-3.9388,-3.9388,-3.9388,-3.9388,-3.9388,-3.9388,-3.9388,-3.9388,-3.9388,-3.9388,-3.9388]},{"header":{"parameterUnit":"m.s-1","parameterCategory":1,"la1":30.6,"la2":29.2853,"lo1":-89.7004,"lo2":-87.6739,"dy":0.0162,"dx":0.0183,"nx":112,"ny":82,"refTime":"2026-04-27T12:00:00:Z","depth":0,"parameterNumber":3,"parameterNumberName":"V-component_of_WINDS"},"data":[0.0,0.0,0.0,0.0,0.0,0.0,0.0,0.0,0.0,0.0,0.0,0.0,0.0,0.0,0.0,0.0,0.0,0.0,0.0,0.0,0.0,0.0,0.0,0.0,0.0,0.0,0.0,0.0,0.0,0.0,0.0,0.0,0.0,0.0,0.0,0.0,0.0,0.0,0.0,0.0,0.0,0.0,0.0,0.0,0.0,0.0,0.0,0.0,0.0,0.0,0.0,0.0,0.0,0.0,0.0,0.0,0.0,0.0,0.0,0.0,0.0,0.0,0.0,0.0,0.0,0.0,0.0,0.0,0.0,0.0,0.0,0.0,0.0,0.0,0.0,0.0,0.0,0.0,0.0,0.0,0.0,0.0,0.0,0.0,0.0,0.0,0.0,0.0,0.0,0.0,0.0,-3.1757,-3.5012,-3.6768,-3.6286,-3.655,-3.4895,-3.0594,0.0,0.0,0.0,0.0,0.0,0.0,0.0,0.0,0.0,0.0,0.0,0.0,0.0,0.0,0.0,0.0,0.0,0.0,0.0,0.0,0.0,0.0,0.0,0.0,0.0,0.0,0.0,0.0,0.0,0.0,0.0,0.0,0.0,0.0,0.0,0.0,0.0,0.0,0.0,0.0,0.0,0.0,0.0,0.0,0.0,0.0,0.0,0.0,0.0,0.0,0.0,0.0,0.0,0.0,0.0,0.0,0.0,0.0,0.0,0.0,0.0,0.0,0.0,0.0,0.0,0.0,0.0,0.0,0.0,0.0,0.0,0.0,0.0,0.0,0.0,0.0,0.0,0.0,0.0,0.0,0.0,0.0,0.0,0.0,0.0,0.0,0.0,0.0,0.0,0.0,0.0,0.0,0.0,0.0,0.0,0.0,0.0,0.0,0.0,0.0,0.0,0.0,0.0,0.0,-2.8621,-3.4072,-3.6075,-3.695,-3.6852,-3.5996,-3.4292,-3.1472,0.0,0.0,0.0,0.0,0.0,0.0,0.0,0.0,0.0,0.0,0.0,0.0,0.0,0.0,0.0,0.0,0.0,0.0,0.0,0.0,0.0,0.0,0.0,0.0,0.0,0.0,0.0,0.0,0.0,0.0,0.0,0.0,0.0,0.0,0.0,0.0,0.0,0.0,0.0,0.0,0.0,0.0,0.0,0.0,0.0,0.0,0.0,0.0,0.0,0.0,0.0,0.0,0.0,0.0,0.0,0.0,0.0,0.0,0.0,0.0,0.0,0.0,0.0,0.0,0.0,0.0,0.0,0.0,0.0,0.0,0.0,0.0,0.0,0.0,0.0,0.0,0.0,0.0,0.0,0.0,0.0,0.0,0.0,0.0,0.0,0.0,0.0,0.0,0.0,0.0,0.0,0.0,0.0,0.0,0.0,0.0,0.0,0.0,0.0,0.0,0.0,0.0,0.0,-2.8471,-3.0676,-3.4739,-3.6286,-3.6852,-3.6553,-3.5363,-3.3607,-3.112,-2.8125,0.0,0.0,0.0,0.0,0.0,0.0,0.0,0.0,0.0,0.0,0.0,0.0,0.0,0.0,0.0,0.0,0.0,0.0,0.0,0.0,0.0,0.0,0.0,0.0,0.0,0.0,0.0,0.0,0.0,0.0,0.0,0.0,0.0,0.0,0.0,0.0,0.0,0.0,0.0,0.0,0.0,0.0,0.0,0.0,0.0,0.0,0.0,0.0,0.0,0.0,0.0,0.0,0.0,0.0,0.0,0.0,0.0,0.0,0.0,0.0,0.0,0.0,0.0,0.0,0.0,0.0,0.0,0.0,0.0,0.0,0.0,0.0,0.0,0.0,0.0,0.0,0.0,0.0,0.0,0.0,0.0,0.0,0.0,0.0,0.0,0.0,0.0,0.0,0.0,0.0,0.0,0.0,0.0,0.0,0.0,0.0,0.0,0.0,0.0,0.0,0.0,0.0,-3.1106,-3.2918,-3.4992,-3.63,-3.6778,-3.6159,-3.4674,-3.2771,-3.0427,-2.668,0.0,0.0,0.0,0.0,0.0,0.0,0.0,0.0,0.0,0.0,0.0,0.0,0.0,0.0,0.0,0.0,0.0,0.0,0.0,0.0,0.0,0.0,0.0,0.0,0.0,0.0,0.0,0.0,0.0,0.0,0.0,0.0,0.0,0.0,0.0,0.0,0.0,0.0,0.0,0.0,0.0,0.0,0.0,0.0,0.0,0.0,0.0,0.0,0.0,0.0,0.0,0.0,0.0,0.0,0.0,0.0,0.0,0.0,0.0,0.0,0.0,0.0,0.0,0.0,0.0,0.0,0.0,0.0,0.0,0.0,0.0,0.0,0.0,0.0,0.0,0.0,0.0,0.0,0.0,0.0,0.0,0.0,0.0,0.0,0.0,0.0,0.0,0.0,0.0,0.0,0.0,0.0,0.0,0.0,0.0,0.0,0.0,0.0,0.0,0.0,0.0,0.0,-3.1115,-3.4301,-3.5124,-3.6276,-3.6778,-3.6159,-3.3902,-3.1724,-2.9785,-2.5626,0.0,0.0,0.0,0.0,0.0,0.0,0.0,0.0,0.0,0.0,0.0,0.0,0.0,0.0,0.0,0.0,0.0,0.0,0.0,0.0,0.0,0.0,0.0,0.0,0.0,0.0,0.0,0.0,0.0,0.0,0.0,0.0,0.0,0.0,0.0,0.0,0.0,0.0,0.0,0.0,0.0,0.0,0.0,0.0,0.0,0.0,0.0,0.0,0.0,0.0,0.0,0.0,0.0,0.0,0.0,0.0,0.0,0.0,0.0,0.0,0.0,0.0,0.0,0.0,0.0,0.0,0.0,0.0,0.0,0.0,0.0,0.0,0.0,0.0,0.0,0.0,0.0,0.0,0.0,0.0,0.0,0.0,0.0,0.0,0.0,0.0,0.0,0.0,0.0,0.0,0.0,0.0,0.0,0.0,0.0,0.0,0.0,0.0,0.0,0.0,0.0,0.0,-3.0403,-3.3199,0.0,-3.5949,-3.6202,-3.5583,-3.3944,-3.185,-2.9195,0.0,0.0,0.0,0.0,0.0,0.0,0.0,0.0,0.0,0.0,0.0,0.0,0.0,0.0,0.0,0.0,0.0,0.0,0.0,0.0,0.0,0.0,0.0,0.0,0.0,0.0,0.0,0.0,0.0,0.0,0.0,0.0,0.0,0.0,0.0,0.0,0.0,0.0,0.0,0.0,0.0,0.0,0.0,0.0,0.0,0.0,0.0,0.0,0.0,0.0,0.0,0.0,0.0,0.0,0.0,0.0,0.0,0.0,0.0,0.0,0.0,0.0,0.0,0.0,0.0,0.0,0.0,0.0,0.0,0.0,0.0,0.0,0.0,0.0,0.0,0.0,0.0,0.0,0.0,0.0,0.0,0.0,0.0,0.0,0.0,0.0,0.0,0.0,0.0,0.0,0.0,0.0,0.0,0.0,0.0,0.0,0.0,0.0,0.0,0.0,0.0,0.0,-2.7369,-3.0291,-3.2862,0.0,-3.5738,-3.5864,-3.5245,-3.348,-3.119,-2.8282,0.0,0.0,0.0,0.0,0.0,0.0,0.0,0.0,0.0,0.0,0.0,0.0,0.0,0.0,0.0,0.0,0.0,0.0,0.0,0.0,0.0,0.0,0.0,0.0,0.0,0.0,0.0,0.0,0.0,0.0,0.0,0.0,0.0,0.0,0.0,0.0,0.0,0.0,0.0,0.0,0.0,0.0,0.0,0.0,0.0,0.0,0.0,0.0,0.0,0.0,0.0,0.0,0.0,0.0,0.0,0.0,0.0,0.0,0.0,0.0,0.0,0.0,0.0,0.0,0.0,0.0,0.0,0.0,0.0,0.0,0.0,0.0,0.0,0.0,0.0,0.0,0.0,0.0,0.0,0.0,0.0,0.0,0.0,0.0,0.0,0.0,0.0,0.0,0.0,0.0,0.0,0.0,0.0,0.0,0.0,0.0,0.0,0.0,0.0,0.0,0.0,0.0,-2.7482,-3.1036,-3.3803,-3.5062,-3.5723,-3.585,-3.5245,-3.2314,-2.9445,0.0,0.0,0.0,0.0,0.0,0.0,0.0,0.0,0.0,0.0,0.0,0.0,0.0,0.0,0.0,0.0,0.0,0.0,0.0,0.0,0.0,0.0,0.0,0.0,0.0,0.0,0.0,0.0,0.0,0.0,0.0,0.0,0.0,0.0,0.0,0.0,0.0,0.0,0.0,0.0,0.0,0.0,0.0,0.0,0.0,0.0,0.0,0.0,0.0,0.0,0.0,0.0,0.0,0.0,0.0,0.0,0.0,0.0,0.0,0.0,0.0,0.0,0.0,0.0,0.0,0.0,0.0,0.0,0.0,0.0,0.0,0.0,0.0,0.0,0.0,0.0,0.0,0.0,0.0,0.0,0.0,0.0,0.0,0.0,0.0,0.0,0.0,0.0,0.0,0.0,0.0,0.0,0.0,0.0,0.0,0.0,0.0,0.0,0.0,0.0,0.0,0.0,0.0,-2.7538,-3.1401,-3.4267,-3.5105,-3.5358,-3.5386,-3.5217,-3.3129,-3.06,-2.7707,0.0,0.0,0.0,0.0,0.0,0.0,0.0,0.0,0.0,0.0,0.0,0.0,0.0,0.0,0.0,0.0,0.0,0.0,0.0,0.0,0.0,0.0,0.0,0.0,0.0,0.0,0.0,0.0,0.0,0.0,0.0,0.0,0.0,0.0,0.0,0.0,0.0,0.0,0.0,0.0,0.0,0.0,0.0,0.0,0.0,0.0,0.0,0.0,0.0,0.0,0.0,0.0,0.0,0.0,0.0,0.0,0.0,0.0,0.0,0.0,0.0,0.0,0.0,0.0,0.0,0.0,0.0,0.0,0.0,0.0,0.0,0.0,0.0,0.0,0.0,0.0,0.0,0.0,0.0,0.0,0.0,0.0,0.0,0.0,0.0,0.0,0.0,0.0,0.0,0.0,0.0,0.0,0.0,0.0,0.0,0.0,0.0,0.0,0.0,0.0,0.0,0.0,-2.7538,-3.1134,-3.3831,-3.4688,-3.4787,-3.4787,-3.4787,-3.3101,-3.0825,-2.7988,0.0,0.0,0.0,0.0,0.0,0.0,0.0,0.0,0.0,0.0,0.0,0.0,0.0,0.0,0.0,0.0,0.0,0.0,0.0,0.0,0.0,0.0,0.0,0.0,0.0,0.0,0.0,0.0,0.0,0.0,0.0,0.0,0.0,0.0,0.0,0.0,0.0,0.0,0.0,0.0,0.0,0.0,0.0,0.0,0.0,0.0,0.0,0.0,0.0,0.0,0.0,0.0,0.0,0.0,0.0,0.0,0.0,0.0,0.0,0.0,0.0,0.0,0.0,0.0,0.0,0.0,0.0,0.0,0.0,0.0,0.0,0.0,0.0,0.0,0.0,0.0,0.0,0.0,0.0,0.0,0.0,0.0,0.0,0.0,0.0,0.0,0.0,0.0,0.0,0.0,0.0,0.0,0.0,0.0,0.0,0.0,0.0,0.0,0.0,0.0,0.0,0.0,-2.7496,-3.053,-3.2932,-3.4076,-3.4203,-3.4203,-3.4203,-3.2553,-3.0474,-2.8129,0.0,0.0,0.0,0.0,0.0,0.0,0.0,0.0,0.0,0.0,0.0,0.0,0.0,0.0,0.0,0.0,0.0,0.0,0.0,0.0,0.0,0.0,0.0,0.0,0.0,0.0,0.0,0.0,0.0,0.0,0.0,0.0,0.0,0.0,0.0,0.0,0.0,0.0,0.0,0.0,0.0,0.0,0.0,0.0,0.0,0.0,0.0,0.0,0.0,0.0,0.0,0.0,0.0,0.0,0.0,0.0,0.0,0.0,0.0,0.0,-2.5858,0.0,0.0,0.0,0.0,0.0,0.0,0.0,0.0,0.0,0.0,0.0,0.0,0.0,0.0,0.0,0.0,0.0,0.0,0.0,0.0,0.0,0.0,0.0,0.0,0.0,0.0,0.0,0.0,0.0,0.0,0.0,0.0,0.0,0.0,0.0,0.0,0.0,0.0,0.0,0.0,0.0,-2.7552,-3.0909,-3.3375,-3.4119,-3.4203,-3.4203,-3.4203,-3.2553,-3.0839,-2.9307,-2.5864,0.0,0.0,0.0,0.0,0.0,0.0,0.0,0.0,0.0,0.0,0.0,0.0,0.0,0.0,0.0,0.0,0.0,0.0,0.0,0.0,0.0,0.0,0.0,0.0,0.0,0.0,0.0,0.0,0.0,0.0,0.0,0.0,0.0,0.0,0.0,0.0,0.0,0.0,0.0,0.0,0.0,0.0,0.0,0.0,0.0,0.0,0.0,0.0,0.0,0.0,0.0,0.0,0.0,0.0,0.0,0.0,0.0,0.0,0.0,0.0,-2.766,0.0,0.0,0.0,0.0,0.0,0.0,0.0,0.0,0.0,0.0,0.0,0.0,0.0,0.0,0.0,0.0,0.0,0.0,0.0,0.0,0.0,0.0,0.0,0.0,0.0,0.0,0.0,0.0,0.0,0.0,0.0,0.0,0.0,0.0,0.0,0.0,0.0,0.0,0.0,0.0,-2.7932,-3.0684,-3.2792,-3.3655,-3.3768,-3.3768,-3.3768,-3.237,-3.1078,-3.0076,-2.6835,0.0,0.0,0.0,0.0,0.0,0.0,0.0,0.0,0.0,0.0,0.0,0.0,0.0,0.0,0.0,0.0,0.0,0.0,0.0,0.0,0.0,0.0,0.0,0.0,0.0,0.0,0.0,0.0,0.0,0.0,0.0,0.0,0.0,0.0,0.0,0.0,0.0,0.0,0.0,0.0,0.0,0.0,0.0,0.0,0.0,0.0,0.0,0.0,0.0,0.0,0.0,0.0,0.0,-3.2298,-3.3296,-3.3985,-3.4636,-3.5011,-3.5012,-3.262,-3.1784,-3.1928,-2.9539,0.0,0.0,0.0,0.0,0.0,0.0,0.0,0.0,0.0,0.0,0.0,0.0,0.0,0.0,0.0,0.0,0.0,0.0,0.0,0.0,0.0,0.0,0.0,0.0,-3.1893,-3.1302,-2.6708,0.0,0.0,0.0,0.0,0.0,0.0,0.0,0.0,0.0,0.0,0.0,-2.8464,-3.0488,-3.2075,-3.3164,-3.329,-3.329,-3.329,-3.23,-3.1373,-3.0708,-2.7987,-2.5823,0.0,0.0,0.0,0.0,0.0,0.0,0.0,0.0,0.0,0.0,0.0,0.0,0.0,0.0,0.0,0.0,0.0,0.0,0.0,0.0,0.0,0.0,0.0,0.0,0.0,0.0,0.0,0.0,0.0,0.0,0.0,0.0,-2.2325,-2.1914,0.0,0.0,0.0,0.0,0.0,0.0,0.0,0.0,0.0,0.0,0.0,0.0,0.0,-3.0545,-3.1549,-3.359,-3.4462,-3.413,-3.6438,-3.7206,-3.6616,-3.7485,-3.7976,-3.8122,-3.7743,0.0,-3.3326,-3.2947,0.0,0.0,0.0,0.0,0.0,0.0,0.0,0.0,0.0,0.0,0.0,0.0,0.0,0.0,0.0,0.0,0.0,0.0,0.0,0.0,0.0,0.0,-3.2855,-3.3543,-3.3431,-3.2968,0.0,-2.9195,-2.6174,-2.4894,-2.3319,0.0,0.0,0.0,0.0,0.0,0.0,0.0,-2.9153,-3.112,-3.2553,-3.322,-3.329,-3.329,-3.329,-3.2679,-3.2019,-3.1401,-2.9448,-2.7762,-2.6497,-2.4137,0.0,0.0,0.0,0.0,0.0,0.0,0.0,0.0,0.0,0.0,0.0,0.0,0.0,0.0,0.0,0.0,0.0,0.0,0.0,0.0,0.0,0.0,0.0,0.0,0.0,0.0,0.0,0.0,0.0,-2.2494,-2.3132,-2.3243,-2.3791,-2.3602,0.0,0.0,0.0,0.0,0.0,0.0,0.0,0.0,0.0,-3.1662,-3.2503,-3.3596,-3.4989,-3.6483,-3.7213,-3.7253,-3.8793,-3.9297,-3.8994,-3.9334,-3.9535,-3.9625,-4.016,-3.9156,-3.7027,-3.5254,-3.36,-3.198,0.0,0.0,0.0,0.0,-3.0019,-3.014,-3.1731,-3.1888,-3.1274,-3.0555,0.0,0.0,0.0,0.0,0.0,0.0,0.0,0.0,0.0,0.0,-3.4034,-3.504,-3.5321,-3.5278,-3.4941,-3.3087,-3.0825,0.0,-2.6877,-2.5147,-2.2883,0.0,0.0,0.0,0.0,-2.772,-2.9855,-3.1457,-3.2637,-3.322,-3.329,-3.329,-3.329,-3.244,-3.178,-3.1513,-2.9729,-2.8436,-2.7888,-2.5809,-2.412,0.0,0.0,0.0,0.0,0.0,0.0,0.0,0.0,0.0,0.0,0.0,0.0,0.0,0.0,0.0,0.0,0.0,0.0,0.0,0.0,0.0,0.0,0.0,0.0,0.0,0.0,0.0,0.0,-2.3955,-2.4324,-2.4782,-2.605,-2.6113,0.0,0.0,0.0,0.0,0.0,0.0,-3.0557,-3.1424,-3.2817,-3.4889,-3.5491,-3.6508,-3.8027,-3.868,-3.9171,-3.9484,-4.0037,-4.0252,-4.0264,-4.0284,-4.0305,-4.036,-4.1022,-4.0814,-3.9849,-3.7542,-3.6083,-3.5103,-3.3247,-3.2437,-3.2398,-3.3247,-3.3391,-3.3364,-3.5142,-3.5338,-3.4672,-3.3664,-3.3146,-3.2468,-2.9872,0.0,0.0,0.0,0.0,-3.2946,-3.4169,-3.4792,-3.5447,-3.6567,-3.7046,-3.7091,-3.668,-3.5977,-3.4641,0.0,-3.0361,-2.8619,-2.6174,0.0,0.0,0.0,0.0,-2.9097,-3.075,-3.1963,-3.2806,-3.3234,-3.329,-3.329,-3.329,-3.2342,-3.1654,-3.1499,-3.0024,-2.9012,-2.8703,-2.72,-2.5822,-2.4585,0.0,0.0,0.0,0.0,0.0,0.0,0.0,0.0,0.0,0.0,0.0,0.0,0.0,0.0,0.0,0.0,0.0,0.0,0.0,0.0,0.0,0.0,0.0,0.0,0.0,0.0,0.0,0.0,0.0,-2.7118,-2.9038,0.0,0.0,0.0,0.0,-2.7984,-3.0432,-3.224,-3.2923,-3.4437,-3.6022,-3.7751,-3.8366,-3.9207,-4.0337,-4.029,-4.0303,-4.0328,-4.008,-3.9928,-3.9928,-4.0184,-4.0305,-4.0305,-4.036,-4.0335,-4.0247,-4.0194,-3.9194,-3.7665,-3.6972,-3.6345,-3.5848,-3.5913,-3.6279,-3.6763,-3.6881,-3.6528,-3.6188,-3.726,-3.6375,-3.4928,-3.481,-3.4193,0.0,0.0,-3.5223,-3.6159,-3.7358,-3.7695,-3.7892,-3.8607,-3.8285,-3.785,-3.7821,-3.6866,-3.563,0.0,-3.2595,-3.1106,-3.0301,0.0,-2.8661,-2.9237,-2.994,-3.082,-3.2145,-3.2876,-3.3262,-3.329,-3.329,-3.329,-3.329,-3.2736,-3.2117,-3.1527,-3.0825,-2.9912,-2.8745,-2.8072,-2.7116,-2.5823,-2.3438,0.0,0.0,0.0,0.0,0.0,0.0,0.0,0.0,0.0,0.0,0.0,0.0,0.0,0.0,0.0,0.0,0.0,0.0,0.0,0.0,0.0,0.0,0.0,0.0,0.0,0.0,0.0,0.0,-2.9792,-3.1587,0.0,-2.9829,-3.1474,-3.2277,-3.1373,-3.352,-3.5278,-3.6194,-3.7161,-3.8278,-3.9584,-4.0383,-4.0814,-4.0958,-4.1308,-4.1293,-4.0866,-4.0571,-4.0287,-4.0059,-3.9773,-3.9659,-3.9716,-4.0287,-4.0367,-4.005,-4.067,-3.9948,-3.8367,-3.7741,-3.7177,-3.6797,-3.7321,-3.7318,-3.7207,-3.8295,-3.8186,-3.7565,-3.7965,-3.6893,-3.5467,-3.5817,-3.5857,-3.59,-3.6332,-3.7149,-3.8016,-3.8452,-3.8524,-3.8621,-3.8846,-3.8369,-3.7906,-3.7906,-3.7245,-3.6529,-3.6093,-3.452,-3.2771,-3.1387,-3.1106,-3.074,-2.9757,-3.0825,-3.1893,-3.2342,-3.2946,-3.329,-3.329,-3.329,-3.3122,-3.2764,-3.2174,-3.1373,-3.0347,-2.9701,-2.897,-2.8157,-2.7495,-2.6947,-2.6497,-2.4498,-2.2484,0.0,0.0,0.0,0.0,0.0,0.0,0.0,0.0,0.0,0.0,0.0,0.0,0.0,0.0,0.0,0.0,0.0,0.0,0.0,0.0,0.0,0.0,0.0,0.0,0.0,0.0,-3.0733,-3.1825,-3.3759,-3.4349,-3.2679,-3.4361,-3.5253,-3.4525,-3.6392,-3.7801,-3.8542,-3.9295,-4.0176,-4.116,-4.1764,-4.1936,-4.1644,-4.1855,-4.158,-4.0803,-4.0397,-4.0106,-3.9884,-3.9473,-3.9308,-3.9356,-3.9931,-4.0023,-3.9682,-4.0311,-3.9818,-3.8653,-3.8502,-3.8221,-3.7993,-3.8353,-3.8341,-3.8216,-3.9146,-3.9264,-3.8912,-3.8361,-3.768,-3.7067,-3.7367,-3.7753,-3.8117,-3.8311,-3.8936,-3.9535,-3.9535,-3.9535,-3.9535,-3.9535,-3.8847,-3.8229,-3.8229,-3.7569,-3.6978,-3.6978,-3.5826,-3.4464,-3.3241,-3.3199,-3.2848,-3.1354,-3.2196,-3.2946,-3.2736,-3.3073,-3.329,-3.329,-3.329,-3.3073,-3.2455,-3.164,-3.0811,-2.9968,-2.8956,-2.8296,-2.8129,-2.7059,-2.6512,-2.6512,-2.4552,-2.2947,-2.1655,0.0,0.0,0.0,0.0,0.0,0.0,0.0,0.0,0.0,0.0,0.0,0.0,0.0,0.0,0.0,0.0,0.0,0.0,0.0,0.0,0.0,0.0,0.0,-2.9252,-3.1439,-3.3187,-3.3206,-3.5592,-3.6609,-3.5014,-3.6332,-3.7287,-3.7262,-3.8806,-3.9747,-3.9772,-4.0724,-4.1672,-4.2565,-4.2578,-4.2514,-4.2425,-4.1859,-4.1115,-4.0211,-3.9626,-3.932,-3.932,-3.9308,-3.9308,-3.9308,-3.9308,-3.9308,-3.9308,-3.9308,-3.9033,-3.8678,-3.9279,-3.9557,-3.9472,-3.8948,-3.9324,-3.9994,-3.9373,-3.9669,-4.008,-3.8674,-3.8864,-3.9682,-3.967,-3.9963,-4.0298,-4.0356,-4.0501,-4.0659,-4.0645,-4.0659,-4.0702,-4.0702,-3.976,-3.8902,-3.8902,-3.7918,-3.6978,-3.6978,-3.6539,-3.6131,-3.6103,-3.5625,-3.5006,-3.4287,-3.4203,0.0,-3.3361,-3.329,-3.329,-3.329,-3.329,-3.3073,-3.2455,-3.126,-3.0498,-3.0441,-2.8774,-2.8058,-2.8605,-2.6877,-2.5893,-2.5921,-2.3712,-2.2335,-2.1873,0.0,0.0,0.0,0.0,0.0,0.0,0.0,0.0,0.0,0.0,0.0,0.0,0.0,0.0,0.0,0.0,0.0,0.0,0.0,0.0,0.0,0.0,-3.3123,-3.3054,-3.373,-3.4713,-3.5918,-3.745,-3.8228,-3.7776,-3.8868,-3.9433,-3.9032,-4.0174,-4.1119,-4.179,-4.1442,-4.1632,-4.2513,-4.2121,-4.1757,-4.1422,-4.1468,-4.1188,-4.0641,-4.014,-3.9848,-3.9896,-3.9469,-3.9308,-3.9308,-3.9308,-3.9308,-3.9308,-3.9308,-3.9228,-3.9057,-3.8488,-3.807,-3.7727,-3.7822,-3.8425,-3.904,-3.8242,-3.8248,-3.8503,-3.8091,-3.7814,-3.7652,-3.8408,-3.8333,-3.8173,-3.885,-3.9206,-3.9441,-3.9577,-4.0025,-4.0515,-4.0659,-3.976,-3.8902,-3.8902,-3.7918,-3.6978,-3.6978,-3.6852,-3.6624,-3.6188,-3.5963,-3.5498,-3.4357,-3.4203,0.0,-3.3361,-3.329,-3.329,-3.329,-3.329,-3.3073,-3.2455,-3.1682,-3.0642,-2.9279,-2.831,-2.7679,-2.734,-2.6413,-2.5948,-2.6029,-2.4614,-2.366,0.0,0.0,0.0,0.0,0.0,0.0,0.0,0.0,0.0,0.0,0.0,0.0,0.0,0.0,0.0,0.0,0.0,0.0,0.0,0.0,0.0,0.0,-3.2241,-3.462,-3.5657,-3.5962,-3.6577,-3.7922,-3.8868,-3.955,-3.9892,-4.0384,-4.0673,-4.0741,-4.1178,-4.171,-4.22,-4.1527,-4.1557,-4.2368,-4.2095,-4.1772,-4.1495,-4.1662,-4.1397,-4.0812,-4.0295,-4.0114,-4.0103,-3.9538,-3.9308,-3.9308,-3.9308,-3.9308,-3.9308,-3.9308,-3.9308,0.0,0.0,0.0,0.0,0.0,-3.7832,-3.8202,-3.7672,-3.7851,-3.8184,-3.7694,-3.7302,-3.7157,-3.7693,-3.7505,-3.7183,-3.7874,-3.8251,-3.849,-3.8599,-3.8939,-3.9322,-3.9441,-3.8786,-3.8173,-3.8242,-3.7543,-3.6875,-3.6978,-3.6978,0.0,-3.6553,-3.6497,-3.6037,-3.4801,-3.4618,-3.4309,-3.3403,-3.329,-3.329,-3.329,-3.329,-3.3073,-3.2455,-3.1597,0.0,0.0,0.0,-2.7397,-2.6469,-2.5837,0.0,0.0,0.0,0.0,0.0,0.0,0.0,0.0,-2.3461,-2.3572,0.0,0.0,0.0,0.0,0.0,0.0,0.0,0.0,0.0,0.0,0.0,0.0,0.0,0.0,0.0,0.0,-3.3425,-3.5511,-3.7407,-3.8002,-3.8556,-3.927,-3.9855,-4.0581,-4.1337,-4.1231,-4.1459,-4.2234,-4.1986,-4.1792,-4.1848,0.0,0.0,0.0,0.0,-4.2076,-4.2147,-4.2159,-4.1686,-4.0892,-4.0387,-4.0172,-4.0103,-3.9538,-3.9308,-3.9308,-3.9308,-3.9308,-3.9308,-3.9308,-3.9239,-3.9044,-3.8137,-3.7712,-3.7618,-3.7437,-3.7352,-3.7352,-3.7352,0.0,0.0,-3.7268,-3.7112,-3.7294,-3.7338,-3.7061,-3.6875,-3.715,-3.7428,-3.7579,-3.7625,-3.7671,-3.7763,-3.7808,-3.7378,-3.7048,-3.7221,-3.6825,-3.6482,-3.6652,-3.6691,-3.6691,-3.6691,-3.6861,-3.661,-3.5372,-3.5189,-3.4753,-3.3445,-3.329,-3.329,-3.329,0.0,0.0,-3.2553,-3.1382,-3.0638,-3.0498,-2.8872,-2.7369,-2.616,-2.5682,-2.5707,-2.6296,-2.65,-2.718,-2.8411,-2.8582,-2.8391,-2.7855,-2.5531,-2.5338,0.0,0.0,0.0,0.0,0.0,0.0,0.0,0.0,0.0,0.0,0.0,0.0,0.0,0.0,0.0,-3.3275,-3.5267,-3.7092,-3.8631,-3.9501,-3.9845,-3.9645,-4.0517,-4.1209,-4.1376,-4.2104,-4.268,-4.2849,-4.2552,-4.2463,-4.2674,-4.1191,-4.0738,-4.1518,-4.0916,-4.0903,-4.1719,-4.1731,-4.1607,-4.142,0.0,0.0,-4.0103,-3.9538,-3.9308,-3.9308,-3.9308,-3.9308,-3.9308,-3.9308,-3.8814,-3.8057,-3.7862,-3.7288,-3.6596,-3.6553,-3.6526,-3.6526,-3.6526,-3.6634,-3.6731,-3.6518,-3.6349,-3.6306,-3.6729,-3.6244,0.0,-3.6125,-3.6332,-3.638,-3.6555,-3.701,-3.7507,-3.7763,-3.7054,-3.6318,-3.6362,-3.5524,-3.4774,-3.4802,-3.4802,-3.4802,-3.4802,-3.6016,-3.661,-3.5372,-3.5189,-3.4753,-3.3445,-3.329,-3.329,-3.329,-3.329,-3.3234,-3.3122,-3.2469,-3.1578,-3.0554,-2.9265,-2.8213,-2.7468,-2.7776,-2.7863,-2.7626,-2.7669,-2.7926,-2.8411,-2.844,-2.8727,-2.9204,-2.8231,-2.7679,0.0,0.0,0.0,0.0,0.0,0.0,0.0,0.0,0.0,0.0,0.0,-2.8321,-2.9972,0.0,-3.3238,-3.5509,-3.6746,-3.7998,-3.9563,-4.0142,-4.0379,-4.0293,-4.108,-4.1608,-4.1564,-4.2128,-4.252,-4.2509,-4.1945,-4.1651,-4.181,-4.075,-4.0431,-4.1051,-4.0918,-4.1179,-4.1948,-4.1696,-4.157,-4.157,-4.08,-4.0307,-4.0103,-3.9538,-3.9308,-3.9308,-3.9308,-3.9308,-3.9285,-3.9044,-3.8493,-3.7758,-3.7506,-3.6943,-3.632,-3.632,-3.632,-3.632,-3.632,-3.632,-3.632,-3.6483,-3.6256,-3.601,-3.6248,-3.5824,-3.5248,-3.5357,-3.5391,-3.544,-3.5523,-3.5798,-3.6118,-3.6273,-3.5755,-3.5245,-3.5321,-3.4727,-3.4165,-3.4264,-3.4306,-3.4306,-3.4306,-3.482,-3.4935,-3.4052,-3.3937,-3.3762,-3.3228,-3.3147,-3.3163,-3.3154,-3.3147,-3.3037,-3.2739,-3.2528,-3.2005,-3.1064,-3.0122,-2.9476,-2.9167,-2.8858,-2.886,-2.9245,-2.9025,-2.9348,-3.0189,-3.028,-3.0574,-3.1031,-3.0742,-3.0248,0.0,0.0,0.0,0.0,0.0,0.0,0.0,0.0,-2.6871,-2.8471,-2.9881,-3.1203,-3.2566,-3.3894,-3.5371,-3.726,-3.7918,-3.8689,-3.9956,-4.0268,-4.0365,-4.0465,-4.1145,-4.1555,-4.1468,-4.1739,-4.1947,-4.1975,-4.1182,-4.0675,-4.0675,-4.0303,-4.0295,-4.0812,-4.1306,-4.1776,-4.219,-4.1776,-4.1466,-4.1271,-4.0505,-4.0068,-3.9953,-3.9492,-3.9251,-3.917,-3.917,-3.9216,-3.9262,-3.878,-3.8275,-3.7735,-3.723,-3.6725,-3.632,-3.632,-3.632,-3.632,-3.632,-3.632,-3.632,-3.6538,-3.6379,-3.6109,-3.5998,-3.5654,-3.5292,-3.4906,-3.4775,-3.4775,-3.4775,-3.4775,-3.4775,-3.4775,-3.4443,-3.4168,-3.4293,-3.3941,-3.3602,-3.3775,-3.3804,-3.3804,-3.3804,-3.3251,-3.2806,-3.2776,-3.2708,-3.2718,-3.2869,-3.2887,-3.2927,-3.2915,-3.2927,-3.2761,-3.2268,-3.2186,-3.2004,-3.1629,-3.1031,-3.068,-3.068,-2.9757,-2.9701,-3.0666,-3.0334,-3.0733,-3.195,-3.208,-3.2256,-3.2463,-3.2611,-3.2353,-2.1704,-2.1488,-2.2468,-2.4596,-2.5644,-2.6949,0.0,0.0,-3.1451,-3.28,-3.4194,-3.5163,-3.5357,-3.609,-3.6927,-3.7723,-3.8749,-3.941,-3.9355,-3.9803,-3.9841,-3.9104,-4.0216,-4.0875,-4.057,-4.1083,-4.157,-4.1975,-4.1182,-4.0675,-4.0675,-4.0303,-4.0295,-4.0812,-4.1306,-4.1604,-4.1661,-4.1604,-4.1184,-4.0287,-4.0172,-3.9825,-3.9388,-3.9331,-3.9067,-3.8665,-3.8665,-3.8906,-3.9262,-3.878,-3.8275,-3.7735,-3.723,-3.6725,-3.632,-3.632,-3.632,-3.632,-3.632,-3.632,-3.632,-3.632,-3.6449,-3.6498,-3.5857,-3.5774,-3.5756,-3.5014,-3.4775,-3.4775,-3.4775,-3.4775,-3.4775,-3.4775,-3.4077,-3.3423,-3.3423,-3.2644,-3.1957,-3.2001,-3.2001,-3.2001,-3.2001,-3.1162,-3.1104,-3.3003,-3.2908,-3.2594,-3.2542,-3.261,-3.264,-3.2619,-3.2709,-3.2704,-3.2618,-3.1842,-3.1542,-3.1992,-3.1624,-3.1387,-3.1387,-3.1246,-3.1246,-3.1387,-3.1349,-3.1462,-3.174,-3.195,-3.2112,-3.2256,-3.3028,-3.3021,-2.465,-2.4664,-2.5355,0.0,-2.9051,-3.0543,-3.2307,-3.3219,-3.3904,-3.4775,-3.5763,-3.6499,-3.6499,-3.7332,-3.82,0.0,-3.9162,-3.9479,-3.9677,-3.922,-3.8594,-3.7714,-3.8169,-3.8806,-3.9551,-4.0142,-4.0458,-4.0454,-4.0106,-4.0001,-4.0304,-4.0456,-4.0594,-4.0812,-4.1306,-4.1432,-4.1133,-4.0835,-4.054,-4.0114,-3.9756,-3.9503,-3.9308,-3.9308,-3.9033,-3.8573,-3.8263,-3.8413,-3.8826,-3.8011,-3.7724,-3.7712,-3.6909,-3.6461,-3.632,-3.632,-3.632,-3.632,-3.632,-3.632,-3.632,-3.6483,-3.6395,-3.6249,-3.593,-3.5687,-3.5434,-3.4942,-3.4775,-3.4775,-3.4775,-3.4775,-3.4775,-3.4775,-3.4042,-3.3284,-3.3284,-3.2476,-3.1705,-3.1705,-3.1705,-3.1705,-3.1705,-3.0826,-3.0507,-3.1767,-3.1505,-3.146,-3.2243,-3.2342,-3.2395,-3.2408,-3.1549,-3.1244,-3.1955,-3.1712,-3.1505,-3.141,-3.1907,-3.2097,-3.1874,-3.1847,-3.2052,-3.2553,-3.2202,-3.2289,-3.2812,-3.3029,-3.3183,-3.3317,-3.3791,-3.3877,-2.639,0.0,0.0,-2.9974,-3.1833,-3.3255,-3.39,-3.4791,-3.5582,-3.6059,-3.6609,-3.6961,-3.6936,-3.7461,-3.8152,-3.8804,-3.8775,-3.8818,-3.9328,-3.8388,-3.7375,-3.6566,-3.6343,-3.6814,-3.8162,-3.8904,-3.9287,-3.9126,-3.9228,-3.9457,-3.9825,-4.033,-4.0617,-4.0617,-4.1099,-4.1122,-4.0617,-4.0238,-4.0045,-3.9848,-3.948,-3.9308,-3.9297,-3.917,-3.8918,-3.8562,-3.8022,-3.8011,-3.8298,-3.7402,-3.7253,-3.7494,-3.661,-3.632,-3.632,-3.632,-3.632,-3.632,-3.632,-3.632,-3.632,-3.6538,-3.6375,-3.6086,-3.5911,-3.5634,-3.526,-3.4882,-3.4775,-3.4775,-3.4775,-3.4775,-3.4775,-3.4775,-3.4042,-3.3284,-3.3284,-3.2476,-3.1705,-3.1705,-3.1705,-3.1705,-3.1705,-3.0826,-3.0266,-3.0838,-3.0382,-3.0421,-3.1662,-3.1852,-3.1884,-3.1938,-3.0573,-3.005,-3.1057,-3.1355,-3.1341,-3.1082,-3.2101,-3.2583,-3.234,-3.236,-3.2654,-3.3276,-3.289,-3.2945,-3.3536,-3.3793,-3.3951,-3.404,-3.4278,-3.4501,0.0,0.0,-2.8209,-3.1642,-3.3403,-3.4494,-3.5502,-3.6217,-3.6702,-3.6927,-3.6985,-3.6942,-3.6735,-3.6324,-3.6281,-3.7122,-3.7294,-3.7321,-3.7529,-3.7137,-3.6513,-3.5626,-3.5159,-3.5274,0.0,-3.7275,-3.8079,-3.8562,-3.9033,-3.9308,-3.932,-3.9802,-4.0137,-4.0137,-4.0582,-4.0594,-4.0149,-4.0126,-3.9873,-3.932,-3.9308,-3.9308,-3.9285,-3.8826,-3.8596,-3.8562,-3.8022,-3.7793,-3.777,-3.7253,-3.6991,-3.6956,-3.6484,-3.632,-3.632,-3.632,-3.632,-3.632,-3.632,-3.632,-3.632,-3.632,-3.6375,-3.6297,-3.578,-3.5595,-3.5459,-3.4931,-3.4775,-3.4775,-3.4775,-3.4775,-3.4775,-3.4775,-3.4042,-3.3284,-3.3284,-3.2476,-3.1705,-3.1705,-3.1705,-3.1705,-3.1705,-3.0826,-3.0266,-3.0838,-3.0019,-2.9718,-3.0778,-3.1018,-3.1066,-3.1148,-3.0082,-2.9639,-3.0279,-3.0532,-3.0871,-3.1442,-3.2245,-3.2775,-3.2988,-3.296,-3.3094,-3.329,-3.3262,-3.3262,-3.3326,-3.3709,-3.3896,-3.3917,-3.4244,-3.4748,-2.736,0.0,-3.0423,-3.2874,-3.3942,-3.453,-3.5223,-3.5684,-3.5909,-3.5592,-3.5307,-3.4947,-3.4532,-3.4853,-3.5431,-3.6097,-3.6621,-3.7052,-3.7471,-3.662,-3.5711,-3.5136,-3.5175,0.0,0.0,0.0,0.0,-3.8493,-3.8734,-3.9113,-3.9767,-4.0022,-4.0114,-4.0114,-4.0226,-4.0066,-3.9561,-3.9561,-3.9469,-3.9308,-3.9308,-3.9308,-3.9285,-3.8803,-3.839,-3.8022,-3.7517,-3.7288,-3.7253,-3.6736,-3.6725,-3.6933,-3.6472,-3.632,-3.632,-3.632,-3.632,-3.632,-3.632,-3.632,-3.632,-3.632,-3.5875,-3.5381,-3.5531,-3.5117,-3.4633,-3.4786,-3.4775,-3.4775,-3.4775,-3.4775,-3.4775,-3.4775,-3.4042,-3.3284,-3.3284,-3.2476,-3.1705,-3.1705,-3.1705,-3.1705,-3.1705,-3.0826,-3.0025,-2.9857,-3.0122,-3.047,-3.0874,-3.0925,-3.0977,-3.1026,-3.0007,-2.9432,-2.9677,-2.9755,-2.9896,-3.0088,-3.072,-3.1206,-3.1392,-3.1796,-3.2173,-3.2511,-3.2881,-3.3157,-3.329,-3.3709,-3.4096,-3.4517,-3.49,-3.5386,-2.8824,-3.0322,-3.1683,-3.3803,-3.4527,-3.4821,-3.5246,-3.5328,-3.5238,-3.4881,-3.3954,-3.319,-3.2902,-3.2853,-3.3217,-3.4631,-3.5061,-3.5674,-3.692,-3.614,-3.5405,-3.5095,-3.5336,-3.5462,0.0,0.0,0.0,-3.8194,-3.8642,-3.9113,-3.9756,-3.9779,-3.9779,-3.9779,-3.9779,-3.9629,-3.9308,-3.9308,-3.9308,-3.9308,-3.9308,-3.9308,-3.9297,-3.8987,-3.8459,-3.777,-3.7448,-3.7092,-3.6736,-3.6404,-3.6461,-3.6725,-3.6404,-3.632,-3.632,-3.632,-3.632,-3.632,-3.632,-3.632,-3.6297,-3.6059,-3.5515,-3.497,-3.5238,-3.4796,-3.4298,-3.4689,-3.4775,-3.4775,-3.4775,-3.4775,-3.4775,-3.4775,-3.4042,-3.3284,-3.3284,-3.2476,-3.1705,-3.1705,-3.1705,-3.1705,-3.1705,-3.0826,-2.9905,-2.9376,-2.9881,-3.0446,-3.0874,-3.0711,-3.0701,-3.0952,-2.9961,-2.9322,-2.9358,-2.9374,-2.9419,-2.9419,-2.9986,-3.0393,-3.0607,-3.0983,-3.1429,-3.1978,-3.2461,-3.2943,-3.3528,-3.3987,-3.4511,-3.5146,-3.5515,-3.5923,-3.0124,-3.1112,-3.1961,-3.4547,-3.515,-3.5174,-3.5391,-3.5034,-3.463,-3.4531,-3.2941,-3.159,0.0,0.0,-2.9895,-3.2667,-3.281,-3.3442,-3.5956,-3.5898,-3.56,0.0,0.0,0.0,0.0,0.0,0.0,-3.7758,0.0,-3.9251,-3.9308,-3.9308,-3.9308,-3.9308,-3.9308,-3.9308,-3.9308,-3.9308,-3.9308,-3.9308,-3.9308,-3.9308,-3.9308,-3.9308,-3.8746,-3.7793,-3.7793,-3.7207,-3.632,-3.632,-3.632,-3.632,-3.632,-3.632,-3.632,-3.632,-3.632,-3.632,-3.632,-3.632,-3.6197,-3.5715,-3.538,-3.512,-3.4903,-3.4625,-3.4433,-3.4726,-3.4775,-3.4775,-3.4775,-3.4775,-3.4775,-3.4775,-3.4042,-3.3284,-3.3284,-3.2476,-3.1705,-3.1705,-3.1705,-3.1705,-3.1669,-3.0771,-2.9905,-2.9376,-2.928,-2.9641,-3.0699,-3.0422,-3.0314,-3.0862,-2.9953,-2.9328,-2.9304,-2.9346,-2.938,-2.9419,-2.9909,-3.0317,-3.0532,-3.0532,-3.0921,-3.1726,-3.1982,-3.2718,-3.3899,-3.4526,-3.5139,-3.5753,-3.6101,-3.628,-3.1743,-3.2713,-3.3543,-3.4603,-3.4322,-3.37,-3.3389,-3.319,-3.2675,-3.1154,-3.0089,-2.9016,0.0,0.0,0.0,-3.0732,-3.2466,0.0,-3.6541,-3.6725,0.0,-3.6645,0.0,-3.7115,-3.6863,-3.754,0.0,0.0,-3.8252,-3.8504,-3.9262,-3.9308,-3.9308,-3.9308,-3.9308,-3.9308,-3.9308,-3.9308,-3.9308,-3.9308,-3.9308,-3.9308,-3.9308,-3.9308,-3.8746,-3.7793,-3.7793,-3.7207,-3.632,-3.632,-3.632,-3.632,-3.632,-3.632,-3.632,-3.632,-3.632,-3.632,-3.632,-3.632,-3.6309,-3.6117,-3.555,-3.4982,-3.5308,-3.4831,-3.4261,-3.4689,-3.4775,-3.4775,-3.4775,-3.4775,-3.4775,-3.4775,-3.4042,-3.3284,-3.3284,-3.2476,-3.1705,-3.1705,-3.1705,-3.1585,-3.1187,-3.053,-2.9905,-2.9376,-2.8967,-2.9088,-3.0158,-3.0506,-3.0766,-3.091,-3.029,-2.9725,-2.9328,-2.8972,-2.8922,-2.938,-2.9118,-2.9184,-2.9678,-2.9716,-3.006,-3.0803,-3.1802,-3.2812,-3.3823,-3.4627,-3.5444,-3.6225,-3.6121,-3.6346,-3.2769,-3.3673,-3.4342,-3.4439,-3.4,-3.3292,-3.211,-3.1662,-3.0916,-2.8919,-2.7725,0.0,0.0,0.0,0.0,0.0,0.0,0.0,-3.6048,-3.6693,-3.6979,0.0,-3.7689,0.0,-3.7747,-3.8252,-3.8677,0.0,-3.8631,-3.87,-3.9274,-3.9308,-3.9308,-3.9308,-3.9308,-3.9308,-3.9308,-3.9308,-3.9308,-3.9308,-3.9308,-3.9308,-3.9308,-3.9308,-3.8746,-3.7793,0.0,-3.7207,-3.632,-3.632,-3.632,-3.632,-3.632,-3.632,-3.632,-3.632,-3.632,-3.632,-3.632,-3.632,-3.6286,-3.6013,-3.5566,-3.5131,-3.5198,-3.4863,-3.4445,-3.4749,-3.4775,-3.4775,-3.4775,-3.4775,-3.4775,-3.4775,-3.421,-3.3561,-3.3332,-3.2623,-3.1961,-3.1753,-3.1705,-3.1609,-3.1308,-3.0826,-3.0254,-2.9725,-2.9196,-2.9076,-2.9665,-3.0206,-3.0657,-3.0855,-3.0645,-3.0314,-3.0013,-2.9292,-2.9008,-2.9316,-2.883,-2.8669,-2.9,-2.9221,-2.969,-3.0373,-3.1393,-3.2332,-3.3143,-3.3826,-3.4475,-3.5086,-3.5362,-3.5593,-3.3498,-3.4245,-3.4693,-3.4222,-3.4004,-3.3384,-3.1364,-3.0445,-2.9424,-2.7305,0.0,-2.4774,-2.4636,-2.4832,-2.598,-2.8919,0.0,-3.2673,-3.5256,-3.6438,-3.7025,-3.723,-3.8091,-3.8677,-3.8677,-3.8677,-3.8849,-3.9274,-3.9308,-3.9308,-3.9308,-3.9308,-3.9308,-3.9308,-3.9308,-3.9308,-3.9308,-3.9308,-3.9308,-3.9308,-3.9308,-3.9308,-3.9308,-3.9239,-3.8688,-3.7793,-3.7712,0.0,-3.632,-3.632,-3.632,-3.632,-3.632,-3.632,-3.632,-3.632,-3.632,-3.632,-3.632,-3.632,-3.6197,-3.5761,-3.5577,-3.5453,-3.5011,-3.4875,-3.4799,-3.4784,-3.4775,-3.4775,-3.4775,-3.4775,-3.4775,-3.4775,-3.4378,-3.385,-3.3392,-3.2815,-3.225,-3.1801,-3.1705,-3.1705,-3.1705,-3.1271,-3.0766,-3.0266,-2.9689,-2.9304,-2.9304,-2.9701,-3.0182,-3.0766,-3.0711,-3.0742,-3.0814,-2.9869,-2.9328,-2.94,-2.8907,-2.8643,-2.8715,-2.9027,-2.9488,-3.0177,-3.0845,-3.1516,-3.2183,-3.2633,-3.2987,-3.3325,-3.4111,-3.4367,-3.4446,-3.4675,-3.4785,-3.4682,-3.4027,-3.2868,-3.0824,-2.963,0.0,0.0,-2.4786,-2.4062,-2.3224,-2.4441,0.0,-2.8482,0.0,0.0,0.0,0.0,-3.7356,0.0,0.0,0.0,0.0,0.0,0.0,0.0,0.0,-3.9308,-3.9308,-3.9308,-3.9308,-3.9308,-3.9308,-3.9308,-3.9308,-3.9308,-3.9308,-3.9308,-3.9308,-3.9308,-3.9297,-3.8895,-3.8378,-3.777,-3.7345,0.0,-3.632,-3.632,-3.632,-3.632,-3.632,-3.632,-3.632,-3.632,-3.632,-3.632,-3.632,-3.632,-3.6254,-3.6162,-3.5853,-3.5523,-3.5455,-3.5168,-3.4799,-3.4784,-3.4775,-3.4775,-3.4775,-3.4775,-3.4775,-3.4775,-3.4378,-3.385,-3.3392,-3.2503,-3.1825,-3.1729,-3.1705,-3.1705,-3.1705,-3.1271,-3.0886,-3.079,-2.9917,-2.9304,-2.9304,-2.9376,-2.9641,-3.017,-2.9833,-2.9749,-3.0194,-2.9653,-2.9484,-2.9917,-2.946,-2.9364,-2.9797,-2.9063,-2.9092,-3.0096,-3.0346,-3.0816,-3.1539,-3.217,-3.2607,-3.2896,-3.2818,-3.3139,-3.4727,-3.498,-3.5118,-3.4865,-3.4039,-3.2535,-2.9699,0.0,0.0,0.0,-2.2811,-2.242,-2.164,0.0,0.0,0.0,0.0,0.0,0.0,0.0,0.0,0.0,0.0,0.0,0.0,0.0,0.0,0.0,0.0,-3.9308,-3.9308,-3.9308,-3.9308,-3.9308,-3.9308,-3.9308,-3.9308,-3.9308,-3.9308,-3.9308,-3.9055,-3.8929,-3.8918,-3.8401,-3.7885,-3.7379,-3.7083,0.0,-3.632,-3.632,-3.632,-3.632,-3.632,-3.632,-3.632,-3.632,-3.632,-3.632,-3.632,-3.632,-3.632,-3.632,-3.6105,-3.5879,-3.5654,-3.5439,-3.5176,-3.4856,-3.4775,-3.4775,-3.4775,-3.4775,-3.4775,-3.4775,-3.4378,-3.385,-3.3392,-3.2671,-3.201,-3.1765,-3.1705,-3.1705,-3.1705,-3.15,-3.1235,-3.0958,-3.0206,-2.9605,-2.9328,-2.9063,-2.9088,-2.9629,-2.9689,-2.9809,-3.0062,-2.9605,-2.9412,-2.9665,-2.9184,-2.9003,-2.9256,-2.9039,-2.916,-2.9665,-3.0007,-3.0241,-3.0298,-3.0652,-3.0823,-3.0902,-3.1189,-3.1615,-3.4739,-3.5072,-3.5279,-3.4888,-3.3866,-3.2087,-2.8746,-2.6984,0.0,0.0,-2.1029,-2.0822,-2.0607,0.0,0.0,0.0,0.0,0.0,0.0,0.0,0.0,0.0,0.0,0.0,0.0,0.0,0.0,0.0,0.0,0.0,-3.9308,-3.9308,-3.9251,-3.9147,-3.9251,-3.9251,-3.9147,-3.9251,-3.9251,-3.9147,-3.8768,-3.8527,-3.8401,-3.7873,-3.7414,-3.6968,-3.692,0.0,0.0,-3.632,-3.632,-3.632,-3.632,-3.632,-3.632,-3.632,-3.632,-3.632,-3.632,-3.632,-3.632,-3.632,-3.6197,-3.6052,-3.5689,-3.5545,-3.5353,-3.4903,-3.4775,-3.4775,-3.4775,-3.4775,-3.4775,-3.4775,-3.4378,-3.385,-3.3392,-3.2875,-3.2334,-3.1813,-3.1705,-3.1705,-3.1705,-3.1705,-3.1573,-3.1151,-3.0591,-3.0062,-2.9532,-2.9003,-2.8799,-2.91,-2.9508,-2.9797,-2.9905,-2.9532,-2.9352,-2.946,-2.8979,-2.8727,-2.8847,-2.9027,-2.9184,-2.9304,-2.9593,-2.9544,-2.9136,-2.9164,-2.9149,-2.9052,-2.9755,-3.0393,-3.4544,-3.4831,-3.4854,-3.4819,-3.3338,-3.1273,-2.8574,0.0,0.0,-2.1638,-2.0477,-2.009,-2.0971,-2.1663,0.0,0.0,0.0,0.0,0.0,0.0,0.0,0.0,0.0,0.0,0.0,0.0,0.0,0.0,0.0,0.0,-3.9308,-3.9308,-3.9101,-3.8665,-3.9078,-3.9101,-3.8654,-3.909,-3.9078,-3.8654,-3.8608,-3.8332,-3.785,-3.7333,-3.7025,-3.6956,-3.6541,0.0,0.0,-3.632,-3.632,-3.632,-3.632,-3.632,-3.632,-3.632,-3.632,-3.632,-3.632,-3.632,-3.632,-3.632,-3.5956,-3.5592,-3.5584,-3.5274,-3.4869,-3.4796,-3.4775,-3.4775,-3.4775,-3.4775,-3.4775,-3.4775,-3.4378,-3.385,-3.3392,-3.2875,-3.2334,-3.1813,-3.1705,-3.1705,-3.1705,-3.1705,-3.1693,-3.1645,-3.1187,-3.0615,-3.0086,-2.9556,-2.9063,-2.8631,-2.8631,-2.8847,-2.9328,-2.9328,-2.9508,-2.9989,-2.952,-2.9436,-2.9917,-2.9063,-2.8811,-2.9292,-2.8871,-2.8631,-2.8582,-2.8769,-2.8852,-2.8843,-2.9263,-2.9896,-3.3958,-3.4326,-3.4245,-3.3958,-3.2592,-3.0572,-2.7755,0.0,-2.3087,-2.0756,-1.9711,-1.9436,-2.0148,-2.0928,-2.1824,0.0,-2.3602,-2.5027,0.0,0.0,0.0,0.0,0.0,0.0,0.0,0.0,0.0,0.0,0.0,0.0,-3.9285,-3.9033,-3.878,-3.8596,-3.8459,-3.8298,-3.8103,-3.8298,-3.8298,-3.8103,-3.7793,-3.754,-3.7311,-3.6805,-3.6576,-3.6564,-3.6358,0.0,0.0,-3.632,-3.632,-3.632,-3.632,-3.632,-3.632,-3.632,-3.632,-3.632,-3.632,-3.632,-3.6274,-3.591,-3.5485,-3.5154,-3.5479,-3.5239,-3.4799,-3.4784,-3.4775,-3.4775,-3.4775,-3.4775,-3.4775,-3.4775,-3.4619,-3.4246,-3.3464,-3.3128,-3.2719,-3.1874,-3.1705,-3.1705,-3.1705,-3.1705,-3.1705,-3.1705,-3.1259,-3.073,-3.0158,-2.9629,-2.9088,-2.857,-2.851,-2.8595,-2.8811,-2.8823,-2.8919,-2.9124,-2.8943,-2.8919,-2.9136,-2.8739,-2.8607,-2.8823,-2.8619,-2.851,-2.851,-2.8578,-2.8736,-2.8961,-2.9157,-2.9548,-3.3143,-3.3556,-3.3511,-3.3327,-3.18,-2.9688,0.0,-2.4889,-2.2581,-2.0366,-1.9493,-1.9287,-1.9803,-2.0469,-2.1101,-2.1617,-2.2055,-2.3247,-2.5876,0.0,0.0,0.0,0.0,0.0,0.0,0.0,0.0,0.0,0.0,0.0,0.0,-3.8619,-3.8344,-3.8344,-3.8137,-3.7873,-3.7575,-3.7712,-3.7712,-3.7563,-3.7207,-3.6899,-3.6794,-3.6438,-3.632,-3.632,-3.632,0.0,0.0,-3.632,-3.632,-3.632,-3.632,-3.632,-3.632,-3.632,-3.632,-3.632,-3.632,-3.6174,-3.599,-3.5634,-3.5083,-3.467,-3.5135,-3.4965,-3.461,-3.4638,-3.4738,-3.4775,-3.4775,-3.4775,-3.4775,-3.4775,-3.4775,-3.4547,-3.3513,-3.3284,-3.2959,-3.1922,-3.1705,-3.1705,-3.1705,-3.1705,-3.1705,-3.1705,-3.1392,-3.0958,-3.0386,-2.9989,-2.9508,-2.8823,-2.8751,-2.8679,-2.8522,-2.851,-2.851,-2.851,-2.851,-2.851,-2.851,-2.851,-2.851,-2.851,-2.851,-2.851,-2.851,-2.8538,-2.8776,-2.9091,-2.917,-2.9504,-3.2087,-3.25,-3.2627,-3.3155,-3.0985,-2.8459,0.0,-2.4866,-2.226,-2.0722,-2.0021,-1.9826,-2.032,-2.0412,-2.0584,-2.1121,-2.2444,-2.3923,-2.5497,0.0,0.0,0.0,0.0,0.0,0.0,0.0,0.0,0.0,0.0,0.0,0.0,-3.8091,-3.7793,-3.7793,-3.8309,-3.808,-3.6991,-3.754,-3.754,-3.6991,-3.6979,-3.6771,-3.6332,-3.632,-3.632,0.0,0.0,0.0,0.0,-3.632,-3.632,-3.632,-3.632,-3.632,-3.632,-3.632,-3.632,-3.632,-3.632,-3.5944,-3.5531,-3.552,-3.4831,-3.4055,-3.431,-3.4275,-3.4125,-3.4347,-3.458,-3.4775,-3.4775,-3.4775,-3.4775,-3.4775,-3.4775,-3.4547,-3.3513,-3.3284,-3.2959,-3.1922,-3.1705,-3.1705,-3.1705,-3.1705,-3.1705,-3.1705,-3.1705,-3.1512,-3.0983,-3.091,-3.0458,-2.94,-2.9292,-2.9076,-2.8558,-2.851,-2.851,-2.851,-2.851,-2.851,-2.851,-2.851,-2.851,-2.851,-2.851,-2.851,-2.851,-2.8685,-2.8882,-2.9091,-2.9314,-2.9808,-2.9493,-3.0158,-3.0319,-2.9791,-2.8666,-2.7254,-2.5543,-2.3603,-2.1835,-2.0653,-1.9734,-1.9413,-2.0251,-2.0412,-2.0917,-2.2433,-2.3098,0.0,0.0,0.0,0.0,0.0,0.0,0.0,0.0,0.0,0.0,0.0,0.0,0.0,0.0,-3.7885,-3.7632,-3.7276,-3.7092,-3.6851,-3.6507,-3.6668,-3.6668,-3.6507,-3.6507,-3.6427,-3.632,-3.632,-3.632,0.0,0.0,0.0,0.0,-3.632,-3.632,-3.632,-3.632,-3.632,-3.632,-3.632,-3.6048,-3.5761,-3.5761,-3.5439,-3.4969,-3.4601,-3.4257,-3.3935,-3.3715,-3.3746,-3.3915,-3.4298,-3.458,-3.4775,-3.4775,-3.4775,-3.4775,-3.4775,-3.4775,-3.4547,-3.3513,-3.3284,-3.2959,-3.1922,-3.1705,-3.1705,-3.1705,-3.1705,-3.1705,-3.1705,-3.1705,-3.1524,-3.0995,-3.0922,-3.0645,-2.9917,-2.9508,-2.9088,-2.8558,-2.851,-2.851,-2.851,-2.851,-2.851,-2.851,-2.851,-2.851,-2.851,-2.851,-2.851,-2.851,-2.8685,-2.9196,-2.9935,-3.0496,-3.1091,-2.7346,-2.8241,-2.854,-2.8092,-2.7162,-2.5986,-2.4751,-2.3006,-2.1399,-2.0584,-1.9757,-1.939,-2.0021,-2.0285,-2.0825,-2.2055,-2.2742,0.0,0.0,0.0,0.0,0.0,0.0,0.0,0.0,0.0,0.0,0.0,0.0,0.0,0.0,-3.7506,-3.7265,-3.6759,-3.6622,-3.6461,-3.632,-3.632,-3.632,-3.632,-3.632,-3.632,-3.632,-3.632,-3.632,0.0,0.0,0.0,0.0,-3.632,-3.632,-3.632,-3.632,-3.6162,-3.599,-3.599,-3.5669,-3.5244,-3.5244,-3.4923,-3.444,-3.4108,-3.3878,-3.3671,-3.3373,-3.3481,-3.3779,-3.4286,-3.4531,-3.4677,-3.4775,-3.4775,-3.4775,-3.4775,-3.4775,-3.4547,-3.3513,-3.3284,-3.2959,-3.1922,-3.1705,-3.1705,-3.1705,-3.1705,-3.1705,-3.1705,-3.1705,-3.1585,-3.1259,-3.1211,-3.1019,-3.0446,-3.0086,-2.9677,-2.9148,-2.8739,-2.851,-2.851,-2.851,-2.851,-2.851,-2.851,-2.851,-2.851,-2.8771,-2.8919,-2.8919,-2.9434,-2.9985,-3.0639,-3.1367,-3.1888,0.0,-2.6485,-2.703,-2.7495,-2.6163,-2.4728,-2.4659,-2.2811,0.0,-2.0469,-1.9975,-1.9677,-1.978,-2.0136,-2.0469,-2.0653,-2.1893,0.0,0.0,0.0,0.0,0.0,0.0,0.0,0.0,0.0,0.0,0.0,0.0,0.0,0.0,-3.6922,-3.6759,-3.6289,-3.6725,-3.6748,-3.6277,-3.632,-3.632,-3.632,-3.632,-3.632,-3.632,-3.632,-3.632,0.0,0.0,0.0,0.0,-3.622,-3.6197,-3.6162,-3.6162,-3.5875,-3.5462,-3.5462,-3.5164,-3.4739,-3.4739,-3.4395,-3.3947,-3.3947,-3.3648,-3.3281,-3.3281,-3.3481,-3.3767,-3.4249,-3.4384,-3.4433,-3.4726,-3.4775,-3.4775,-3.4775,-3.4751,-3.4499,-3.3501,-3.326,-3.2923,-3.191,-3.1705,-3.1705,-3.1705,-3.1705,-3.1705,-3.1705,-3.1705,-3.1705,-3.1705,-3.1705,-3.1524,-3.1031,-3.0946,-3.0718,-3.0182,-2.9208,-2.8619,-2.8619,-2.8619,-2.8619,-2.8619,-2.8619,-2.8619,-2.8619,-2.929,-2.9654,-2.9695,-3.0667,-3.1145,-3.1199,-3.1943,-3.2277,-2.1675,0.0,-2.4233,-2.3994,-2.3569,-2.3006,0.0,-2.1284,-2.0446,-1.9964,-1.9447,-1.9436,-2.0638,-2.0595,-2.1043,-2.2983,-2.3913,0.0,0.0,0.0,0.0,0.0,0.0,0.0,0.0,0.0,0.0,0.0,0.0,0.0,0.0,-3.6449,-3.6392,-3.6277,-3.6392,-3.6392,-3.632,-3.632,-3.632,-3.632,-3.632,-3.632,-3.632,-3.632,-3.632,0.0,0.0,0.0,-3.5703,-3.5703,-3.5474,-3.5141,-3.5141,-3.5072,-3.4969,-3.4969,-3.4636,-3.4188,-3.4188,-3.3866,-3.3453,-3.3453,-3.3373,-3.3281,-3.3281,-3.3481,-3.3729,-3.3817,-3.4101,-3.4433,-3.4482,-3.464,-3.4775,-3.4775,-3.4474,-3.4006,-3.3428,-3.2971,-3.2478,-3.1837,-3.1705,-3.1705,-3.1705,-3.1705,-3.1705,-3.1705,-3.1705,-3.1705,-3.1705,-3.1705,-3.1657,-3.1536,-3.1163,-3.0874,-3.0699,-3.0098,-2.9713,-2.9713,-2.9713,-2.9713,-2.9713,-2.9713,-2.9713,-2.9713,-2.9875,-3.0226,-3.0762,-3.1247,-3.1633,-3.1955,-3.2604,-3.2867,-2.0079,-2.1355,-2.2697,-2.2685,-2.2501,-2.2191,-2.164,-2.0572,-1.9643,0.0,0.0,-1.9218,-2.0316,-2.063,-2.1365,-2.3201,-2.4181,0.0,0.0,0.0,0.0,0.0,0.0,0.0,0.0,0.0,0.0,0.0,0.0,0.0,0.0,-3.6483,-3.6429,-3.632,-3.6429,-3.6429,-3.632,-3.632,-3.632,-3.632,-3.6036,-3.5921,-3.5921,-3.5692,-3.56,0.0,0.0,0.0,-3.5187,-3.5187,-3.5037,-3.4796,-3.4796,-3.4647,-3.444,-3.444,-3.4108,-3.3671,-3.3671,-3.3499,-3.3281,-3.3281,-3.3281,-3.3281,-3.3281,-3.3481,-3.3729,-3.3828,-3.4064,-3.4298,-3.4531,-3.4677,-3.4775,-3.4775,-3.4378,-3.385,-3.3392,-3.2875,-3.2334,-3.1813,-3.1705,-3.1705,-3.1705,-3.1705,-3.1705,-3.1705,-3.1705,-3.1705,-3.1705,-3.1705,-3.1705,-3.1705,-3.1452,-3.1284,-3.1284,-3.1019,-3.0603,-3.0122,-3.0086,-3.0086,-3.0086,-3.0086,-3.0278,-3.0604,-3.0604,-3.1022,-3.1829,-3.2012,-3.2276,-3.2616,-3.293,-3.3124,-1.9677,-2.0791,-2.1951,-2.226,-2.2122,-2.1848,-2.1699,0.0,0.0,0.0,0.0,0.0,0.0,-2.081,0.0,0.0,0.0,0.0,0.0,0.0,0.0,0.0,0.0,0.0,0.0,0.0,0.0,0.0,0.0,0.0,0.0,-3.6568,-3.6425,-3.621,-3.6425,-3.6414,-3.621,-3.6171,-3.6162,-3.6151,-3.5646,-3.5405,-3.5393,-3.4992,-3.4796,-3.4796,0.0,0.0,-3.4682,-3.4682,-3.4636,-3.4567,-3.4567,-3.4291,-3.3889,-3.3889,-3.3637,-3.3281,-3.3281,-3.3281,-3.3281,-3.3281,-3.3281,-3.3281,-3.3281,-3.3481,-3.3679,-3.4026,-3.4125,-3.4211,-3.464,-3.4775,-3.4763,-3.4679,-3.4258,-3.3742,-3.3272,-3.2755,-3.2238,-3.1801,-3.1705,-3.1705,-3.1705,-3.1705,-3.1705,-3.1705,-3.1705,-3.1705,-3.1705,-3.1705,-3.1705,-3.1705,-3.1705,-3.1705,-3.1705,-3.1705,-3.1332,-3.0386,-3.0326,-3.0326,-3.0326,-3.0326,-3.0658,-3.1308,-3.1277,-3.1767,-3.2711,-3.268,-3.281,-3.3124,-3.3124,-3.3124,-1.9574,-2.0791,-2.1711,-2.0951,-2.1342,-2.1676,-2.0805,-2.04,0.0,0.0,0.0,0.0,0.0,0.0,0.0,0.0,0.0,0.0,0.0,0.0,0.0,0.0,0.0,0.0,0.0,0.0,0.0,0.0,0.0,0.0,0.0,-3.6045,-3.5758,-3.5706,-3.5758,-3.5758,-3.5706,-3.564,-3.5634,-3.5634,-3.5141,-3.4911,-3.4911,-3.4831,-3.4796,-3.4796,0.0,-3.4544,-3.4119,-3.4119,-3.3878,-3.3511,-3.3511,-3.3465,-3.3396,-3.3396,-3.335,-3.3281,-3.3281,-3.3281,-3.3281,-3.3281,-3.3281,-3.3281,-3.3281,-3.3331,-3.3481,-3.3977,-3.4211,-3.4384,-3.4433,-3.4628,-3.4667,-3.4222,-3.3777,-3.326,-3.2743,-3.2178,-3.1813,-3.1729,-3.1705,-3.1705,-3.1705,-3.1705,-3.1705,-3.1705,-3.1705,-3.1705,-3.1705,-3.1705,-3.1705,-3.1705,-3.1705,-3.1705,-3.1705,-3.1705,-3.1633,-3.1476,-3.1464,-3.1464,-3.1464,-3.1464,-3.1588,-3.186,-3.1716,-3.1972,-3.2711,-3.2519,-3.2692,-3.3124,-3.3124,-3.3124,-1.8753,-1.9923,-2.1066,-2.0871,-2.1789,-2.2513,-2.1801,-2.1215,0.0,0.0,0.0,0.0,0.0,0.0,0.0,0.0,0.0,0.0,0.0,0.0,0.0,0.0,0.0,0.0,0.0,0.0,0.0,0.0,0.0,0.0,0.0,0.0,-3.577,-3.5575,-3.577,-3.577,-3.5575,-3.5143,-3.5051,-3.5328,-3.4665,-3.4372,-3.436,-3.4096,-3.3981,-3.3981,0.0,-3.3843,-3.3614,-3.3614,-3.3488,-3.3281,-3.3281,-3.3281,-3.3281,-3.3281,-3.3281,-3.3281,-3.3281,-3.3281,-3.3281,-3.3281,-3.3281,-3.3281,-3.3281,-3.3381,-3.358,-3.3828,-3.4064,-3.4298,-3.4531,-3.4726,-3.4715,-3.4474,-3.3861,-3.3224,-3.2984,-3.2262,-3.1705,-3.1705,-3.1705,-3.1705,-3.1705,-3.1705,-3.1705,-3.1705,-3.1705,-3.1705,-3.1705,-3.1705,-3.1705,-3.1705,-3.1705,-3.1705,-3.1705,-3.1705,-3.1705,-3.1705,-3.1705,-3.1705,-3.1705,-3.1705,-3.1805,-3.1994,-3.1893,-3.2157,-3.2711,-3.2593,-3.2736,-3.3124,-3.3124,-3.3124,-1.8581,-1.9579,-2.071,-2.1215,0.0,-2.3075,-2.319,-2.2454,0.0,0.0,0.0,0.0,0.0,0.0,0.0,0.0,0.0,0.0,0.0,0.0,0.0,0.0,0.0,0.0,0.0,0.0,0.0,0.0,0.0,0.0,0.0,0.0,-3.5634,-3.5404,-3.5595,-3.5634,-3.5404,-3.4738,-3.4594,-3.5015,-3.4226,-3.3832,-3.3821,-3.3453,-3.3281,-3.3281,-3.3281,-3.3281,-3.3281,-3.3281,-3.3281,-3.3281,-3.3281,-3.3281,-3.3281,-3.3281,-3.3281,-3.3281,-3.3281,-3.3281,-3.3281,-3.3281,-3.3281,-3.3281,-3.3281,-3.3431,-3.363,-3.3679,-3.3878,-3.4162,-3.4592,-3.4726,-3.4715,-3.4474,-3.3861,-3.3224,-3.2959,-3.2295,-3.1705,-3.1705,-3.1705,-3.1705,-3.1705,-3.1705,-3.1705,-3.1705,-3.1705,-3.1705,-3.1705,-3.1705,-3.1705,-3.1705,-3.1705,-3.1705,-3.1705,-3.1705,-3.1705,-3.1705,-3.1705,-3.1705,-3.1705,-3.1761,-3.1849,-3.1994,-3.2081,-3.2288,-3.2711,-3.2711,-3.2853,-3.3124,-3.3124,-3.3124,-1.9987,-2.0664,-2.1259,-2.1743,-2.1929,-2.2479,-2.4338,-2.3957,0.0,-2.5096,0.0,0.0,0.0,0.0,0.0,0.0,0.0,0.0,0.0,0.0,0.0,0.0,0.0,0.0,0.0,0.0,0.0,0.0,0.0,0.0,0.0,0.0,0.0,-3.4846,-3.4895,-3.4895,-3.4846,-3.4553,-3.4407,-3.4458,-3.3719,-3.3338,-3.3338,-3.3304,-3.3281,-3.3281,-3.3281,-3.3281,-3.3281,-3.3281,-3.3281,-3.3281,-3.3281,-3.3281,-3.3281,-3.3281,-3.3281,-3.3281,-3.3281,-3.3281,-3.3281,-3.3281,-3.3281,-3.3281,-3.3281,-3.3331,-3.3381,-3.363,-3.3878,-3.4162,-3.4384,-3.4628,-3.4534,-3.3633,-3.3344,-3.3008,-3.2042,-3.1765,-3.1705,-3.1705,-3.1705,-3.1705,-3.1705,-3.1705,-3.1705,-3.1705,-3.1705,-3.1705,-3.1705,-3.1705,-3.1705,-3.1705,-3.1705,-3.1705,-3.1705,-3.1705,-3.1705,-3.1705,-3.1705,-3.1705,-3.1705,-3.1893,-3.1994,-3.1994,-3.2257,-3.2475,-3.2711,-3.2711,-3.2853,-3.3124,-3.3124,-3.3124,-1.9367,-2.0327,-2.1316,-2.1768,-2.2364,0.0,0.0,-2.513,-2.567,-2.6875,-2.7308,0.0,0.0,0.0,0.0,0.0,0.0,0.0,0.0,0.0,0.0,0.0,0.0,0.0,0.0,0.0,0.0,0.0,0.0,0.0,0.0,0.0,0.0,-3.4775,-3.4775,-3.4775,-3.4775,-3.4396,-3.4207,-3.4196,-3.3772,-3.3481,-3.3281,-3.3281,-3.3281,-3.3281,-3.3281,-3.3281,-3.3281,-3.3281,-3.3281,-3.3281,-3.3281,-3.3281,-3.3281,-3.3281,-3.3281,-3.3281,-3.3281,-3.3281,-3.3281,-3.3281,-3.3281,-3.3281,-3.3281,-3.3281,-3.3331,-3.363,-3.3878,-3.4162,-3.4347,-3.458,-3.4679,-3.433,-3.3765,-3.3176,-3.2767,-3.2187,-3.1705,-3.1705,-3.1705,-3.1705,-3.1705,-3.1705,-3.1705,-3.1705,-3.1705,-3.1705,-3.1705,-3.1705,-3.1705,-3.1705,-3.1705,-3.1705,-3.1705,-3.1705,-3.1705,-3.1705,-3.1705,-3.1705,-3.1705,-3.1749,-3.1937,-3.2257,-3.2356,-3.2562,-3.2939,-3.2939,-3.2982,-3.3124,-3.3124,-3.3124,-1.9183,-2.013,-2.1298,-2.1841,0.0,0.0,-2.5416,-2.6304,-2.725,-2.876,-2.8966,0.0,0.0,0.0,0.0,0.0,0.0,0.0,0.0,0.0,0.0,0.0,0.0,0.0,0.0,0.0,0.0,0.0,0.0,0.0,0.0,0.0,0.0,0.0,-3.4775,-3.4775,-3.4775,-3.4327,-3.3963,-3.3866,-3.3506,-3.3305,-3.3281,-3.3281,-3.3281,-3.3281,-3.3281,-3.3281,-3.3281,-3.3281,-3.3281,-3.3281,-3.3281,-3.3281,-3.3281,-3.3281,-3.3281,-3.3281,-3.3281,-3.3281,-3.3281,-3.3281,-3.3281,-3.3281,-3.3281,-3.3331,-3.3481,-3.363,-3.3927,-3.4164,-3.4194,-3.4509,-3.4691,-3.4414,-3.3801,-3.32,-3.2851,-3.2235,-3.1705,-3.1705,-3.1705,-3.1705,-3.1705,-3.1705,-3.1705,-3.1705,-3.1705,-3.1705,-3.1705,-3.1705,-3.1705,-3.1705,-3.1705,-3.1705,-3.1705,-3.1705,-3.1705,-3.1705,-3.1705,-3.1705,-3.1705,-3.1849,-3.2069,-3.2388,-3.2574,-3.2779,-3.3124,-3.3124,-3.3124,-3.3124,-3.3124,-3.3124,-1.9826,-2.0392,-2.1275,0.0,0.0,0.0,-2.706,-2.7557,-2.8342,-3.0868,0.0,-3.0359,-3.0836,0.0,0.0,0.0,0.0,0.0,0.0,0.0,0.0,0.0,0.0,0.0,0.0,0.0,0.0,0.0,0.0,0.0,0.0,0.0,0.0,0.0,-3.4763,-3.4763,-3.4763,-3.4246,-3.3744,-3.3289,-3.2783,-3.2801,-3.3269,-3.3269,-3.3269,-3.3281,-3.3281,-3.3281,-3.3281,-3.3281,-3.3281,-3.3281,-3.3281,-3.3281,-3.3281,-3.3281,-3.3281,-3.3281,-3.3281,-3.3281,-3.3281,-3.3281,-3.3281,-3.3281,-3.3281,-3.3481,-3.3679,-3.3729,-3.4052,-3.4265,-3.3815,-3.4246,-3.451,-3.3537,-3.3284,-3.2984,-3.1946,-3.1705,-3.1705,-3.1705,-3.1705,-3.1705,-3.1705,-3.1705,-3.1705,-3.1705,-3.1705,-3.1705,-3.1705,-3.1705,-3.1705,-3.1705,-3.1705,-3.1705,-3.1705,-3.1705,-3.1705,-3.1705,-3.1705,-3.1705,-3.1705,-3.2169,-3.24,-3.24,-3.2865,-3.3124,-3.3124,-3.3124,-3.3124,-3.3124,-3.3124,-3.3124,-1.9859,-2.0826,0.0,-2.2794,0.0,0.0,0.0,-2.8764,0.0,0.0,0.0,0.0,0.0,0.0,0.0,0.0,0.0,0.0,0.0,0.0,0.0,0.0,0.0,0.0,0.0,0.0,0.0,0.0,0.0,0.0,0.0,0.0,0.0,0.0,-3.3741,-3.3741,-3.3741,-3.3397,-3.3184,-3.3031,-3.2689,-3.2392,-3.219,-3.2202,-3.2457,-3.273,-3.273,-3.2937,-3.3281,-3.3281,-3.3281,-3.3281,-3.3281,-3.3281,-3.3281,-3.3281,-3.3281,-3.3281,-3.3281,-3.3281,-3.3281,-3.3281,-3.3281,-3.3273,-3.3053,-3.334,-3.3697,-3.3689,-3.3825,-3.3922,-3.3899,-3.385,-3.3669,-3.3356,-3.3008,-3.2647,-3.2322,-3.1994,-3.1705,-3.1705,-3.1705,-3.1705,-3.1705,-3.1705,-3.1705,-3.1705,-3.1705,-3.1705,-3.1705,-3.1705,-3.1705,-3.1705,-3.1705,-3.1705,-3.1705,-3.1705,-3.1705,-3.1705,-3.1849,-3.1893,-3.1893,-3.2025,-3.2257,-3.2593,-3.2766,-3.2896,-3.3124,-3.3124,-3.3124,-3.3124,-3.3124,-3.3124,-2.0602,-2.1779,0.0,-2.4613,0.0,0.0,0.0,0.0,0.0,0.0,0.0,0.0,0.0,0.0,0.0,0.0,0.0,0.0,0.0,0.0,0.0,0.0,0.0,0.0,0.0,0.0,0.0,0.0,0.0,0.0,0.0,0.0,0.0,0.0,-3.3284,-3.3284,-3.3284,-3.2941,-3.2695,-3.2578,-3.2099,-3.1669,-3.1286,-3.1701,-3.2011,-3.2202,-3.219,-3.2374,-3.2684,-3.2684,-3.2684,-3.2695,-3.2891,-3.2845,-3.273,-3.3132,-3.3143,-3.2994,-3.3212,-3.3143,-3.296,-3.296,-3.2932,-3.2799,-3.2644,-3.2965,-3.3394,-3.3375,-3.3482,-3.3516,-3.3442,-3.32,-3.2971,-3.2971,-3.2731,-3.2442,-3.2214,-3.1946,-3.1705,-3.1705,-3.1705,-3.1705,-3.1705,-3.1705,-3.1705,-3.1705,-3.1705,-3.1705,-3.1705,-3.1705,-3.1705,-3.1705,-3.1705,-3.1705,-3.1705,-3.1705,-3.1705,-3.1705,-3.1893,-3.2038,-3.2169,-3.2245,-3.2419,-3.2711,-3.2797,-3.2939,-3.3124,-3.3124,-3.3124,-3.3124,-3.3124,-3.3124,-2.1652,0.0,0.0,0.0,0.0,0.0,0.0,0.0,0.0,0.0,0.0,0.0,0.0,0.0,0.0,0.0,0.0,0.0,0.0,0.0,0.0,0.0,0.0,0.0,0.0,0.0,0.0,0.0,0.0,0.0,0.0,0.0,0.0,-3.314,-3.314,-3.314,-3.314,-3.2659,-3.2316,0.0,-3.1376,-3.0871,-3.0658,-3.1542,-3.1865,-3.1744,-3.172,-3.1743,-3.1813,-3.1813,-3.1813,-3.1859,-3.2248,-3.2204,-3.1928,-3.281,-3.2833,-3.2489,-3.2982,-3.2822,-3.242,-3.242,-3.2254,-3.2052,-3.2053,-3.2418,-3.2852,-3.2852,-3.3026,-3.3104,-3.2623,-3.2466,-3.243,-3.243,-3.243,-3.2286,-3.1813,-3.1705,-3.1705,-3.1705,-3.1705,-3.1705,-3.1705,-3.1705,-3.1705,-3.1705,-3.1705,-3.1705,-3.1705,-3.1705,-3.1705,-3.1705,-3.1705,-3.1705,-3.1705,-3.1705,-3.1705,-3.1705,-3.1893,-3.2169,-3.24,-3.2593,-3.2711,-3.2766,-3.2982,-3.3124,-3.3124,-3.3124,-3.3124,-3.3124,-3.3124,-3.3124,0.0,-2.2352,0.0,0.0,0.0,0.0,0.0,0.0,0.0,0.0,0.0,0.0,0.0,0.0,0.0,0.0,0.0,0.0,0.0,0.0,0.0,0.0,0.0,0.0,0.0,0.0,0.0,0.0,0.0,0.0,0.0,0.0,0.0,-3.2054,-3.2054,-3.2054,-3.2054,-3.1946,-3.1841,0.0,-3.141,-3.1139,-3.0883,-3.0673,-3.0824,-3.1192,-3.157,-3.1683,-3.1743,-3.1766,-3.1813,-3.1825,-3.1928,-3.1905,-3.1848,-3.2055,-3.2007,-3.1915,-3.2053,-3.2066,-3.1974,-3.1974,-3.1894,-3.1875,-3.1821,-3.2171,-3.2605,-3.2596,-3.2625,-3.2647,-3.2527,-3.2178,-3.1886,-3.1886,-3.1886,-3.1849,-3.1729,-3.1705,-3.1705,-3.1705,-3.1705,-3.1705,-3.1705,-3.1705,-3.1705,-3.1705,-3.1705,-3.1705,-3.1705,-3.1705,-3.1705,-3.1705,-3.1705,-3.1705,-3.1705,-3.1705,-3.1705,-3.1705,-3.2081,-3.2356,-3.24,-3.2593,-3.281,-3.3025,-3.3068,-3.3124,-3.3124,-3.3124,-3.3124,-3.3124,-3.3124,-3.3124,0.0,0.0,0.0,0.0,0.0,0.0,0.0,0.0,0.0,0.0,0.0,0.0,0.0,0.0,0.0,0.0,0.0,0.0,0.0,0.0,0.0,0.0,0.0,0.0,0.0,0.0,0.0,0.0,0.0,0.0,0.0,-3.1862,-3.1705,-3.1705,-3.1705,-3.1705,-3.1705,-3.1705,-3.1705,-3.1705,-3.1318,-3.096,-3.0601,-3.0318,-3.0365,-3.0641,-3.0893,-3.0961,-3.0961,-3.1019,-3.1019,-3.1054,-3.1306,-3.1249,-3.1088,-3.1629,-3.1605,-3.1433,-3.1685,-3.1605,-3.141,-3.141,-3.1331,-3.1252,-3.1351,-3.1639,-3.1976,-3.2088,-3.2094,-3.2094,-3.2094,-3.1934,-3.1705,-3.1705,-3.1705,-3.1705,-3.1705,-3.1705,-3.1705,-3.1705,-3.1705,-3.1705,-3.1705,-3.1705,-3.1705,-3.1705,-3.1705,-3.1705,-3.1705,-3.1705,-3.1705,-3.1705,-3.1705,-3.1705,-3.1705,-3.1705,-3.1705,-3.1705,-3.2125,-3.24,-3.24,-3.2723,-3.2939,-3.3124,-3.3124,-3.3124,-3.3124,-3.3124,-3.3124,-3.3124,-3.3124,-3.3124,0.0,0.0,0.0,0.0,0.0,0.0,0.0,0.0,0.0,0.0,0.0,0.0,0.0,0.0,0.0,0.0,0.0,0.0,0.0,0.0,0.0,0.0,0.0,0.0,0.0,0.0,0.0,0.0,0.0,0.0,-3.1705,-3.1705,-3.1705,-3.1705,-3.1705,-3.1705,-3.1705,-3.1705,-3.1705,-3.1705,-3.1241,-3.0703,-3.0216,-3.0216,-3.0216,-3.0216,-3.0216,-3.0216,-3.0216,-3.0216,-3.0216,-3.0262,-3.0698,-3.0606,-3.0319,-3.118,-3.1237,-3.0939,-3.1352,-3.1226,-3.0882,-3.0882,-3.0709,-3.0578,-3.0883,-3.1107,-3.1306,-3.1617,-3.1705,-3.1705,-3.1705,-3.1705,-3.1705,-3.1705,-3.1705,-3.1705,-3.1705,-3.1705,-3.1705,-3.1705,-3.1705,-3.1705,-3.1705,-3.1705,-3.1705,-3.1705,-3.1705,-3.1705,-3.1705,-3.1705,-3.1705,-3.1705,-3.1705,-3.1705,-3.1705,-3.1705,-3.1705,-3.1705,-3.2125,-3.24,-3.24,-3.2865,-3.3124,-3.3124,-3.3124,-3.3124,-3.3124,-3.3124,-3.3124,-3.3124,-3.3124,-3.3124,0.0,0.0,0.0,0.0,0.0,0.0,0.0,0.0,0.0,0.0,0.0,0.0,0.0,0.0,0.0,0.0,0.0,0.0,0.0,0.0,0.0,0.0,0.0,0.0,0.0,0.0,0.0,0.0,0.0,0.0,-3.1705,-3.1705,-3.1705,-3.1705,-3.1705,-3.1705,-3.1705,-3.1705,-3.1705,-3.1705,-3.1241,-3.0703,-3.0216,-3.0216,-3.0216,-3.0216,-3.0216,-3.0216,-3.0216,-3.0216,-3.0216,-3.0227,-3.0296,-3.0285,-3.0227,-3.0376,-3.0376,-3.0331,-3.0399,-3.0376,-3.0331,-3.0331,-3.0273,-3.0352,-3.0838,-3.1029,-3.1151,-3.1584,-3.1705,-3.1705,-3.1705,-3.1705,-3.1705,-3.1705,-3.1705,-3.1705,-3.1705,-3.1705,-3.1705,-3.1705,-3.1705,-3.1705,-3.1705,-3.1705,-3.1705,-3.1705,-3.1705,-3.1705,-3.1705,-3.1705,-3.1705,-3.1705,-3.1705,-3.1705,-3.1705,-3.1705,-3.1705,-3.1705,-3.2125,-3.24,-3.24,-3.2865,-3.3124,-3.3124,-3.3124,-3.3124,-3.3124,-3.3124,-3.3124,-3.3124,-3.3124,-3.3124,-1.9672,-2.2226,0.0,0.0,0.0,0.0,0.0,0.0,0.0,0.0,0.0,0.0,0.0,0.0,0.0,0.0,0.0,0.0,0.0,0.0,0.0,0.0,0.0,0.0,0.0,0.0,0.0,0.0,0.0,-3.1705,-3.1705,-3.1705,-3.1573,-3.1271,-3.1259,-3.1127,-3.0826,-3.0783,-3.074,-3.0568,-3.0265,-2.9904,-2.9498,-2.941,-2.9676,-3.0216,-3.0216,-3.0216,-3.0216,-3.0216,-3.0216,-3.0216,-3.0216,-3.0216,-3.0216,-3.0216,-3.0216,-3.0216,-3.0216,-3.0216,-3.0216,-3.0216,-3.0306,-3.0487,-3.0883,-3.1062,-3.1229,-3.1617,-3.1705,-3.1705,-3.1705,-3.1705,-3.1705,-3.1705,-3.1705,-3.1705,-3.1705,-3.1705,-3.1705,-3.1705,-3.1705,-3.1705,-3.1705,-3.1705,-3.1705,-3.1705,-3.1705,-3.1705,-3.1705,-3.1705,-3.1705,-3.1705,-3.1705,-3.1705,-3.1705,-3.1994,-3.2207,-3.2317,-3.2653,-3.2887,-3.3007,-3.3058,-3.3124,-3.3124,-3.3124,-3.3124,-3.3124,-3.3124,-3.3124,-3.3124,-3.3124,-3.3124,-1.9745,-2.1822,-2.3595,0.0,0.0,0.0,0.0,0.0,0.0,0.0,0.0,0.0,0.0,0.0,0.0,0.0,0.0,0.0,0.0,0.0,0.0,0.0,0.0,0.0,0.0,0.0,0.0,0.0,0.0,-3.1705,-3.1705,-3.1705,-3.1524,-3.1139,-3.1115,-3.0862,-3.029,-3.0158,-2.9959,-2.9706,-2.9482,-2.9269,-2.9001,-2.8786,-2.9114,-2.9837,-2.9975,-3.0032,-3.0044,-3.017,-3.0216,-3.0216,-3.0216,-3.0216,-3.0216,-3.0216,-3.0216,-3.0216,-3.0216,-3.0216,-3.0216,-3.0261,-3.0442,-3.0668,-3.096,-3.1184,-3.135,-3.1617,-3.1705,-3.1705,-3.1705,-3.1705,-3.1705,-3.1705,-3.1705,-3.1705,-3.1705,-3.1705,-3.1705,-3.1705,-3.1705,-3.1705,-3.1705,-3.1705,-3.1705,-3.1705,-3.1705,-3.1705,-3.1705,-3.1837,-3.1922,-3.1922,-3.2042,-3.2126,-3.2126,-3.25,-3.2853,-3.2998,-3.3306,-3.3575,-3.3697,-3.3439,-3.3282,-3.3282,-3.3156,-3.3124,-3.3124,-3.3124,-3.3124,-3.3124,-3.3124,-3.3124,-1.7063,-1.9018,0.0,0.0,0.0,0.0,0.0,0.0,0.0,0.0,0.0,0.0,0.0,0.0,0.0,0.0,0.0,0.0,0.0,0.0,0.0,0.0,0.0,0.0,0.0,0.0,0.0,0.0,0.0,-3.1705,-3.1705,-3.1705,-3.1693,-3.1669,-3.1669,-3.1416,-3.0874,-3.0338,-2.9959,-2.9706,-2.9482,-2.9269,-2.9001,-2.8786,-2.8723,-2.8804,-2.932,-2.9538,-2.9573,-3.0032,-3.0216,-3.0216,-3.0216,-3.0216,-3.0216,-3.0216,-3.0216,-3.0216,-3.0216,-3.0216,-3.0261,-3.0487,-3.0578,-3.0668,-3.1172,-3.1306,-3.135,-3.1617,-3.1705,-3.1705,-3.1705,-3.1705,-3.1705,-3.1705,-3.1705,-3.1705,-3.1705,-3.1705,-3.1705,-3.1705,-3.1705,-3.1705,-3.1705,-3.1705,-3.1705,-3.1705,-3.1705,-3.1705,-3.1705,-3.213,-3.2454,-3.2454,-3.2899,-3.32,-3.32,-3.3397,-3.3548,-3.3536,-3.4065,-3.4338,-3.4338,-3.4027,-3.3859,-3.3859,-3.3345,-3.3124,-3.3124,-3.3124,-3.3124,-3.3124,-3.3124,-3.3124,-1.6093,-1.7877,0.0,0.0,0.0,0.0,0.0,0.0,0.0,0.0,0.0,0.0,0.0,0.0,0.0,0.0,0.0,0.0,0.0,0.0,0.0,0.0,0.0,0.0,0.0,0.0,0.0,0.0,0.0,0.0,-3.1705,-3.1705,-3.1548,-3.1211,-3.1199,-3.0946,-3.0374,-2.9845,-2.9539,-2.9456,-2.8751,-2.838,-2.8257,-2.7925,-2.7759,-2.7793,-2.8299,-2.87,-2.9022,-2.9538,-2.9757,-2.9791,-3.0089,-3.0216,-3.0216,-3.0216,-3.0216,-3.0216,-3.0397,-3.0442,-3.0487,-3.0781,-3.0949,-3.1083,-3.1261,-3.1439,-3.1572,-3.1661,-3.1705,-3.1705,-3.1705,-3.1705,-3.1705,-3.1705,-3.1705,-3.1705,-3.1705,-3.1705,-3.1705,-3.1705,-3.1705,-3.1705,-3.1705,-3.1705,-3.1705,-3.1705,-3.1705,-3.1705,-3.1705,-3.2154,-3.2503,-3.2503,-3.3097,-3.3504,-3.3504,-3.4039,-3.4421,-3.4641,-3.4805,-3.499,-3.5115,-3.468,-3.4261,-3.3909,-3.3709,-3.3432,-3.3124,-3.3124,-3.3124,-3.3124,-3.3124,-3.3124,-1.489,0.0,0.0,0.0,0.0,0.0,0.0,0.0,0.0,0.0,0.0,0.0,0.0,0.0,0.0,0.0,0.0,0.0,0.0,0.0,0.0,0.0,0.0,0.0,0.0,0.0,0.0,0.0,0.0,0.0,-3.1175,-3.1175,-3.1019,-3.0627,-3.0446,-3.0266,-3.0086,-2.9569,-2.9347,-2.9433,-2.855,-2.811,-2.8017,-2.7475,-2.719,-2.7201,-2.7587,-2.8,-2.8494,-2.9022,-2.9228,-2.9274,-2.978,-2.9975,-2.9998,-3.0158,-3.0261,-3.0352,-3.0532,-3.0668,-3.0769,-3.1005,-3.1184,-3.1306,-3.1395,-3.1572,-3.1705,-3.1705,-3.1705,-3.1705,-3.1705,-3.1705,-3.1705,-3.1705,-3.1705,-3.1705,-3.1705,-3.1705,-3.1705,-3.1705,-3.1705,-3.1705,-3.1705,-3.1705,-3.1705,-3.1705,-3.1705,-3.1777,-3.197,-3.243,-3.2827,-3.3008,-3.3617,-3.4012,-3.4012,-3.4682,-3.5127,-3.5338,-3.5491,-3.5644,-3.5818,-3.5245,-3.4738,-3.4186,-3.3985,-3.3633,-3.3124,-3.3124,-3.3124,-3.3124,-3.3124,-3.3124,0.0,0.0,0.0,0.0,0.0,0.0,0.0,0.0,0.0,0.0,0.0,0.0,0.0,0.0,0.0,0.0,0.0,0.0,0.0,0.0,0.0,0.0,0.0,0.0,0.0,0.0,0.0,0.0,0.0,-3.0086,-3.0086,-3.0086,-3.0086,-3.0086,-2.9593,-2.9569,-3.0074,-2.9581,-2.9445,-2.9694,-2.9041,-2.8585,-2.8312,-2.7554,-2.7201,-2.719,-2.719,-2.7518,-2.8023,-2.8482,-2.8677,-2.8723,-2.9263,-2.9481,-2.9561,-3.0021,-3.0385,-3.0623,-3.0623,-3.0769,-3.1017,-3.1273,-3.1306,-3.135,-3.1617,-3.1705,-3.1705,-3.1705,-3.1705,-3.1705,-3.1705,-3.1705,-3.1705,-3.1705,-3.1705,-3.1705,-3.1705,-3.1705,-3.1705,-3.1705,-3.1705,-3.1705,-3.1705,-3.1705,-3.1705,-3.1705,-3.1705,-3.191,-3.2406,-3.2947,-3.3464,-3.3898,-3.445,-3.4823,-3.4799,-3.532,-3.562,-3.562,-3.6133,-3.6405,-3.6405,-3.5855,-3.5257,-3.4726,-3.4198,-3.3646,-3.3124,-3.3124,-3.3124,-3.3124,-3.3124,-3.3124,-1.4341,0.0,0.0,0.0,0.0,0.0,0.0,0.0,0.0,0.0,0.0,0.0,0.0,0.0,0.0,0.0,0.0,0.0,0.0,0.0,0.0,0.0,0.0,0.0,0.0,0.0,0.0,0.0,-2.9869,-3.0086,-3.0086,-3.0086,-3.0086,-3.0086,-2.9941,-2.9941,-3.0086,-2.9941,-2.9899,-3.0001,-2.9467,-2.9009,-2.8574,-2.8048,-2.7575,-2.719,-2.719,-2.7518,-2.7989,-2.8126,-2.8184,-2.823,-2.8723,-2.916,-2.9504,-2.9808,-3.0208,-3.0668,-3.0982,-3.1172,-3.1273,-3.1484,-3.1572,-3.1617,-3.1661,-3.1705,-3.1705,-3.1705,-3.1705,-3.1705,-3.1705,-3.1705,-3.1705,-3.1705,-3.1705,-3.1705,-3.1705,-3.1705,-3.1705,-3.1705,-3.1705,-3.1705,-3.1705,-3.1705,-3.1705,-3.1705,-3.1705,-3.1765,-3.1922,-3.2719,-3.32,-3.2959,-3.4208,-3.5017,-3.4831,-3.5494,-3.5955,-3.6181,-3.631,-3.6405,-3.6405,-3.6267,-3.5692,-3.4738,-3.4575,-3.4022,-3.3124,-3.3124,-3.3124,-3.3124,-3.3124,-3.3124,-1.5181,-1.5958,0.0,0.0,0.0,0.0,0.0,0.0,0.0,0.0,0.0,0.0,0.0,0.0,0.0,0.0,0.0,0.0,0.0,0.0,0.0,0.0,0.0,0.0,0.0,0.0,0.0,-2.8967,-2.9256,-2.9436,-2.9436,-2.9436,-2.9436,-2.9436,-2.9436,-2.9532,-2.9749,-2.9761,-2.9827,-2.9917,-2.9354,-2.9002,-2.8794,-2.8237,-2.7931,-2.7839,-2.7839,-2.8012,-2.8287,-2.8287,-2.8161,-2.8065,-2.8602,-2.8899,-2.9092,-2.9727,-3.0241,-3.0655,-3.1134,-3.135,-3.1484,-3.1661,-3.1705,-3.1705,-3.1705,-3.1705,-3.1705,-3.1705,-3.1705,-3.1705,-3.1705,-3.1705,-3.1705,-3.1705,-3.1705,-3.1705,-3.1705,-3.1705,-3.1705,-3.1705,-3.1705,-3.1705,-3.1705,-3.1705,-3.1705,-3.1705,-3.1705,-3.1789,-3.1985,-3.2575,-3.2923,-3.2839,-3.3786,-3.4398,-3.4316,-3.4807,-3.5372,-3.5878,-3.5972,-3.6019,-3.6019,-3.6019,-3.5504,-3.4399,-3.4374,-3.3947,-3.3124,-3.3124,-3.3124,-3.3124,-3.3124,-3.3124,-1.6026,-1.6358,-1.6919,0.0,0.0,0.0,-1.9471,-1.9387,0.0,0.0,0.0,0.0,0.0,0.0,0.0,0.0,0.0,0.0,0.0,0.0,0.0,0.0,0.0,0.0,0.0,-2.833,-2.833,-2.833,-2.839,-2.845,-2.851,-2.851,-2.851,-2.851,-2.851,-2.8739,-2.9208,-2.9268,-2.9409,-2.9611,-2.9052,-2.8813,-2.8908,-2.8357,-2.8264,-2.862,-2.8677,-2.8735,-2.8792,-2.8792,-2.8471,-2.8065,-2.8673,-2.8665,-2.844,-2.9605,-3.0186,-3.0509,-3.1077,-3.14,-3.1633,-3.1693,-3.1705,-3.1705,-3.1705,-3.1705,-3.1705,-3.1705,-3.1705,-3.1705,-3.1705,-3.1705,-3.1705,-3.1705,-3.1705,-3.1705,-3.1705,-3.1705,-3.1705,-3.1705,-3.1705,-3.1705,-3.1705,-3.1705,-3.1705,-3.1705,-3.1705,-3.1886,-3.2346,-3.2466,-3.2659,-3.3114,-3.3258,-3.3399,-3.3591,-3.387,-3.4357,-3.5118,-3.5328,-3.5408,-3.5408,-3.5408,-3.4919,-3.3922,-3.3847,-3.3571,-3.3124,-3.3124,-3.3124,-3.3124,-3.3124,-3.3124,-1.7217,-1.7684,-1.8145,-1.6523,0.0,0.0,0.0,-1.6907,0.0,0.0,0.0,0.0,0.0,0.0,0.0,0.0,0.0,0.0,0.0,0.0,0.0,0.0,0.0,0.0,0.0,-2.7198,-2.7198,-2.7198,-2.7594,-2.8026,-2.8486,-2.851,-2.851,-2.851,-2.851,-2.8558,-2.8667,-2.9088,-2.927,-2.916,-2.9218,-2.8953,-2.844,-2.8541,-2.8402,-2.8149,-2.854,-2.8941,-2.9343,-2.9343,-2.8804,-2.7989,-2.8134,-2.8237,-2.8347,-2.8796,-2.9336,-2.9974,-3.0714,-3.1023,-3.1139,-3.1573,-3.1705,-3.1705,-3.1705,-3.1705,-3.1705,-3.1705,-3.1705,-3.1705,-3.1705,-3.1705,-3.1705,-3.1705,-3.1705,-3.1705,-3.1705,-3.1705,-3.1705,-3.1705,-3.1705,-3.1705,-3.1705,-3.1705,-3.1705,-3.1705,-3.1705,-3.1753,-3.1862,-3.2214,-3.2461,-3.2257,-3.3029,-3.3552,-3.3506,-3.3954,-3.44,-3.4785,-3.4843,-3.4843,-3.4843,-3.4843,-3.4575,-3.3909,-3.347,-3.3181,-3.3124,-3.3124,-3.3124,-3.3124,-3.3124,-3.3124,-1.8428,-1.8538,-1.8734,-1.7651,0.0,0.0,0.0,0.0,0.0,0.0,0.0,0.0,0.0,0.0,0.0,0.0,0.0,0.0,0.0,0.0,0.0,0.0,0.0,0.0,0.0,-2.6729,-2.6898,-2.6898,-2.7138,-2.7402,-2.7705,-2.7981,-2.8114,-2.8114,-2.8378,-2.851,-2.851,-2.8775,-2.8867,-2.8745,-2.868,-2.8592,-2.8455,-2.8387,-2.8482,-2.8758,-2.8987,-2.9389,-2.986,-2.9983,-2.9577,-2.8861,-2.8607,-2.8491,-2.8479,-2.8757,-2.9142,-2.9606,-3.026,-3.0482,-3.0567,-3.1139,-3.1308,-3.1356,-3.1633,-3.1705,-3.1705,-3.1705,-3.1705,-3.1705,-3.1705,-3.1705,-3.1705,-3.1705,-3.1705,-3.1705,-3.1705,-3.1705,-3.1705,-3.1705,-3.1705,-3.1705,-3.1705,-3.1705,-3.1705,-3.1705,-3.1705,-3.1705,-3.1705,-3.1946,-3.2075,-3.2018,-3.2467,-3.2898,-3.3102,-3.3337,-3.3744,-3.4254,-3.4311,-3.4311,-3.4311,-3.4311,-3.406,-3.3495,-3.3262,-3.3124,-3.3124,-3.3124,-3.3124,-3.3124,-3.3124,-3.3124,0.0,0.0,0.0,0.0,0.0,-1.8746,0.0,0.0,0.0,-1.8951,0.0,0.0,0.0,0.0,0.0,0.0,0.0,0.0,0.0,0.0,0.0,0.0,0.0,0.0,0.0,-2.5817,-2.6153,-2.6549,-2.6405,-2.6465,-2.6873,-2.7294,-2.7534,-2.7534,-2.8089,-2.8366,-2.8366,-2.8462,-2.8471,-2.8431,-2.8082,-2.8092,-2.8439,-2.814,-2.8479,-2.9348,-2.9489,-2.98,-3.0225,-3.0543,-3.0423,-2.9948,-2.9331,-2.8911,-2.8692,-2.8792,-2.8973,-2.922,-2.9749,-2.9941,-3.0025,-3.0555,-3.0766,-3.085,-3.1271,-3.1476,-3.156,-3.156,-3.1633,-3.1705,-3.1705,-3.1705,-3.1705,-3.1705,-3.1705,-3.1705,-3.1705,-3.1705,-3.1705,-3.1705,-3.1705,-3.1705,-3.1705,-3.1705,-3.1705,-3.1705,-3.1705,-3.1705,-3.1705,-3.1705,-3.1805,-3.2038,-3.2081,-3.2257,-3.2723,-3.2766,-3.304,-3.3709,-3.3746,-3.3746,-3.3746,-3.3746,-3.3533,-3.3124,-3.3124,-3.3124,-3.3124,-3.3124,-3.3124,-3.3124,-3.3124,-3.3124,0.0,0.0,0.0,0.0,-1.9672,0.0,0.0,0.0,-1.7893,-1.7111,0.0,0.0,0.0,0.0,0.0,0.0,0.0,0.0,0.0,0.0,0.0,0.0,0.0,0.0,0.0,0.0,-2.3496,-2.5348,-2.465,-2.4951,-2.6789,-2.6958,-2.6982,-2.6982,-2.7498,-2.7774,-2.7774,-2.827,-2.8431,-2.8219,-2.8002,-2.7916,-2.7987,-2.799,-2.8245,-2.8731,-2.9471,-2.9913,-3.0238,-3.074,-3.0904,-3.074,-2.9742,-2.9206,-2.8904,-2.8429,-2.8435,-2.8679,-2.9208,-2.9388,-2.9472,-3.0013,-3.017,-3.0194,-3.0242,-3.0591,-3.1007,-3.1007,-3.1344,-3.1705,-3.1705,-3.1705,-3.1705,-3.1705,-3.1705,-3.1705,-3.1705,-3.1705,-3.1705,-3.1705,-3.1705,-3.1705,-3.1705,-3.1705,-3.1705,-3.1705,-3.1705,-3.1705,-3.1705,-3.1705,-3.1893,-3.23,-3.2344,-3.2562,-3.3025,-3.3068,-3.3106,-3.3212,-3.3212,-3.3212,-3.3212,-3.3212,-3.3144,-3.3124,-3.3124,-3.3124,-3.3124,-3.3124,-3.3124,-3.3124,-3.3124,-3.3124,0.0,0.0,0.0,0.0,0.0,0.0,-1.7676,0.0,-1.7712,0.0,0.0,0.0,0.0,0.0,0.0,0.0,0.0,0.0,0.0,0.0,0.0,0.0,0.0,0.0,0.0,0.0,0.0,0.0,0.0,-2.3508,-2.5023,-2.5661,-2.6093,-2.6442,-2.6946,-2.7378,-2.7678,-2.7906,-2.8079,-2.8219,-2.8002,-2.7841,-2.7667,-2.7561,-2.7785,-2.8282,-2.8723,-2.9157,-2.9557,-3.039,-3.069,-3.0687,-3.0379,-2.9922,-2.932,-2.8488,-2.8351,-2.8546,-2.8763,-2.8847,-2.8931,-2.946,-2.9833,-3.0086,-3.0086,-3.0458,-3.0922,-3.0922,-3.1296,-3.1705,-3.1705,-3.1705,-3.1705,-3.1705,-3.1705,-3.1705,-3.1705,-3.1705,-3.1705,-3.1705,-3.1705,-3.1705,-3.1705,-3.1705,-3.1705,-3.1705,-3.1705,-3.1705,-3.1705,-3.1705,-3.1893,-3.2356,-3.24,-3.2605,-3.3081,-3.3124,-3.3124,-3.3124,-3.3124,-3.3124,-3.3124,-3.3124,-3.3124,-3.3124,-3.3124,-3.3124,-3.3124,-3.3124,-3.3124,-3.3124,-3.3124,-3.3124,-2.1302,0.0,0.0,0.0,0.0,0.0,0.0,0.0,0.0,0.0,0.0,0.0,0.0,0.0,0.0,0.0,0.0,0.0,0.0,0.0,0.0,0.0,0.0,0.0,0.0,0.0,0.0,0.0,0.0,0.0,-2.3505,-2.4398,-2.5131,-2.5648,-2.6309,-2.6922,-2.7462,-2.7618,-2.7903,-2.8259,-2.807,-2.7909,-2.7765,-2.7505,-2.7673,-2.8156,-2.8379,-2.8731,-2.9136,-3.0008,-3.0489,-3.0596,-3.0668,-3.0337,-2.9714,-2.8807,-2.8511,-2.851,-2.851,-2.851,-2.857,-2.8955,-2.934,-2.9653,-2.9653,-3.0025,-3.047,-3.0657,-3.1091,-3.1524,-3.1669,-3.1705,-3.1705,-3.1705,-3.1705,-3.1705,-3.1705,-3.1705,-3.1705,-3.1705,-3.1705,-3.1705,-3.1705,-3.1705,-3.1705,-3.1705,-3.1705,-3.1705,-3.1705,-3.1705,-3.1849,-3.2257,-3.23,-3.2475,-3.2939,-3.2982,-3.3025,-3.3124,-3.3124,-3.3124,-3.3124,-3.3124,-3.3124,-3.3124,-3.3124,-3.3124,-3.3124,-3.3124,-3.3124,-3.3124,-3.3124,-3.3124,0.0,0.0,0.0,-1.9793,0.0,0.0,0.0,0.0,-1.8806,0.0,0.0,0.0,0.0,0.0,0.0,0.0,0.0,0.0,0.0,0.0,0.0,0.0,0.0,0.0,0.0,0.0,0.0,0.0,0.0,0.0,-2.2903,-2.3553,-2.4049,-2.4554,-2.5588,-2.6394,-2.691,-2.7426,-2.7993,-2.8471,-2.8299,-2.8299,-2.8471,-2.8042,-2.8094,-2.8479,-2.8819,-2.9099,-2.9323,-2.9893,-3.041,-3.0819,-3.0314,-3.0098,-3.0025,-2.9472,-2.8943,-2.851,-2.851,-2.851,-2.851,-2.8534,-2.8546,-2.8558,-2.8558,-2.8931,-2.946,-2.9965,-3.0494,-3.1067,-3.1573,-3.1705,-3.1705,-3.1705,-3.1705,-3.1705,-3.1705,-3.1705,-3.1705,-3.1705,-3.1705,-3.1705,-3.1705,-3.1705,-3.1705,-3.1705,-3.1705,-3.1705,-3.1705,-3.1705,-3.1761,-3.1994,-3.1994,-3.2201,-3.2667,-3.2711,-3.281,-3.3068,-3.3124,-3.3124,-3.3124,-3.3124,-3.3124,-3.3124,-3.3124,-3.3124,-3.3124,-3.3124,-3.3124,-3.3124,-3.3124,-3.3124,0.0,0.0,-2.3523,-2.1021,0.0,0.0,0.0,0.0,0.0,0.0,0.0,0.0,0.0,0.0,0.0,0.0,0.0,0.0,0.0,0.0,0.0,0.0,0.0,0.0,0.0,0.0,0.0,0.0,0.0,0.0,0.0,-2.2438,-2.328,-2.4448,-2.4867,-2.548,-2.637,-2.6562,-2.7016,-2.7786,-2.7695,-2.7806,-2.8082,-2.7962,-2.7962,-2.8134,-2.8369,-2.8521,-2.8609,-2.9299,-2.9677,-2.9881,-3.0398,-3.0398,-3.0062,-2.9893,-2.9268,-2.851,-2.851,-2.851,-2.851,-2.851,-2.851,-2.851,-2.851,-2.8883,-2.934,-2.9508,-3.0194,-3.0958,-3.1139,-3.144,-3.1705,-3.1705,-3.1705,-3.1705,-3.1705,-3.1705,-3.1705,-3.1705,-3.1705,-3.1705,-3.1705,-3.1705,-3.1705,-3.1705,-3.1705,-3.1705,-3.1705,-3.1705,-3.1761,-3.1981,-3.1994,-3.2125,-3.2475,-3.2636,-3.2797,-3.3068,-3.3124,-3.3124,-3.3124,-3.3124,-3.3124,-3.3124,-3.3124,-3.3124,-3.3124,-3.3124,-3.3124,-3.3124,-3.3124,-3.3124,-2.3027,-2.358,0.0,-2.187,-2.1425,0.0,-1.9176,0.0,0.0,0.0,0.0,0.0,0.0,0.0,0.0,0.0,0.0,0.0,0.0,0.0,0.0,0.0,0.0,0.0,0.0,0.0,-1.7845,-1.8434,0.0,0.0,0.0,0.0,-2.2546,-2.3929,-2.4326,-2.5023,-2.6093,-2.6093,-2.6476,-2.7198,-2.7427,-2.7624,-2.785,-2.8039,-2.8122,-2.8122,-2.8271,-2.8299,-2.8323,-2.8831,-2.9124,-2.9364,-3.005,-3.0218,-3.011,-3.0302,-2.9821,-2.9076,-2.9076,-2.8943,-2.8787,-2.8787,-2.8667,-2.851,-2.851,-2.8751,-2.9051,-2.9244,-2.9785,-3.0398,-3.0783,-3.1175,-3.1476,-3.1657,-3.1705,-3.1705,-3.1705,-3.1705,-3.1705,-3.1705,-3.1705,-3.1705,-3.1705,-3.1705,-3.1705,-3.1705,-3.1705,-3.1705,-3.1705,-3.1705,-3.1761,-3.1893,-3.1893,-3.2025,-3.2344,-3.2593,-3.2797,-3.3068,-3.3124,-3.3124,-3.3124,-3.3124,-3.3124,-3.3124,-3.3124,-3.3124,-3.3124,-3.3124,-3.3124,-3.3124,-3.3124,-3.3124]}]]